[[{"header":{"parameterUnit":"m.s-1","parameterCategory":1,"la1":31.0,"la2":29.5877,"lo1":-88.7671,"lo2":-86.6584,"dy":0.0162,"dx":0.0185,"nx":115,"ny":88,"refTime":"2023-03-24T18:00:00:Z","depth":0,"parameterNumber":2,"parameterNumberName":"U-component_of_WINDS"},"data":[0.0,0.0,0.0,0.0,0.0,0.0,0.0,0.0,0.0,0.0,0.0,0.0,0.0,0.0,0.0,0.0,0.0,0.0,0.0,0.0,0.0,0.0,0.0,0.0,0.0,0.0,0.0,0.0,0.0,0.0,0.0,0.0,0.0,0.0,0.0,0.0,0.0,0.0,0.0,0.0,0.0,0.0,0.0,0.0,0.0,0.0,0.0,0.0,0.0,0.0,0.0,0.0,0.0,0.0,0.0,0.0,0.0,0.0,0.0,0.0,0.0,0.0,0.0,0.0,0.0,0.0,0.0,0.0,0.0,0.0,0.0,0.0,0.0,0.0,0.0,0.0,0.0,0.0,0.0,0.0,0.0,0.0,0.0,0.0,0.0,0.0,0.0,0.0,0.0,0.0,0.0,0.0,0.0,0.0,0.0,0.0,0.0,0.0,0.0,0.0,0.0,0.0,0.0,0.0,0.0,0.0,0.0,0.0,0.0,0.0,0.0,0.0,0.0,0.0,0.0,0.0,0.0,0.0,0.0,0.0,0.0,0.0,0.0,0.0,0.0,0.0,0.0,0.0,0.0,0.0,0.0,0.0,0.0,0.0,0.0,0.0,0.0,0.0,0.0,0.0,0.0,0.0,0.0,0.0,0.0,0.0,0.0,0.0,0.0,0.0,0.0,0.0,0.0,0.0,0.0,0.0,0.0,0.0,0.0,0.0,0.0,0.0,0.0,0.0,0.0,0.0,0.0,0.0,0.0,0.0,0.0,0.0,0.0,0.0,0.0,0.0,0.0,0.0,0.0,0.0,0.0,0.0,0.0,0.0,0.0,0.0,0.0,0.0,0.0,0.0,0.0,0.0,0.0,0.0,0.0,0.0,0.0,0.0,0.0,0.0,0.0,0.0,0.0,0.0,0.0,0.0,0.0,0.0,0.0,0.0,0.0,0.0,0.0,0.0,0.0,0.0,0.0,0.0,0.0,0.0,0.0,0.0,0.0,0.0,0.0,0.0,0.0,0.0,0.0,0.0,0.0,0.0,0.0,0.0,0.0,0.0,0.0,0.0,0.0,0.0,0.0,0.0,0.0,0.0,0.0,0.0,0.0,0.0,0.0,0.0,0.0,0.0,0.0,0.0,0.0,0.0,0.0,0.0,0.0,0.0,0.0,0.0,0.0,0.0,0.0,0.0,0.0,0.0,0.0,0.0,0.0,0.0,0.0,0.0,0.0,0.0,0.0,0.0,0.0,0.0,0.0,0.0,0.0,0.0,0.0,0.0,0.0,0.0,0.0,0.0,0.0,0.0,0.0,0.0,0.0,0.0,0.0,0.0,0.0,0.0,0.0,0.0,0.0,0.0,0.0,0.0,0.0,0.0,0.0,0.0,0.0,0.0,0.0,0.0,0.0,0.0,0.0,0.0,0.0,0.0,0.0,0.0,0.0,0.0,0.0,0.0,0.0,0.0,0.0,0.0,0.0,0.0,0.0,0.0,0.0,0.0,0.0,0.0,0.0,0.0,0.0,0.0,0.0,0.0,0.0,0.0,0.0,0.0,0.0,0.0,0.0,0.0,0.0,0.0,0.0,0.0,0.0,0.0,0.0,0.0,0.0,0.0,0.0,0.0,0.0,0.0,0.0,0.0,0.0,0.0,0.0,0.0,0.0,0.0,0.0,0.0,0.0,0.0,0.0,0.0,0.0,0.0,0.0,0.0,0.0,0.0,0.0,0.0,0.0,0.0,0.0,0.0,0.0,0.0,0.0,0.0,0.0,0.0,0.0,0.0,0.0,0.0,0.0,0.0,0.0,0.0,0.0,0.0,0.0,0.0,0.0,0.0,0.0,0.0,0.0,0.0,0.0,0.0,0.0,0.0,0.0,0.0,0.0,0.0,0.0,0.0,0.0,0.0,0.0,0.0,0.0,0.0,0.0,0.0,0.0,0.0,0.0,0.0,0.0,0.0,0.0,0.0,0.0,0.0,0.0,0.0,0.0,0.0,0.0,0.0,0.0,0.0,0.0,0.0,0.0,0.0,0.0,0.0,0.0,0.0,0.0,0.0,0.0,0.0,0.0,0.0,0.0,0.0,0.0,0.0,0.0,0.0,0.0,0.0,0.0,0.0,0.0,0.0,0.0,0.0,0.0,0.0,0.0,0.0,0.0,0.0,0.0,0.0,0.0,0.0,0.0,0.0,0.0,0.0,0.0,0.0,0.0,0.0,0.0,0.0,0.0,0.0,0.0,0.0,0.0,0.0,0.0,0.0,0.0,0.0,0.0,0.0,0.0,0.0,0.0,0.0,0.0,0.0,0.0,0.0,0.0,0.0,0.0,0.0,0.0,0.0,0.0,0.0,0.0,0.0,0.0,0.0,0.0,0.0,0.0,0.0,0.0,0.0,0.0,0.0,0.0,0.0,0.0,0.0,0.0,0.0,0.0,0.0,0.0,0.0,0.0,0.0,0.0,0.0,0.0,0.0,0.0,0.0,0.0,0.0,0.0,0.0,0.0,0.0,0.0,0.0,0.0,0.0,0.0,0.0,0.0,0.0,0.0,0.0,0.0,0.0,0.0,0.0,0.0,0.0,0.0,0.0,0.0,0.0,0.0,0.0,0.0,0.0,0.0,0.0,0.0,0.0,0.0,0.0,0.0,0.0,0.0,0.0,0.0,0.0,0.0,0.0,0.0,0.0,0.0,0.0,0.0,0.0,0.0,0.0,0.0,0.0,0.0,0.0,0.0,0.0,0.0,0.0,0.0,0.0,0.0,0.0,0.0,0.0,0.0,0.0,0.0,0.0,0.0,0.0,0.0,0.0,0.0,0.0,0.0,0.0,0.0,0.0,0.0,0.0,0.0,0.0,0.0,0.0,0.0,0.0,0.0,0.0,0.0,0.0,0.0,0.0,0.0,0.0,0.0,0.0,0.0,0.0,0.0,0.0,0.0,0.0,0.0,0.0,0.0,0.0,0.0,0.0,0.0,0.0,0.0,0.0,0.0,0.0,0.0,0.0,0.0,0.0,0.0,0.0,0.0,0.0,0.0,0.0,0.0,0.0,0.0,0.0,0.0,0.0,0.0,0.0,0.0,0.0,0.0,0.0,0.0,0.0,0.0,0.0,0.0,0.0,0.0,0.0,0.0,0.0,0.0,0.0,0.0,0.0,0.0,0.0,0.0,0.0,0.0,0.0,0.0,0.0,0.0,0.0,0.0,0.0,0.0,0.0,0.0,0.0,0.0,0.0,0.0,0.0,0.0,0.0,0.0,0.0,0.0,0.0,0.0,0.0,0.0,0.0,0.0,0.0,0.0,0.0,0.0,0.0,0.0,0.0,0.0,0.0,0.0,0.0,0.0,0.0,0.0,0.0,0.0,0.0,0.0,0.0,0.0,0.0,0.0,0.0,0.0,0.0,0.0,0.0,0.0,0.0,0.0,0.0,0.0,0.0,0.0,0.0,0.0,0.0,0.0,0.0,0.0,0.0,0.0,0.0,0.0,0.0,0.0,0.0,0.0,0.0,0.0,0.0,0.0,0.0,0.0,0.0,0.0,0.0,0.0,0.0,0.0,0.0,0.0,0.0,0.0,0.0,0.0,0.0,0.0,0.0,0.0,0.0,0.0,0.0,0.0,0.0,0.0,0.0,0.0,0.0,0.0,0.0,0.0,0.0,0.0,0.0,0.0,0.0,0.0,0.0,0.0,0.0,0.0,0.0,0.0,0.0,0.0,0.0,0.0,0.0,0.0,0.0,0.0,0.0,0.0,0.0,0.0,0.0,0.0,0.0,0.0,0.0,0.0,0.0,0.0,0.0,0.0,0.0,0.0,0.0,0.0,0.0,0.0,0.0,0.0,0.0,0.0,0.0,0.0,0.0,0.0,0.0,0.0,0.0,0.0,0.0,0.0,0.0,0.0,0.0,0.0,0.0,0.0,0.0,0.0,0.0,0.0,0.0,0.0,0.0,0.0,0.0,0.0,0.0,0.0,0.0,0.0,0.0,0.0,0.0,0.0,0.0,0.0,0.0,0.0,0.0,0.0,0.0,0.0,0.0,0.0,0.0,0.0,0.0,0.0,0.0,0.0,0.0,0.0,0.0,0.0,0.0,0.0,0.0,0.0,0.0,0.0,0.0,0.0,0.0,0.0,0.0,0.0,0.0,0.0,0.0,0.0,0.0,0.0,0.0,0.0,0.0,0.0,0.0,0.0,0.0,0.0,0.0,0.0,0.0,0.0,0.0,0.0,0.0,0.0,0.0,0.0,0.0,0.0,0.0,0.0,0.0,0.0,0.0,0.0,0.0,-5.5022,0.0,0.0,0.0,0.0,0.0,0.0,0.0,0.0,0.0,0.0,0.0,0.0,0.0,0.0,0.0,0.0,0.0,0.0,0.0,0.0,0.0,0.0,0.0,0.0,0.0,0.0,0.0,0.0,0.0,0.0,0.0,0.0,0.0,0.0,0.0,0.0,0.0,0.0,0.0,0.0,0.0,0.0,0.0,0.0,0.0,0.0,0.0,0.0,0.0,0.0,0.0,0.0,0.0,0.0,0.0,0.0,0.0,0.0,0.0,0.0,0.0,0.0,0.0,0.0,0.0,0.0,0.0,0.0,0.0,0.0,0.0,0.0,0.0,0.0,0.0,0.0,0.0,0.0,0.0,0.0,0.0,0.0,0.0,0.0,0.0,0.0,0.0,0.0,0.0,0.0,0.0,0.0,0.0,0.0,0.0,0.0,0.0,0.0,0.0,0.0,0.0,0.0,0.0,0.0,0.0,0.0,0.0,0.0,0.0,0.0,-5.5053,-5.5109,-5.5294,-5.5324,-5.5299,0.0,0.0,0.0,0.0,0.0,0.0,0.0,0.0,0.0,0.0,0.0,0.0,0.0,0.0,0.0,0.0,0.0,0.0,0.0,0.0,0.0,0.0,0.0,0.0,0.0,0.0,0.0,0.0,0.0,0.0,0.0,0.0,0.0,0.0,0.0,0.0,0.0,0.0,0.0,0.0,0.0,0.0,0.0,0.0,0.0,0.0,0.0,0.0,0.0,0.0,0.0,0.0,0.0,0.0,0.0,0.0,0.0,0.0,0.0,0.0,0.0,0.0,0.0,0.0,0.0,0.0,0.0,0.0,0.0,0.0,0.0,0.0,0.0,0.0,0.0,0.0,0.0,0.0,0.0,0.0,0.0,0.0,0.0,0.0,0.0,0.0,0.0,0.0,0.0,0.0,0.0,0.0,0.0,0.0,0.0,0.0,0.0,0.0,0.0,0.0,0.0,0.0,0.0,0.0,0.0,0.0,0.0,0.0,0.0,0.0,0.0,0.0,-5.5413,-5.5507,-5.5478,0.0,0.0,0.0,0.0,0.0,0.0,0.0,0.0,0.0,0.0,0.0,0.0,0.0,0.0,0.0,0.0,0.0,0.0,0.0,0.0,0.0,0.0,0.0,0.0,0.0,0.0,0.0,0.0,0.0,0.0,0.0,0.0,0.0,0.0,0.0,0.0,0.0,0.0,0.0,0.0,0.0,0.0,0.0,0.0,0.0,0.0,0.0,0.0,0.0,0.0,0.0,0.0,0.0,0.0,0.0,0.0,0.0,0.0,0.0,0.0,0.0,0.0,0.0,0.0,0.0,0.0,0.0,0.0,0.0,0.0,0.0,0.0,0.0,0.0,0.0,0.0,0.0,0.0,0.0,0.0,0.0,0.0,0.0,0.0,0.0,0.0,0.0,0.0,0.0,0.0,0.0,0.0,0.0,0.0,0.0,0.0,0.0,0.0,0.0,0.0,0.0,0.0,0.0,0.0,0.0,0.0,0.0,0.0,0.0,0.0,-5.5289,-5.5478,-5.5478,0.0,-5.5478,0.0,0.0,0.0,0.0,0.0,0.0,0.0,0.0,0.0,0.0,0.0,0.0,0.0,0.0,0.0,0.0,0.0,0.0,0.0,0.0,0.0,0.0,0.0,0.0,0.0,0.0,0.0,0.0,0.0,0.0,0.0,0.0,0.0,0.0,0.0,0.0,0.0,0.0,0.0,0.0,0.0,0.0,0.0,0.0,0.0,0.0,0.0,0.0,0.0,0.0,0.0,0.0,0.0,0.0,0.0,0.0,0.0,0.0,0.0,0.0,0.0,0.0,0.0,0.0,0.0,0.0,0.0,0.0,0.0,0.0,0.0,0.0,0.0,0.0,0.0,0.0,0.0,0.0,0.0,0.0,0.0,0.0,0.0,0.0,0.0,0.0,0.0,0.0,0.0,0.0,0.0,0.0,0.0,0.0,0.0,0.0,0.0,0.0,0.0,0.0,0.0,0.0,0.0,0.0,0.0,0.0,0.0,0.0,0.0,0.0,-5.5443,-5.5625,-5.5625,-5.5625,0.0,0.0,0.0,0.0,0.0,0.0,0.0,0.0,0.0,0.0,0.0,0.0,0.0,0.0,0.0,0.0,0.0,0.0,0.0,0.0,0.0,0.0,0.0,0.0,0.0,0.0,0.0,0.0,0.0,0.0,0.0,0.0,0.0,0.0,0.0,0.0,0.0,0.0,0.0,0.0,0.0,0.0,0.0,0.0,0.0,0.0,0.0,0.0,0.0,0.0,0.0,0.0,0.0,0.0,0.0,0.0,0.0,0.0,0.0,0.0,0.0,0.0,0.0,0.0,0.0,0.0,0.0,0.0,0.0,0.0,0.0,0.0,0.0,0.0,0.0,0.0,0.0,0.0,0.0,0.0,0.0,0.0,0.0,0.0,0.0,0.0,0.0,0.0,0.0,0.0,0.0,0.0,0.0,0.0,0.0,0.0,0.0,0.0,0.0,0.0,0.0,0.0,0.0,0.0,0.0,0.0,0.0,0.0,0.0,0.0,-5.5329,-5.5566,-5.5677,-5.5735,-5.5735,-5.5677,0.0,0.0,0.0,0.0,0.0,0.0,0.0,0.0,0.0,0.0,0.0,0.0,0.0,0.0,0.0,0.0,0.0,0.0,0.0,0.0,0.0,0.0,0.0,0.0,0.0,0.0,0.0,0.0,0.0,0.0,0.0,0.0,0.0,0.0,0.0,0.0,0.0,0.0,0.0,0.0,0.0,0.0,0.0,0.0,0.0,0.0,0.0,0.0,0.0,0.0,0.0,0.0,0.0,0.0,0.0,0.0,0.0,0.0,0.0,0.0,0.0,0.0,0.0,0.0,0.0,0.0,0.0,0.0,0.0,0.0,0.0,0.0,0.0,0.0,0.0,0.0,0.0,0.0,0.0,0.0,0.0,0.0,0.0,0.0,0.0,0.0,0.0,0.0,0.0,0.0,0.0,0.0,0.0,0.0,0.0,0.0,0.0,0.0,0.0,0.0,0.0,0.0,0.0,0.0,0.0,0.0,0.0,0.0,-5.4992,-5.5294,-5.5566,-5.5706,-5.5815,-5.585,0.0,0.0,0.0,0.0,0.0,0.0,0.0,0.0,0.0,0.0,0.0,0.0,0.0,0.0,0.0,0.0,0.0,0.0,0.0,0.0,0.0,0.0,0.0,0.0,0.0,0.0,0.0,0.0,0.0,0.0,0.0,0.0,0.0,0.0,0.0,0.0,0.0,0.0,0.0,0.0,0.0,0.0,0.0,0.0,0.0,0.0,0.0,0.0,0.0,0.0,0.0,0.0,0.0,0.0,0.0,0.0,0.0,0.0,0.0,0.0,0.0,0.0,0.0,0.0,0.0,0.0,0.0,0.0,0.0,0.0,0.0,0.0,0.0,0.0,0.0,0.0,0.0,0.0,0.0,0.0,0.0,0.0,0.0,0.0,0.0,0.0,0.0,0.0,0.0,0.0,0.0,0.0,0.0,0.0,0.0,0.0,0.0,0.0,0.0,0.0,0.0,0.0,0.0,0.0,0.0,0.0,0.0,0.0,0.0,-5.4803,-5.5408,-5.5793,-5.5815,-5.5993,-5.5993,0.0,0.0,0.0,0.0,0.0,0.0,0.0,0.0,0.0,0.0,0.0,0.0,0.0,0.0,0.0,0.0,0.0,0.0,0.0,0.0,0.0,0.0,0.0,0.0,0.0,0.0,0.0,0.0,0.0,0.0,0.0,0.0,0.0,0.0,0.0,0.0,0.0,0.0,0.0,0.0,0.0,0.0,0.0,0.0,0.0,0.0,0.0,0.0,0.0,0.0,0.0,0.0,0.0,0.0,0.0,0.0,0.0,0.0,0.0,0.0,0.0,0.0,0.0,0.0,0.0,0.0,0.0,0.0,0.0,0.0,0.0,0.0,0.0,0.0,0.0,0.0,0.0,0.0,0.0,0.0,0.0,0.0,0.0,0.0,0.0,0.0,0.0,0.0,0.0,0.0,0.0,0.0,0.0,0.0,0.0,0.0,0.0,0.0,0.0,0.0,0.0,0.0,0.0,0.0,0.0,0.0,0.0,0.0,0.0,-5.4865,0.0,-5.5815,-5.5815,-5.5993,-5.6127,0.0,0.0,0.0,0.0,0.0,0.0,0.0,0.0,0.0,0.0,0.0,0.0,0.0,0.0,0.0,0.0,0.0,0.0,0.0,0.0,0.0,0.0,0.0,0.0,0.0,0.0,0.0,0.0,0.0,0.0,0.0,0.0,0.0,0.0,0.0,0.0,0.0,0.0,0.0,0.0,0.0,0.0,0.0,0.0,0.0,0.0,0.0,0.0,0.0,0.0,0.0,0.0,0.0,0.0,0.0,0.0,0.0,0.0,0.0,0.0,0.0,0.0,0.0,0.0,0.0,0.0,0.0,0.0,0.0,0.0,0.0,0.0,0.0,0.0,0.0,0.0,0.0,0.0,0.0,0.0,0.0,0.0,0.0,0.0,0.0,0.0,0.0,0.0,0.0,0.0,0.0,0.0,0.0,0.0,0.0,0.0,0.0,0.0,0.0,0.0,0.0,0.0,0.0,0.0,0.0,0.0,0.0,0.0,-5.4523,-5.5169,-5.5531,-5.5742,-5.5706,-5.5886,-5.6239,0.0,0.0,0.0,0.0,0.0,0.0,0.0,0.0,0.0,0.0,0.0,0.0,0.0,0.0,0.0,0.0,0.0,0.0,0.0,0.0,0.0,0.0,0.0,0.0,0.0,0.0,0.0,0.0,0.0,0.0,0.0,0.0,0.0,0.0,0.0,0.0,0.0,0.0,0.0,0.0,0.0,0.0,0.0,0.0,0.0,0.0,0.0,0.0,0.0,0.0,0.0,0.0,0.0,0.0,0.0,0.0,0.0,0.0,0.0,0.0,0.0,0.0,0.0,0.0,0.0,0.0,0.0,0.0,0.0,0.0,0.0,0.0,0.0,0.0,0.0,0.0,0.0,0.0,0.0,0.0,0.0,0.0,0.0,0.0,0.0,0.0,0.0,0.0,0.0,0.0,0.0,0.0,0.0,0.0,0.0,0.0,0.0,0.0,0.0,0.0,0.0,0.0,0.0,0.0,0.0,0.0,0.0,0.0,0.0,-5.5053,-5.5472,-5.5988,-5.6482,-5.6628,-5.7017,0.0,0.0,0.0,0.0,0.0,0.0,0.0,0.0,0.0,0.0,0.0,0.0,0.0,0.0,0.0,0.0,0.0,0.0,0.0,0.0,0.0,0.0,0.0,0.0,0.0,0.0,0.0,0.0,0.0,0.0,0.0,0.0,0.0,0.0,0.0,0.0,0.0,0.0,0.0,0.0,0.0,0.0,0.0,0.0,0.0,0.0,0.0,0.0,0.0,0.0,0.0,0.0,0.0,0.0,0.0,0.0,0.0,0.0,0.0,0.0,0.0,0.0,0.0,0.0,0.0,0.0,0.0,0.0,0.0,0.0,0.0,0.0,0.0,0.0,0.0,0.0,0.0,0.0,0.0,0.0,0.0,0.0,0.0,0.0,0.0,0.0,0.0,0.0,0.0,0.0,0.0,0.0,0.0,0.0,0.0,0.0,0.0,0.0,0.0,0.0,0.0,0.0,0.0,0.0,0.0,0.0,0.0,0.0,0.0,-5.5674,-5.6078,-5.6561,-5.7113,-5.7203,-5.7555,-5.8207,0.0,0.0,0.0,0.0,0.0,0.0,0.0,0.0,0.0,0.0,0.0,0.0,0.0,0.0,0.0,0.0,0.0,0.0,0.0,0.0,0.0,0.0,0.0,0.0,0.0,0.0,0.0,0.0,0.0,0.0,0.0,0.0,0.0,0.0,0.0,0.0,0.0,0.0,0.0,0.0,0.0,0.0,0.0,0.0,0.0,0.0,0.0,0.0,0.0,0.0,0.0,0.0,0.0,0.0,0.0,0.0,0.0,0.0,0.0,0.0,0.0,0.0,0.0,0.0,0.0,0.0,0.0,0.0,0.0,0.0,0.0,0.0,0.0,0.0,0.0,0.0,0.0,0.0,0.0,0.0,0.0,0.0,0.0,0.0,0.0,0.0,0.0,0.0,0.0,0.0,0.0,0.0,0.0,0.0,0.0,0.0,0.0,0.0,0.0,0.0,0.0,0.0,0.0,0.0,0.0,0.0,0.0,0.0,-5.6978,-5.7339,-5.7596,-5.7615,-5.7681,-5.7964,0.0,0.0,0.0,0.0,0.0,0.0,0.0,0.0,0.0,0.0,0.0,0.0,0.0,0.0,0.0,0.0,0.0,0.0,0.0,0.0,0.0,0.0,0.0,0.0,0.0,0.0,0.0,0.0,0.0,0.0,0.0,0.0,0.0,0.0,0.0,0.0,0.0,0.0,0.0,0.0,0.0,0.0,0.0,0.0,0.0,0.0,0.0,0.0,0.0,0.0,0.0,0.0,0.0,0.0,0.0,0.0,0.0,0.0,0.0,0.0,0.0,0.0,0.0,0.0,0.0,0.0,0.0,0.0,0.0,0.0,0.0,0.0,0.0,0.0,0.0,0.0,0.0,0.0,0.0,0.0,0.0,0.0,0.0,0.0,0.0,0.0,0.0,0.0,0.0,0.0,0.0,0.0,0.0,0.0,0.0,0.0,0.0,0.0,0.0,0.0,0.0,0.0,0.0,0.0,0.0,0.0,0.0,0.0,0.0,-5.9012,-5.984,-5.9873,-5.9097,-5.9122,-5.9227,0.0,0.0,0.0,0.0,0.0,0.0,0.0,0.0,0.0,0.0,0.0,0.0,0.0,0.0,0.0,0.0,0.0,0.0,0.0,0.0,0.0,0.0,0.0,0.0,0.0,0.0,0.0,0.0,0.0,0.0,0.0,0.0,0.0,0.0,0.0,0.0,0.0,0.0,0.0,0.0,0.0,0.0,0.0,0.0,0.0,0.0,0.0,0.0,0.0,0.0,0.0,0.0,0.0,0.0,0.0,0.0,0.0,0.0,0.0,0.0,0.0,0.0,0.0,0.0,0.0,0.0,0.0,0.0,0.0,0.0,0.0,0.0,0.0,0.0,0.0,0.0,0.0,0.0,0.0,0.0,0.0,0.0,0.0,0.0,0.0,0.0,0.0,0.0,0.0,0.0,0.0,0.0,0.0,0.0,0.0,0.0,0.0,0.0,0.0,0.0,0.0,0.0,0.0,0.0,0.0,0.0,0.0,0.0,-5.7974,-5.9728,-6.1077,-6.1535,-6.1014,-6.0453,-6.0107,0.0,0.0,0.0,0.0,0.0,0.0,0.0,0.0,0.0,0.0,0.0,0.0,0.0,0.0,0.0,0.0,0.0,0.0,0.0,0.0,0.0,0.0,0.0,0.0,0.0,0.0,0.0,0.0,0.0,0.0,0.0,0.0,0.0,0.0,0.0,0.0,0.0,0.0,0.0,0.0,0.0,0.0,0.0,0.0,0.0,0.0,0.0,0.0,0.0,0.0,0.0,0.0,0.0,0.0,0.0,0.0,0.0,0.0,0.0,0.0,0.0,0.0,0.0,0.0,0.0,0.0,0.0,0.0,0.0,0.0,0.0,0.0,0.0,0.0,0.0,0.0,0.0,0.0,0.0,0.0,0.0,0.0,0.0,0.0,0.0,0.0,0.0,0.0,0.0,0.0,0.0,0.0,0.0,0.0,0.0,0.0,0.0,0.0,0.0,0.0,0.0,0.0,0.0,0.0,0.0,0.0,0.0,0.0,-5.8006,-5.9686,-6.1626,-6.2815,-6.317,-6.1744,-6.0807,0.0,0.0,0.0,0.0,0.0,0.0,0.0,0.0,0.0,0.0,0.0,0.0,0.0,0.0,0.0,0.0,0.0,0.0,0.0,0.0,0.0,0.0,0.0,0.0,0.0,0.0,0.0,0.0,0.0,0.0,0.0,0.0,0.0,0.0,0.0,0.0,0.0,0.0,0.0,0.0,0.0,0.0,0.0,0.0,0.0,0.0,0.0,0.0,0.0,0.0,0.0,0.0,0.0,0.0,0.0,0.0,0.0,0.0,0.0,0.0,0.0,0.0,0.0,0.0,0.0,0.0,0.0,0.0,0.0,0.0,0.0,0.0,0.0,0.0,0.0,0.0,0.0,0.0,0.0,0.0,0.0,0.0,0.0,0.0,0.0,0.0,0.0,0.0,0.0,0.0,0.0,0.0,0.0,0.0,0.0,0.0,0.0,0.0,0.0,0.0,0.0,0.0,0.0,0.0,0.0,0.0,0.0,0.0,-5.8645,-6.0291,-6.2309,-6.3745,-6.4553,-6.3204,-6.1953,0.0,0.0,0.0,0.0,0.0,0.0,0.0,0.0,0.0,0.0,0.0,0.0,0.0,0.0,0.0,0.0,0.0,0.0,0.0,0.0,0.0,0.0,0.0,0.0,0.0,0.0,0.0,0.0,0.0,0.0,0.0,0.0,0.0,0.0,0.0,0.0,0.0,0.0,0.0,0.0,0.0,0.0,0.0,0.0,0.0,0.0,0.0,0.0,-5.4931,0.0,0.0,0.0,0.0,0.0,0.0,0.0,0.0,0.0,0.0,0.0,0.0,0.0,0.0,0.0,0.0,0.0,0.0,0.0,0.0,0.0,0.0,0.0,0.0,0.0,0.0,0.0,0.0,0.0,0.0,0.0,0.0,0.0,0.0,0.0,0.0,0.0,0.0,0.0,0.0,0.0,0.0,0.0,0.0,0.0,0.0,0.0,0.0,0.0,0.0,0.0,0.0,0.0,0.0,0.0,0.0,0.0,0.0,0.0,-5.9318,-6.0966,-6.2993,-6.4473,-6.5077,-6.4241,-6.2959,0.0,0.0,0.0,0.0,0.0,0.0,0.0,0.0,0.0,0.0,0.0,0.0,0.0,0.0,0.0,0.0,0.0,0.0,0.0,0.0,0.0,0.0,0.0,0.0,0.0,0.0,0.0,0.0,0.0,0.0,0.0,0.0,0.0,0.0,0.0,0.0,0.0,0.0,0.0,0.0,0.0,0.0,0.0,0.0,0.0,0.0,0.0,0.0,0.0,0.0,0.0,0.0,0.0,0.0,0.0,0.0,0.0,0.0,0.0,0.0,0.0,0.0,0.0,0.0,0.0,0.0,0.0,0.0,0.0,0.0,0.0,0.0,0.0,0.0,0.0,0.0,0.0,0.0,0.0,0.0,0.0,0.0,0.0,0.0,0.0,0.0,0.0,0.0,0.0,0.0,0.0,0.0,0.0,0.0,0.0,0.0,0.0,0.0,0.0,0.0,0.0,0.0,0.0,0.0,0.0,0.0,0.0,-5.786,-5.9756,-6.1163,-6.3474,-6.4855,-6.5082,-6.468,-6.357,-6.164,0.0,0.0,0.0,0.0,0.0,0.0,0.0,0.0,0.0,0.0,0.0,0.0,0.0,0.0,0.0,0.0,0.0,0.0,0.0,0.0,0.0,0.0,0.0,0.0,0.0,0.0,0.0,0.0,0.0,0.0,0.0,0.0,0.0,0.0,0.0,0.0,0.0,0.0,-5.543,-5.6288,0.0,0.0,0.0,0.0,0.0,0.0,0.0,0.0,-5.6398,0.0,0.0,0.0,0.0,0.0,0.0,0.0,0.0,0.0,0.0,0.0,0.0,0.0,0.0,0.0,0.0,0.0,0.0,0.0,0.0,0.0,0.0,0.0,0.0,0.0,0.0,0.0,0.0,0.0,0.0,0.0,0.0,0.0,0.0,0.0,0.0,0.0,0.0,0.0,0.0,0.0,0.0,0.0,0.0,0.0,0.0,0.0,0.0,0.0,0.0,0.0,0.0,0.0,0.0,0.0,0.0,-5.3835,-5.7318,-5.9245,-5.9553,-6.2922,-6.4505,-6.4135,-6.3735,-6.2942,-6.164,0.0,0.0,0.0,0.0,0.0,0.0,0.0,0.0,0.0,0.0,0.0,0.0,0.0,0.0,0.0,0.0,0.0,0.0,0.0,0.0,0.0,0.0,0.0,0.0,0.0,0.0,0.0,0.0,0.0,0.0,0.0,0.0,0.0,0.0,0.0,0.0,0.0,0.0,0.0,-5.6288,-5.6771,0.0,0.0,0.0,0.0,0.0,0.0,0.0,0.0,-5.8482,0.0,0.0,0.0,0.0,0.0,0.0,0.0,0.0,0.0,0.0,0.0,0.0,0.0,0.0,0.0,0.0,0.0,0.0,0.0,0.0,0.0,0.0,0.0,0.0,0.0,0.0,0.0,0.0,0.0,0.0,0.0,0.0,0.0,0.0,0.0,0.0,0.0,0.0,0.0,0.0,0.0,0.0,0.0,0.0,0.0,0.0,0.0,0.0,0.0,0.0,0.0,0.0,0.0,0.0,0.0,-5.5377,-5.8455,-6.0351,-6.1019,-6.3589,-6.4717,-6.4183,-6.3508,-6.2716,0.0,0.0,0.0,0.0,0.0,0.0,0.0,0.0,0.0,0.0,0.0,0.0,0.0,0.0,0.0,0.0,0.0,0.0,0.0,0.0,0.0,0.0,0.0,0.0,0.0,0.0,0.0,0.0,0.0,0.0,0.0,0.0,0.0,0.0,0.0,0.0,0.0,0.0,0.0,0.0,-5.7285,-5.7973,-5.7593,0.0,0.0,0.0,0.0,0.0,0.0,-5.9276,-5.9629,0.0,0.0,0.0,0.0,0.0,0.0,0.0,0.0,0.0,0.0,0.0,0.0,0.0,0.0,0.0,0.0,0.0,0.0,0.0,0.0,0.0,0.0,0.0,0.0,0.0,0.0,0.0,0.0,0.0,0.0,0.0,0.0,0.0,0.0,0.0,0.0,0.0,0.0,0.0,0.0,0.0,0.0,0.0,0.0,0.0,0.0,0.0,0.0,0.0,0.0,0.0,0.0,0.0,0.0,0.0,-5.6987,-5.9448,-6.125,-6.2416,-6.4074,-6.461,-6.3913,-6.3319,-6.2559,0.0,0.0,0.0,0.0,0.0,0.0,0.0,0.0,0.0,0.0,0.0,0.0,0.0,0.0,0.0,0.0,0.0,0.0,0.0,0.0,0.0,0.0,0.0,0.0,0.0,0.0,0.0,0.0,0.0,0.0,0.0,0.0,0.0,0.0,0.0,0.0,0.0,0.0,0.0,0.0,0.0,-5.9284,-5.8556,-5.8418,0.0,0.0,0.0,0.0,-5.9899,-6.0736,0.0,0.0,0.0,0.0,0.0,0.0,0.0,0.0,0.0,0.0,0.0,0.0,0.0,0.0,0.0,0.0,0.0,0.0,0.0,0.0,0.0,0.0,0.0,0.0,0.0,0.0,0.0,0.0,0.0,0.0,0.0,0.0,0.0,0.0,0.0,0.0,0.0,0.0,0.0,0.0,0.0,0.0,0.0,0.0,0.0,0.0,0.0,0.0,0.0,0.0,0.0,0.0,0.0,0.0,0.0,0.0,-5.6987,-5.8752,-6.0241,-6.1477,-6.3096,-6.3387,-6.2252,-6.2881,-6.2196,0.0,0.0,0.0,0.0,0.0,0.0,0.0,0.0,0.0,0.0,0.0,0.0,0.0,0.0,0.0,0.0,0.0,0.0,0.0,0.0,0.0,0.0,0.0,0.0,0.0,0.0,0.0,0.0,0.0,0.0,0.0,0.0,0.0,0.0,0.0,0.0,0.0,0.0,0.0,0.0,0.0,-6.008,-5.9284,-5.918,-5.9144,0.0,0.0,-6.01,-6.143,-6.3065,0.0,0.0,0.0,0.0,0.0,0.0,0.0,0.0,0.0,0.0,0.0,0.0,0.0,0.0,0.0,0.0,0.0,0.0,0.0,0.0,0.0,0.0,0.0,0.0,0.0,0.0,0.0,0.0,0.0,0.0,0.0,0.0,0.0,0.0,0.0,0.0,0.0,0.0,0.0,0.0,0.0,0.0,0.0,0.0,0.0,0.0,0.0,0.0,0.0,0.0,0.0,0.0,0.0,0.0,0.0,-5.4919,-5.6987,-5.897,-6.0388,-6.1298,-6.2719,-6.2905,-6.179,-6.1695,-6.0904,0.0,0.0,0.0,0.0,0.0,0.0,0.0,0.0,0.0,0.0,0.0,0.0,0.0,0.0,0.0,0.0,0.0,0.0,0.0,0.0,0.0,0.0,0.0,0.0,0.0,0.0,0.0,0.0,0.0,0.0,0.0,0.0,0.0,0.0,0.0,0.0,0.0,0.0,0.0,0.0,0.0,0.0,-6.0081,-6.0705,0.0,0.0,0.0,-6.1849,-6.2997,0.0,0.0,0.0,0.0,0.0,0.0,0.0,0.0,0.0,0.0,0.0,0.0,0.0,0.0,0.0,0.0,0.0,0.0,0.0,0.0,0.0,0.0,0.0,0.0,0.0,0.0,0.0,0.0,0.0,0.0,0.0,0.0,0.0,0.0,0.0,0.0,0.0,0.0,0.0,0.0,0.0,0.0,0.0,0.0,0.0,0.0,0.0,0.0,0.0,0.0,0.0,0.0,0.0,0.0,0.0,0.0,0.0,-5.7443,-5.8906,-6.0257,-6.1379,-6.23,-6.2386,-6.1452,-6.0785,0.0,0.0,0.0,0.0,0.0,0.0,0.0,0.0,0.0,0.0,0.0,0.0,0.0,0.0,0.0,0.0,0.0,0.0,0.0,0.0,0.0,0.0,0.0,0.0,0.0,0.0,0.0,-5.1397,0.0,0.0,0.0,0.0,0.0,0.0,0.0,0.0,0.0,0.0,0.0,0.0,0.0,0.0,-6.1534,-6.0981,-6.2088,-6.2852,0.0,0.0,-6.3305,-6.4177,-6.407,-6.3618,0.0,0.0,0.0,0.0,0.0,0.0,0.0,0.0,0.0,0.0,0.0,0.0,0.0,0.0,0.0,0.0,0.0,0.0,0.0,0.0,0.0,0.0,0.0,0.0,0.0,0.0,0.0,0.0,0.0,0.0,0.0,0.0,0.0,0.0,0.0,0.0,0.0,0.0,0.0,0.0,0.0,0.0,0.0,0.0,0.0,0.0,0.0,0.0,0.0,0.0,0.0,0.0,0.0,0.0,0.0,-5.8601,-5.8243,-5.9172,-6.1542,-6.1783,-6.1528,-6.0959,-6.0562,-5.9855,0.0,0.0,0.0,0.0,0.0,0.0,0.0,0.0,0.0,0.0,0.0,0.0,0.0,0.0,0.0,0.0,0.0,0.0,0.0,0.0,0.0,0.0,0.0,0.0,0.0,0.0,0.0,0.0,0.0,0.0,0.0,0.0,0.0,0.0,0.0,0.0,0.0,0.0,0.0,0.0,0.0,-6.2034,-6.1998,-6.2869,-6.3809,0.0,0.0,-6.41,-6.4828,-6.6225,-6.5986,-6.23,0.0,0.0,0.0,0.0,0.0,0.0,0.0,0.0,0.0,0.0,0.0,0.0,0.0,0.0,0.0,0.0,0.0,0.0,0.0,0.0,0.0,0.0,0.0,0.0,0.0,0.0,0.0,0.0,0.0,0.0,0.0,0.0,0.0,0.0,0.0,0.0,0.0,0.0,0.0,0.0,0.0,0.0,0.0,0.0,0.0,0.0,0.0,0.0,0.0,0.0,0.0,0.0,0.0,-5.5456,-5.7972,-5.8363,-5.9259,-6.0772,-6.1272,-6.1019,-6.0086,-5.9939,-5.9232,0.0,0.0,0.0,0.0,0.0,0.0,0.0,0.0,0.0,0.0,0.0,0.0,0.0,0.0,0.0,0.0,0.0,0.0,0.0,0.0,0.0,0.0,0.0,0.0,0.0,0.0,0.0,0.0,-5.2535,-5.2969,-5.3536,0.0,0.0,0.0,0.0,0.0,0.0,0.0,0.0,0.0,0.0,-6.2672,-6.2819,-6.381,0.0,0.0,-6.4885,-6.4855,-6.5245,-6.5117,-6.4329,-6.2432,-6.0843,0.0,0.0,0.0,0.0,0.0,0.0,0.0,0.0,0.0,0.0,0.0,0.0,0.0,0.0,0.0,0.0,0.0,0.0,0.0,0.0,0.0,0.0,0.0,0.0,0.0,0.0,0.0,0.0,0.0,0.0,0.0,0.0,0.0,0.0,0.0,0.0,0.0,0.0,0.0,0.0,0.0,0.0,0.0,0.0,0.0,0.0,0.0,0.0,0.0,0.0,0.0,0.0,-5.5903,-5.7705,-5.8514,-5.9444,-6.0503,-6.1076,-6.0965,-6.0084,-5.9728,-5.8992,0.0,0.0,0.0,0.0,0.0,0.0,0.0,0.0,0.0,0.0,0.0,0.0,0.0,0.0,0.0,0.0,0.0,0.0,0.0,0.0,0.0,0.0,0.0,0.0,0.0,0.0,0.0,0.0,-5.3311,-5.3915,-5.4175,0.0,0.0,0.0,0.0,0.0,0.0,0.0,0.0,0.0,0.0,-6.3064,-6.3384,-6.4307,-6.5099,-6.546,-6.525,-6.5044,-6.492,-6.4064,-6.3036,-6.2013,0.0,0.0,0.0,0.0,0.0,0.0,0.0,0.0,0.0,0.0,0.0,0.0,0.0,0.0,0.0,0.0,0.0,0.0,0.0,0.0,0.0,0.0,0.0,0.0,0.0,0.0,0.0,0.0,0.0,0.0,-5.1986,0.0,0.0,0.0,0.0,0.0,0.0,0.0,0.0,0.0,0.0,0.0,0.0,0.0,0.0,0.0,0.0,0.0,0.0,0.0,0.0,0.0,0.0,-5.6086,-5.8257,-5.8698,-5.9595,-6.102,-6.1293,-6.135,-6.125,-6.0151,-5.9382,-5.9085,0.0,0.0,0.0,0.0,0.0,0.0,0.0,0.0,0.0,0.0,0.0,0.0,0.0,0.0,0.0,0.0,0.0,0.0,0.0,0.0,0.0,0.0,0.0,0.0,0.0,0.0,-5.3518,-5.3817,-5.408,0.0,0.0,0.0,0.0,0.0,0.0,0.0,0.0,0.0,0.0,-6.1741,-6.2965,-6.3684,-6.4166,-6.4671,-6.5396,-6.5034,-6.4462,-6.3772,-6.36,-6.2841,0.0,0.0,0.0,0.0,0.0,0.0,0.0,0.0,0.0,0.0,0.0,0.0,0.0,0.0,0.0,0.0,0.0,0.0,0.0,0.0,0.0,0.0,0.0,0.0,0.0,0.0,0.0,-5.3157,-5.3471,0.0,0.0,0.0,0.0,0.0,0.0,0.0,0.0,0.0,0.0,0.0,-5.4885,-5.484,0.0,0.0,0.0,0.0,0.0,0.0,0.0,0.0,0.0,0.0,0.0,0.0,-5.6625,-5.8429,-5.8738,-5.9628,-6.1053,-6.1169,-6.0978,-6.048,-5.9558,-5.8594,-5.7592,0.0,0.0,0.0,0.0,0.0,0.0,0.0,0.0,0.0,0.0,0.0,0.0,0.0,0.0,0.0,0.0,0.0,0.0,0.0,0.0,0.0,0.0,0.0,0.0,0.0,-5.4799,0.0,0.0,0.0,0.0,0.0,0.0,0.0,0.0,0.0,0.0,0.0,-5.9349,-6.0993,-6.2081,-6.3076,-6.4063,-6.4205,-6.4312,0.0,0.0,0.0,0.0,0.0,0.0,0.0,0.0,0.0,0.0,0.0,0.0,0.0,0.0,-6.0639,-5.7771,-5.7881,-5.8441,-5.8662,0.0,0.0,0.0,0.0,0.0,0.0,0.0,0.0,0.0,0.0,0.0,0.0,0.0,0.0,-5.422,0.0,-5.3853,0.0,0.0,0.0,0.0,0.0,0.0,0.0,0.0,-5.5126,-5.5211,-5.5299,-5.5299,-5.5208,0.0,-5.5391,-5.5158,0.0,0.0,0.0,0.0,0.0,0.0,0.0,0.0,-5.7452,-5.8543,-5.9275,-6.0125,-6.1053,-6.1119,-6.0887,-6.039,-5.9429,-5.8204,-5.6746,-5.668,-5.6481,0.0,0.0,0.0,0.0,0.0,0.0,0.0,0.0,0.0,0.0,0.0,0.0,0.0,0.0,0.0,0.0,0.0,0.0,0.0,0.0,0.0,0.0,0.0,-5.5612,0.0,0.0,0.0,0.0,0.0,0.0,0.0,0.0,0.0,-5.8468,-5.9278,-6.0333,-6.1435,-6.2127,-6.2897,-6.3882,0.0,0.0,0.0,0.0,0.0,0.0,0.0,-6.149,-6.1322,-6.0909,-6.0772,-6.1396,-6.2265,-6.2684,-6.218,0.0,0.0,-6.0207,-6.0347,-6.0944,-6.1069,-6.2344,-6.3418,-6.3418,-6.4148,-6.4842,0.0,0.0,0.0,0.0,0.0,0.0,0.0,0.0,-5.5391,-5.5048,0.0,-5.5048,0.0,0.0,0.0,0.0,0.0,-5.5158,0.0,0.0,-5.5618,-5.5513,-5.5194,-5.5163,-5.5163,-5.5209,-5.5667,-5.565,-5.5241,-5.5221,0.0,0.0,0.0,0.0,0.0,0.0,-5.8372,-5.8617,-6.0134,-6.1086,-6.1119,-6.1119,-6.1086,-6.0953,-5.9628,-5.8204,-5.6779,-5.6785,-5.6818,-5.6752,-5.6752,0.0,0.0,0.0,0.0,0.0,0.0,0.0,0.0,0.0,0.0,0.0,0.0,0.0,0.0,0.0,0.0,0.0,0.0,0.0,0.0,-5.5645,0.0,0.0,0.0,0.0,0.0,0.0,0.0,0.0,0.0,0.0,-5.9201,-6.0574,-6.1643,-6.1643,0.0,0.0,0.0,0.0,-6.2841,-6.3496,-6.3634,-6.3393,-6.2634,-6.253,-6.2255,-6.1565,0.0,0.0,-6.1918,-6.2579,-6.3345,-6.4013,-6.4276,-6.4156,-6.3405,-6.3398,-6.3579,-6.3645,-6.4411,-6.5113,-6.5184,-6.5911,-6.6614,-5.8001,0.0,0.0,0.0,0.0,-5.5456,-5.5721,-5.586,-5.5689,-5.5472,-5.5333,-5.5194,0.0,0.0,0.0,0.0,0.0,0.0,-5.559,-5.5907,-5.5953,-5.6061,-5.632,-5.6124,-5.6357,-5.7027,-5.7014,-5.7236,-5.7581,-5.7066,-5.623,-5.5113,0.0,0.0,0.0,0.0,-5.7858,-5.8124,-5.9521,-6.0589,-6.1119,-6.1119,-6.0589,-5.9562,-5.9131,-5.8204,-5.6746,-5.7864,-5.8241,-5.7742,-5.7709,0.0,0.0,0.0,0.0,0.0,0.0,0.0,0.0,0.0,0.0,0.0,0.0,0.0,0.0,0.0,0.0,0.0,0.0,0.0,-5.7907,-5.7209,-5.6909,0.0,0.0,0.0,0.0,0.0,0.0,0.0,0.0,0.0,-6.1562,-6.2042,-6.2502,0.0,0.0,-6.3099,-6.3454,-6.3839,-6.3945,-6.3634,-6.4048,0.0,-6.3393,-6.3289,-6.3393,-6.3669,-6.3738,-6.3677,-6.3518,-6.4111,-6.4743,-6.503,-6.5714,-6.6014,-6.5602,-6.4681,-6.4122,-6.4158,-6.5249,-6.6277,-6.6378,-6.7421,-6.8428,-5.998,-5.6458,-5.6852,-5.6777,-5.6497,-5.6696,-5.694,-5.7188,-5.6994,-5.6607,-5.6163,-5.6135,-5.5735,-5.4962,-5.5193,0.0,0.0,0.0,-5.5891,-5.6384,-5.6384,-5.6477,-5.6634,-5.6466,-5.6839,-5.7677,-5.7764,-5.8061,-5.8583,-5.8333,-5.7595,-5.6366,0.0,0.0,-5.6008,-5.7284,-5.817,-5.8701,-5.9827,-6.0655,-6.1086,-6.0821,-6.0225,-5.9363,-5.8767,-5.8038,-5.7177,-5.7791,-5.8002,-5.757,-5.7537,-5.7709,0.0,0.0,0.0,0.0,0.0,0.0,0.0,0.0,0.0,0.0,0.0,-5.509,-5.5355,0.0,0.0,0.0,-5.7245,-5.8487,-5.8964,-5.8601,0.0,0.0,0.0,0.0,0.0,0.0,0.0,-5.9877,-6.1151,-6.2323,-6.3154,-6.3601,-6.3927,-6.4191,-6.403,-6.4002,-6.4462,0.0,-6.4324,-6.4462,-6.46,-6.4531,-6.4117,-6.4048,-6.4083,-6.422,-6.4403,-6.431,-6.3902,-6.4533,-6.5267,-6.5723,-6.6471,-6.7087,-6.7089,-6.606,-6.5229,-6.5265,-6.6582,-6.7692,-6.7728,-6.8995,-7.0118,-6.15,-5.8802,-5.8559,-5.8337,-5.8164,-5.7999,-5.8319,-5.8762,-5.8824,-5.8146,-5.7056,-5.7641,-5.6792,-5.4976,-5.5209,0.0,-5.6138,-5.6169,-5.6384,-5.681,-5.6796,-5.6696,-5.6528,-5.6496,-5.6895,-5.7714,-5.8105,-5.8453,-5.8809,-5.9105,-5.9019,-5.8396,-5.6953,-5.6671,-5.7489,-5.832,-5.9094,-5.9893,-6.0688,-6.1119,-6.1086,-6.039,-5.9993,-5.9993,-5.8708,-5.7945,-5.7773,-5.7282,-5.6917,-5.6818,-5.6851,-5.7332,-5.8119,0.0,0.0,0.0,0.0,0.0,0.0,0.0,0.0,0.0,0.0,0.0,0.0,0.0,0.0,0.0,-5.8629,0.0,-5.9167,-5.9742,0.0,0.0,0.0,-6.008,-6.008,-6.0216,-6.0554,-6.1337,0.0,0.0,-6.4161,-6.5147,-6.5744,-6.5778,-6.5172,-6.5048,-6.5773,-6.4703,-6.4255,-6.56,-6.5293,-6.4807,-6.4807,-6.481,-6.464,-6.4055,-6.4069,-6.4147,-6.3658,-6.4178,-6.5138,-6.5846,-6.6679,-6.7302,-6.7813,-6.7155,-6.6822,-6.6714,-6.7945,-6.9026,-6.8995,-7.0046,-7.0987,-6.2683,-6.1319,-6.1268,-6.0217,-5.8677,-5.9151,-5.9101,-5.8854,-5.9347,-5.907,-5.8381,-5.8485,-5.7993,-5.7038,-5.7135,-5.695,-5.6611,-5.6611,-5.6704,-5.6779,-5.6588,-5.6825,-5.7433,-5.7121,-5.7848,-5.9295,-5.9347,-5.9718,-6.0421,-5.949,-5.9201,-5.9465,-5.8111,-5.741,-5.7562,-5.8937,-5.9521,-5.9164,-6.0456,-6.1119,-6.1086,-6.039,-5.9993,-5.9993,-5.979,-5.9133,-5.7873,-5.9019,-5.9103,-5.7881,-5.843,-5.8914,-5.912,-5.8413,0.0,0.0,0.0,0.0,0.0,0.0,0.0,0.0,0.0,-5.6744,-5.6911,0.0,-5.7439,0.0,-5.841,-5.9543,-6.0622,-6.0499,0.0,0.0,-6.008,-6.008,-6.0114,-6.1129,-6.1985,-6.231,-6.3694,-6.4981,-6.597,-6.6406,-6.6867,-6.7384,-6.62,-6.5443,-6.5842,-6.5451,-6.5237,-6.5773,-6.5818,-6.5717,-6.5607,-6.5679,-6.5555,-6.5191,-6.5195,-6.4988,-6.4228,-6.4119,-6.4521,-6.5309,-6.5574,-6.6025,-6.6908,-6.6895,-6.6858,-6.6858,-6.7619,-6.8271,-6.8307,-6.9068,-6.9787,-6.2592,-6.1587,-6.1587,-6.0856,-5.9767,-6.031,-6.033,-5.9919,-6.029,-5.9972,-5.9224,-5.8916,-5.8239,-5.7426,-5.7672,-5.7457,-5.684,-5.681,-5.681,-5.6779,-5.6544,-5.6885,-5.766,-5.7341,-5.813,-5.9811,-5.9778,-6.0183,-6.102,-6.0291,-6.0092,-6.0456,-5.9694,-5.9223,-5.9135,-5.972,-5.996,-5.9893,-6.0738,-6.1252,-6.1177,-6.0222,-5.9864,-6.0211,-5.9352,-5.8586,-5.808,-5.8747,-5.8691,-5.7807,-5.8256,-5.8701,-5.9118,-5.8332,-5.806,0.0,0.0,0.0,0.0,0.0,0.0,0.0,0.0,0.0,0.0,0.0,-5.8601,-5.8676,-5.9614,-6.0578,-6.135,-6.1427,-6.1359,-6.1168,-6.1206,-6.1384,-6.1723,-6.2581,-6.348,-6.4278,-6.5221,-6.6165,-6.7078,-6.7379,-6.7596,-6.793,-6.7044,-6.649,-6.673,-6.6406,-6.6165,-6.6436,-6.6274,-6.6006,-6.5803,-6.5919,-6.5822,-6.5338,-6.5373,-6.5154,-6.3931,-6.3835,-6.4112,-6.4609,-6.5238,-6.5881,-6.6566,-6.7222,-6.7486,-6.7264,-6.7511,-6.7855,-6.7987,-6.8633,-6.9207,-6.1867,-6.0876,-6.0876,-6.0784,-6.0825,-6.1255,-6.1368,-6.1186,-6.1186,-6.0661,-5.987,-5.9193,-5.8208,-5.7118,-5.7703,-5.7567,-5.6858,-5.6954,-5.7002,-5.694,-5.6778,-5.7095,-5.7835,-5.7613,-5.8362,-5.9837,-5.9869,-6.0324,-6.1086,-6.102,-6.102,-6.1086,-6.102,-6.102,-6.1086,-6.0456,-6.0456,-6.1086,-6.1293,-6.1383,-6.1383,-6.0091,-5.9771,-6.047,-5.8513,-5.7673,-5.8361,-5.783,-5.7427,-5.7327,-5.7528,-5.7972,-5.8799,-5.8178,-5.8211,0.0,-5.8815,0.0,0.0,0.0,0.0,0.0,0.0,0.0,0.0,-5.9401,-6.0072,-6.0513,-6.1351,-6.1797,-6.1783,-6.2357,-6.2722,-6.2634,-6.2751,-6.3174,-6.3888,-6.4215,-6.4913,-6.6285,-6.665,-6.7078,-6.7742,-6.7999,-6.8039,-6.7845,-6.7473,-6.7301,-6.7724,-6.7128,-6.6676,-6.7142,-6.6526,-6.5808,-6.5581,-6.5619,-6.5514,-6.4985,-6.5218,-6.4948,-6.3566,-6.3826,-6.4285,-6.4488,-6.5695,-6.6692,-6.6801,-6.776,-6.8206,-6.7626,-6.7503,-6.7589,-6.7891,-6.8458,-6.8995,-6.1175,-6.1103,-6.1103,-6.0947,-6.0671,-6.0771,-6.0831,-6.0897,-6.0845,-6.0784,-6.0547,-5.9901,-5.9162,-5.8473,-5.8795,-5.8244,-5.7115,-5.7653,-5.7933,-5.7948,-5.8115,-5.8657,-5.9447,-5.9301,-5.9819,-6.0804,-6.0879,-6.0945,-6.1086,-6.049,-6.0523,-6.1053,-6.0523,-6.0523,-6.1086,0.0,0.0,0.0,-6.1293,-6.1383,-6.135,-6.0679,-6.0397,-6.0571,-5.975,0.0,-5.8428,-5.8413,-5.8115,-5.7394,-5.8618,0.0,0.0,0.0,0.0,0.0,0.0,0.0,0.0,0.0,0.0,0.0,-6.064,-6.0203,-5.9602,-6.0047,-6.0646,-6.1299,-6.1692,-6.2112,-6.2689,-6.2859,-6.3162,-6.3742,-6.3777,-6.4157,-6.4908,-6.5562,-6.6189,-6.6553,-6.7176,-6.7708,-6.797,-6.8044,-6.8083,-6.7935,-6.7204,-6.6822,-6.7148,-6.6701,-6.6426,-6.6377,-6.5947,-6.5404,-6.5161,-6.5091,-6.5228,-6.5249,-6.5412,-6.5319,-6.4885,-6.5284,-6.5923,-6.6168,-6.7053,-6.7861,-6.828,-6.8177,-6.7863,-6.7714,-6.7203,-6.6945,-6.7625,-6.8036,-6.8235,-6.0897,0.0,-6.1,-6.0918,0.0,-6.0679,-6.0712,-6.0794,-6.0609,-6.027,-5.9809,-5.9778,-5.9039,-5.7857,-5.8295,-5.7912,-5.6971,-5.7215,-5.7572,-5.8009,-5.7941,-5.8691,-5.9968,-5.9783,-6.0183,-6.1086,-6.1119,-6.1119,-6.1086,-6.0721,-6.0755,-6.1119,-6.0721,-6.0721,-6.1086,-6.1119,-6.1119,-6.1119,-6.1417,-6.1547,-6.1513,-6.0893,-6.0555,-6.0381,-6.0011,0.0,0.0,0.0,0.0,0.0,0.0,0.0,0.0,0.0,0.0,-6.1616,-6.0974,-6.1172,-6.2474,-6.1559,-6.1335,-6.2156,-6.1886,-6.1553,-6.1264,-6.1533,-6.1896,-6.2419,-6.2836,-6.3117,-6.3152,-6.346,-6.3798,-6.4063,-6.4209,-6.4556,-6.5382,-6.6215,-6.6706,-6.6927,-6.7477,-6.7965,-6.8083,-6.8083,-6.7906,-6.7517,-6.702,-6.6465,-6.5972,-6.5916,-6.5989,-6.6366,-6.607,-6.59,-6.6177,-6.5925,-6.5957,-6.6571,-6.6624,-6.6459,-6.6315,-6.6427,-6.6716,-6.7234,-6.7644,-6.7889,-6.8115,-6.8094,-6.7923,-6.7599,-6.758,-6.76,-6.7775,-6.7861,-6.8126,-6.0794,-6.0794,-6.0794,-6.0732,-6.0609,-6.0609,-6.064,-6.0578,0.0,0.0,0.0,-5.9408,-5.8689,-5.7056,-5.7549,-5.7505,-5.6875,-5.6903,-5.7321,-5.8024,-5.7976,-5.869,-6.0184,-5.9999,-6.0357,-6.1086,-6.1119,-6.1119,-6.1119,-6.1119,-6.1119,-6.1119,-6.1119,-6.1119,-6.1119,-6.1161,-6.1127,-6.1119,-6.1458,-6.1669,-6.1709,-6.1013,-6.0539,-6.0317,-6.003,-5.9659,-5.9235,-5.9776,-6.008,-6.0114,-6.025,-6.0317,-6.0317,-6.0452,-6.0926,-6.1806,-6.1637,-6.2212,-6.3734,-6.2956,-6.2651,-6.326,-6.2792,-6.2498,-6.2654,-6.3022,-6.3281,-6.347,-6.4057,-6.4198,-6.3614,-6.4061,-6.4431,-6.4419,-6.4568,-6.4988,-6.5955,-6.6553,-6.7049,-6.7221,-6.7738,-6.8014,-6.7876,-6.7876,-6.7596,-6.6789,-6.6484,-6.6259,-6.5193,-6.5428,-6.6094,-6.6762,-6.6705,-6.6778,-6.7232,-6.7121,-6.7181,-6.7739,-6.7748,-6.768,-6.7667,-6.7522,-6.7632,-6.803,-6.8033,-6.8048,-6.7811,-6.8004,-6.8052,-6.7406,-6.799,-6.8497,-6.7986,-6.8036,-6.841,-6.0794,-6.0794,-6.0794,-6.0455,-5.9932,-5.9932,-5.9932,-5.9932,-5.989,-5.9798,-5.9624,-5.9131,-5.8504,-5.7703,-5.7961,-5.7687,-5.7163,-5.8314,-5.8934,-5.912,-6.0096,-6.0679,-6.0919,-6.0936,-6.0978,-6.1119,-6.1119,-6.1119,-6.1119,-6.1119,-6.1119,-6.1119,-6.1119,-6.1119,-6.1119,-6.1293,-6.1293,-6.1086,-6.1301,-6.1506,-6.1709,-6.1132,-6.0964,-6.1129,-6.0448,-6.0042,-5.9979,-6.008,-6.008,-6.0114,-6.0757,-6.1129,-6.1163,-6.1704,-6.2685,-6.3937,-6.2956,-6.3159,-6.5155,-6.3531,-6.2448,-6.2516,-6.2605,-6.2654,-6.2727,-6.3465,-6.4034,-6.4225,-6.4553,-6.4631,-6.4528,-6.4666,-6.4973,-6.5524,-6.5665,-6.6217,-6.7423,-6.7217,-6.7221,-6.7738,-6.8014,-6.7807,-6.7364,-6.7191,-6.6954,-6.627,-6.5714,-6.5129,-6.5426,-6.5845,-6.6684,-6.7501,-6.7716,-6.7583,-6.7588,-6.7479,-6.7685,-6.7856,-6.8222,-6.8407,-6.8606,-6.9048,-6.9245,-6.8884,-6.9348,-6.9426,-6.8701,-6.812,-6.7796,-6.7544,-6.778,-6.7908,-6.7855,-6.844,-6.8826,-6.0794,-6.0794,-6.0794,-6.064,-6.0332,-6.0332,-6.0332,-6.0301,-5.9932,-5.9562,-5.9224,-5.8916,-5.8208,-5.7303,-5.7369,-5.7442,-5.7527,-5.8106,-5.8811,-5.9663,-6.0112,-6.0472,-6.075,-6.0708,-6.0708,-6.0708,-6.0708,-6.0835,-6.1077,-6.1119,-6.1119,-6.1119,-6.1119,-6.092,-6.0556,-6.097,-6.097,-6.0523,-6.106,-6.1506,-6.1709,-6.1455,-6.1318,-6.1332,-6.1298,-6.1129,-6.0757,-6.1129,-6.1332,-6.1366,-6.167,-6.1907,-6.1907,-6.2212,-6.2854,-6.3903,-6.299,-6.3024,-6.441,-6.3193,-6.2415,-6.2381,-6.2459,-6.2576,-6.2727,-6.3645,-6.4457,-6.4984,-6.5554,-6.5773,-6.5393,-6.5704,-6.6083,-6.6428,-6.6152,-6.6324,-6.7221,-6.7221,-6.7118,-6.7428,-6.7614,-6.7549,-6.7204,-6.6865,-6.6425,-6.5771,-6.5322,-6.5433,-6.607,-6.6802,-6.7431,-6.7964,-6.8181,-6.8324,-6.8434,-6.8434,-6.8641,-6.9203,-6.9218,-6.9408,-6.9789,-7.0269,-7.0216,-7.0189,-7.0288,-6.9823,-6.8944,-6.8182,-6.7631,-6.7162,-6.7547,-6.771,-6.7583,-6.7715,-6.7962,-6.0701,-6.0578,-6.0732,-6.0794,-6.0794,-6.0794,-6.0732,-6.0517,-6.0024,-5.9316,-5.8608,-5.8547,-5.7869,-5.6871,-5.6954,-5.7275,-5.7792,-5.8006,-5.8783,-5.9903,-5.999,-6.0223,-6.0515,-6.0581,-6.0548,-6.0581,-6.0581,-6.075,-6.1044,-6.1119,-6.1119,-6.1119,-6.1119,-6.0821,-6.0291,-6.0821,-6.0755,-6.0092,-6.0894,-6.1506,-6.1709,-6.175,-6.1682,-6.1598,-6.2076,-6.211,-6.1637,-6.2076,-6.2415,-6.2415,-6.2415,-6.2415,-6.2415,-6.2415,-6.2719,-6.3362,-6.2821,-6.2651,-6.3159,-6.2719,-6.2415,-6.2415,-6.2415,-6.2595,-6.3124,-6.3986,-6.4766,-6.5499,-6.6209,-6.6497,-6.6221,-6.6393,-6.6738,-6.6704,-6.6255,-6.6221,-6.6842,-6.7019,-6.7161,-6.7269,-6.735,-6.7326,-6.7014,-6.6502,-6.599,-6.5575,-6.565,-6.6249,-6.7092,-6.7791,-6.8281,-6.8461,-6.8607,-6.8819,-6.9419,-6.9318,-6.9458,-7.034,-7.0181,-7.0306,-7.0721,-7.0762,-7.064,-7.0798,-7.0329,-6.957,-6.878,-6.8017,-6.7403,-6.7078,-6.7385,-6.7474,-6.7121,-6.6765,-6.691,-6.0455,-6.0024,-6.0547,-6.0794,-6.0794,-6.0794,-6.0455,-5.9932,-5.9809,-5.9039,-5.8011,-5.7919,-5.7518,-5.6968,-5.7417,-5.7715,-5.7948,-5.9157,-5.9849,-6.0087,-6.0685,-6.1011,-6.0994,-6.1002,-6.1002,-6.1002,-6.0994,-6.0961,-6.1119,-6.1119,-6.1119,-6.1119,-6.1119,-6.1086,-6.102,-6.1086,-6.0755,-6.0026,-6.0935,-6.1506,-6.1709,-6.1877,-6.2076,-6.2313,-6.2347,-6.2347,-6.2245,-6.2347,-6.2415,-6.2415,-6.2415,-6.2415,-6.2415,-6.2415,-6.2719,-6.3396,-6.2787,-6.2448,-6.2516,-6.2415,-6.2415,-6.2415,-6.2415,-6.2922,-6.418,-6.4619,-6.5039,-6.5524,-6.583,-6.629,-6.6773,-6.6359,-6.6083,-6.6083,-6.5983,-6.6186,-6.688,-6.7173,-6.753,-6.8185,-6.7749,-6.7235,-6.6535,-6.5917,-6.5575,-6.5721,-6.6389,-6.7057,-6.7795,-6.8602,-6.9093,-6.9163,-6.9124,-6.9124,-6.9377,-6.9525,-6.9778,-7.0166,-7.0475,-7.0775,-7.1107,-7.1264,-7.1214,-7.0654,-6.9885,-6.9157,-6.8258,-6.7355,-6.7227,-6.7306,-6.7257,-6.6954,-6.6996,-6.6531,-6.6401,-6.0393,-5.987,-6.0517,-6.0794,-6.0763,-6.0363,-6.0055,-5.9747,-5.8947,-5.827,-5.7826,-5.7395,-5.7056,-5.6858,-5.7511,-5.8041,-5.8501,-5.9531,-6.0216,-6.0633,-6.0994,-6.0961,-6.0708,-6.0708,-6.0666,-6.0708,-6.0708,-6.0835,-6.1077,-6.1119,-6.1119,-6.1119,-6.1119,-6.1119,-6.1086,-6.121,-6.1127,-6.0861,-6.1461,-6.1797,-6.1911,-6.1957,-6.215,-6.2381,-6.2415,-6.2415,-6.2415,-6.2415,-6.2415,-6.2415,-6.2415,-6.2415,-6.2415,-6.2415,-6.2516,-6.2821,-6.2584,-6.2415,-6.2415,-6.2415,-6.2415,-6.2415,-6.2415,-6.2854,-6.3835,-6.4137,-6.4546,-6.5299,-6.5945,-6.6415,-6.6359,-6.6048,-6.5876,-6.5914,-6.599,-6.6377,-6.7069,-6.7364,-6.7756,-6.8381,-6.7585,-6.686,-6.6481,-6.5999,-6.5898,-6.6354,-6.7163,-6.7831,-6.8217,-6.8884,-6.934,-6.9376,-6.9339,-6.9302,-6.9412,-6.9741,-7.0026,-7.0341,-7.075,-7.1146,-7.1243,-7.1436,-7.1323,-7.0838,-7.0273,-6.9575,-6.8826,-6.7994,-6.7583,-6.7438,-6.6714,-6.6265,-6.6931,-6.6422,-6.6276,-6.0393,-5.9901,-6.0116,-6.024,-6.0209,-5.9716,-5.9408,-5.9131,-5.8227,-5.7734,-5.7487,-5.7025,-5.6858,-5.6971,-5.7606,-5.8318,-5.903,-5.9783,-6.0463,-6.1077,-6.1119,-6.0952,-6.0623,-6.0623,-6.0581,-6.0581,-6.0623,-6.0793,-6.1077,-6.1119,-6.1119,-6.1119,-6.1119,-6.1119,-6.1119,-6.1293,-6.1283,-6.1158,-6.1696,-6.1929,-6.1761,-6.1975,-6.2189,-6.2381,-6.2415,-6.2415,-6.2415,-6.2415,-6.2381,-6.2302,-6.2341,-6.2381,-6.2268,-6.2381,-6.2415,-6.2415,-6.2415,-6.2415,-6.2415,-6.2415,-6.2415,-6.2415,-6.2415,-6.2725,-6.3408,-6.3736,-6.4137,-6.485,-6.5661,-6.5886,-6.5941,-6.578,-6.5711,-6.5956,-6.6142,-6.6566,-6.7263,-6.7693,-6.8224,-6.8496,-6.7489,-6.6483,-6.6385,-6.6284,-6.6425,-6.7233,-6.7831,-6.8357,-6.8533,-6.9024,-6.9376,-6.9376,-6.9376,-6.9376,-6.9449,-6.9741,-7.0167,-7.0513,-7.0883,-7.1211,-7.1308,-7.1467,-7.1277,-7.0785,-7.0589,-7.018,-6.9304,-6.8615,-6.7781,-6.6809,-6.6084,-6.5778,-6.6122,-6.5831,-6.6253,-6.0393,-5.9747,-5.9131,-5.8997,-5.8885,-5.8885,-5.8485,-5.8042,-5.7826,-5.7457,-5.6933,-5.6889,-5.6923,-5.7132,-5.7887,-5.8578,-5.9331,-6.0033,-6.0623,-6.1077,-6.1119,-6.1119,-6.1077,-6.1077,-6.1077,-6.1035,-6.0961,-6.1077,-6.1119,-6.1119,-6.1119,-6.1119,-6.1119,-6.1119,-6.1161,-6.1334,-6.105,-6.0698,-6.1535,-6.1767,-6.1296,-6.1959,-6.2341,-6.2381,-6.2415,-6.2415,-6.2415,-6.2415,-6.2302,-6.2037,-6.2302,-6.2268,-6.2076,-6.2263,-6.2415,-6.2415,-6.2415,-6.2415,-6.2415,-6.2415,-6.2415,-6.2381,-6.2454,-6.2764,-6.3634,-6.3815,-6.4045,-6.4427,-6.4603,-6.4958,-6.5635,-6.5406,-6.5414,-6.6006,-6.6366,-6.6823,-6.7487,-6.8369,-6.8825,-6.8607,-6.7636,-6.6734,-6.5931,-6.6316,-6.716,-6.7864,-6.8217,-6.8498,-6.906,-6.9305,-6.9376,-6.9376,-6.9376,-6.9412,-6.9449,-6.9813,-7.0132,-7.0478,-7.0883,-7.1179,-7.1336,-7.1422,-7.1096,-7.0765,-7.0495,-7.012,-6.9599,-6.8866,-6.7986,-6.7011,-6.6046,-6.5702,-6.6089,-6.5386,-6.5813,-5.9747,-5.9131,-5.8885,-5.8793,-5.8793,-5.8793,-5.8393,-5.7746,-5.7364,-5.7122,-5.705,-5.7275,-5.7417,-5.7401,-5.8335,-5.8927,-5.9375,-6.0076,-6.0666,-6.1077,-6.1119,-6.1119,-6.1119,-6.1119,-6.1119,-6.1119,-6.1119,-6.1119,-6.1119,-6.1119,-6.1119,-6.1119,-6.1119,-6.1119,-6.1127,-6.1458,-6.1454,-6.1294,-6.1929,-6.2167,-6.1891,-6.2054,-6.2229,-6.2381,-6.2415,-6.2415,-6.2415,-6.2415,-6.2302,-6.2037,-6.2268,-6.2302,-6.2037,-6.2229,-6.2415,-6.2415,-6.2415,-6.2415,-6.2415,-6.2415,-6.2415,-6.2415,-6.2498,-6.2955,-6.3645,-6.3932,-6.4127,-6.4324,-6.4401,-6.4687,-6.5092,-6.5103,-6.5142,-6.5671,-6.669,-6.7427,-6.7736,-6.8476,-6.9002,-6.8642,-6.795,-6.74,-6.7191,-6.7439,-6.8039,-6.8779,-6.8954,-6.9095,-6.927,-6.9376,-6.9412,-6.9376,-6.9376,-6.9449,-6.9524,-6.9991,-7.0375,-7.0682,-7.0946,-7.124,-7.1463,-7.1494,-7.1241,-7.0982,-7.0635,-7.0145,-6.9666,-6.8604,-6.776,-6.7141,-6.6175,-6.5943,-6.64,-6.5786,-6.616,-5.907,-5.8516,-5.8454,-5.8331,-5.8146,-5.8146,-5.7919,-5.7457,-5.7043,-5.7067,-5.737,-5.7793,-5.7887,-5.7948,-5.8433,-5.8959,-5.9431,-6.0033,-6.0506,-6.0961,-6.1044,-6.1119,-6.1119,-6.1119,-6.1119,-6.1119,-6.1119,-6.1119,-6.1119,-6.1119,-6.1119,-6.1119,-6.1119,-6.1119,-6.1161,-6.1458,-6.1628,-6.1783,-6.234,-6.2572,-6.2443,-6.2655,-6.2582,-6.2364,-6.2459,-6.2459,-6.2263,-6.2425,-6.2306,-6.2058,-6.2386,-6.2499,-6.2223,-6.2302,-6.2415,-6.2415,-6.2415,-6.2415,-6.2448,-6.2584,-6.2792,-6.2905,-6.3226,-6.365,-6.3972,-6.4093,-6.4282,-6.4439,-6.4477,-6.4663,-6.5273,-6.5664,-6.5914,-6.6203,-6.726,-6.8066,-6.8089,-6.8763,-6.8868,-6.8508,-6.8299,-6.8094,-6.7996,-6.8318,-6.8777,-6.934,-6.9376,-6.9376,-6.9376,-6.9449,-6.9449,-6.9412,-6.9449,-6.956,-6.9705,-7.0062,-7.041,-7.068,-7.1048,-7.134,-7.1494,-7.1494,-7.135,-7.1091,-7.0749,-7.0223,-6.9441,-6.835,-6.7622,-6.7141,-6.6462,-6.6007,-6.6162,-6.6206,-6.6653,-5.8412,-5.7857,-5.7826,-5.7518,-5.7056,-5.7087,-5.6902,-5.6871,-5.7002,-5.7275,-5.7653,-5.8026,-5.8211,-5.8391,-5.8217,-5.8631,-5.9455,-5.9914,-6.0345,-6.0793,-6.1002,-6.1119,-6.1119,-6.1119,-6.1119,-6.1119,-6.1119,-6.1119,-6.1119,-6.1119,-6.1119,-6.1119,-6.1185,-6.1251,-6.1152,-6.1501,-6.164,-6.1944,-6.269,-6.2892,-6.2646,-6.3424,-6.337,-6.2401,-6.2602,-6.2628,-6.2125,-6.2501,-6.242,-6.1984,-6.2515,-6.2818,-6.2443,-6.2381,-6.2415,-6.2415,-6.2415,-6.2415,-6.2482,-6.3024,-6.3515,-6.3668,-6.4359,-6.4488,-6.435,-6.4362,-6.4477,-6.4628,-6.4769,-6.5124,-6.6038,-6.6815,-6.7422,-6.7854,-6.8071,-6.8528,-6.8908,-6.9192,-6.9021,-6.8309,-6.8369,-6.847,-6.8309,-6.8704,-6.9305,-6.9446,-6.9446,-6.9376,-6.9412,-6.9487,-6.9524,-6.9451,-6.9487,-6.9633,-6.9849,-7.0097,-7.034,-7.0647,-7.1048,-7.134,-7.1499,-7.1494,-7.1132,-7.0874,-7.0386,-6.989,-6.9231,-6.8239,-6.7737,-6.7219,-6.6592,-6.6198,-6.6435,-6.6636,-6.6863,-5.7685,-5.721,-5.7641,-5.7426,-5.6902,-5.7303,-5.7272,-5.684,-5.6906,-5.7067,-5.737,-5.7715,-5.7762,-5.7855,-5.8446,-5.8883,-5.903,-5.9827,-6.0506,-6.0919,-6.1044,-6.1119,-6.1119,-6.1119,-6.1119,-6.1119,-6.1119,-6.1119,-6.1119,-6.1119,-6.1119,-6.1185,-6.1616,-6.1815,-6.1923,-6.2565,-6.2799,-6.2539,-6.2885,-6.3087,-6.3113,-6.3235,-6.3348,-6.3564,-6.3317,-6.3115,-6.3083,-6.2438,-6.213,-6.2207,-6.23,-6.2386,-6.2409,-6.2415,-6.2415,-6.2415,-6.2415,-6.2415,-6.2522,-6.3216,-6.377,-6.3888,-6.4327,-6.4487,-6.4431,-6.4584,-6.4697,-6.4807,-6.5186,-6.5883,-6.6803,-6.7304,-6.7701,-6.7887,-6.8563,-6.8877,-6.886,-6.8781,-6.8673,-6.8575,-6.879,-6.9113,-6.9437,-6.9727,-6.9551,-6.9902,-6.9691,-6.9376,-6.9412,-6.9524,-6.956,-6.9449,-6.956,-6.967,-6.9849,-7.0026,-7.0271,-7.0647,-7.1081,-7.134,-7.1467,-7.1521,-7.1158,-7.0754,-7.0229,-6.9695,-6.8997,-6.8353,-6.785,-6.7367,-6.682,-6.6802,-6.6985,-6.7139,-6.7257,-5.721,-5.6871,-5.7272,-5.721,-5.6871,-5.7272,-5.721,-5.684,-5.6906,-5.7067,-5.7417,-5.7793,-5.7793,-5.7777,-5.8595,-5.894,-5.8985,-6.0066,-6.075,-6.1044,-6.1119,-6.1119,-6.1119,-6.1119,-6.1119,-6.1119,-6.1119,-6.1119,-6.1119,-6.1119,-6.1218,-6.155,-6.1715,-6.208,-6.252,-6.2955,-6.3099,-6.3249,-6.3691,-6.393,-6.3843,-6.3725,-6.3793,-6.3969,-6.3348,-6.3003,-6.2988,-6.2016,-6.1832,-6.2382,-6.2314,-6.2263,-6.2381,-6.2415,-6.2415,-6.2415,-6.2381,-6.242,-6.26,-6.3566,-6.4132,-6.4186,-6.5035,-6.5401,-6.5203,-6.5286,-6.5566,-6.5635,-6.6014,-6.6677,-6.7415,-6.7857,-6.8046,-6.8081,-6.8765,-6.9118,-6.8854,-6.859,-6.8628,-6.8857,-6.9043,-6.9435,-6.976,-6.9797,-6.9551,-6.9902,-6.9691,-6.9376,-6.9412,-6.9524,-6.9487,-6.9451,-6.956,-6.967,-6.9849,-7.0026,-7.0166,-7.0649,-7.1114,-7.1308,-7.1499,-7.1682,-7.1556,-7.129,-7.087,-7.0433,-6.9806,-6.871,-6.798,-6.7543,-6.7268,-6.7286,-6.7386,-6.7303,-6.7357,-5.681,-5.681,-5.681,-5.684,-5.681,-5.6871,-5.6871,-5.681,-5.6971,-5.7275,-5.7653,-5.7807,-5.8009,-5.8191,-5.8434,-5.8851,-5.952,-6.0412,-6.1099,-6.1342,-6.1417,-6.1417,-6.1318,-6.1185,-6.1119,-6.1119,-6.1119,-6.1119,-6.1119,-6.1119,-6.145,-6.2022,-6.1649,-6.1947,-6.305,-6.2931,-6.3275,-6.3986,-6.4799,-6.4975,-6.4674,-6.4766,-6.4723,-6.4153,-6.3173,-6.2695,-6.2719,-6.2073,-6.1875,-6.2539,-6.2508,-6.2477,-6.2415,-6.2415,-6.2415,-6.2516,-6.2482,-6.2736,-6.3096,-6.4302,-6.4971,-6.4868,-6.6254,-6.73,-6.6182,-6.6359,-6.6669,-6.6738,-6.6945,-6.7325,-6.7994,-6.837,-6.8524,-6.8517,-6.8819,-6.9005,-6.904,-6.8701,-6.8778,-6.9118,-6.9227,-6.926,-6.9586,-6.9553,-6.9518,-6.9623,-6.9553,-6.9449,-6.9412,-6.9487,-6.9524,-6.9524,-6.956,-6.9777,-6.9956,-7.0132,-7.0341,-7.0714,-7.1179,-7.144,-7.149,-7.1665,-7.1636,-7.1404,-7.1311,-7.0975,-7.0237,-6.8986,-6.8401,-6.8274,-6.8028,-6.7844,-6.7797,-6.7807,-6.7623,-5.681,-5.681,-5.681,-5.681,-5.681,-5.681,-5.681,-5.681,-5.6827,-5.6971,-5.707,-5.6934,-5.723,-5.7668,-5.816,-5.9012,-6.0226,-6.1164,-6.1999,-6.2643,-6.2709,-6.2378,-6.1848,-6.1351,-6.1119,-6.1119,-6.1119,-6.1119,-6.1119,-6.1152,-6.1516,-6.2188,-6.2122,-6.2643,-6.3846,-6.4095,-6.4343,-6.4647,-6.4933,-6.5287,-6.5369,-6.5102,-6.5191,-6.5416,-6.45,-6.4142,-6.4376,-6.3639,-6.2682,-6.2037,-6.2623,-6.2729,-6.2516,-6.2482,-6.2719,-6.3165,-6.3351,-6.3668,-6.4364,-6.5386,-6.6068,-6.6151,-6.672,-6.7044,-6.6807,-6.6876,-6.698,-6.7083,-6.7428,-6.7842,-6.8128,-6.8435,-6.8705,-6.8892,-6.8892,-6.8819,-6.8854,-6.8892,-6.9002,-6.9153,-6.9264,-6.9549,-6.9832,-6.9802,-6.9698,-6.9941,-6.9802,-6.9487,-6.9486,-6.9451,-6.9524,-6.956,-6.9633,-6.9884,-7.0097,-7.0272,-7.0513,-7.088,-7.1312,-7.1639,-7.1609,-7.1575,-7.1301,-7.0967,-7.1231,-7.1034,-6.9966,-6.8722,-6.875,-6.9071,-6.844,-6.8119,-6.8532,-6.8687,-6.8266,-5.681,-5.681,-5.681,-5.681,-5.681,-5.681,-5.681,-5.681,-5.681,-5.6721,-5.6603,-5.6466,-5.6792,-5.7522,-5.8121,-5.9317,-6.0845,-6.1961,-6.2713,-6.3107,-6.2917,-6.2553,-6.2047,-6.145,-6.1119,-6.1119,-6.1119,-6.1119,-6.1185,-6.1384,-6.1947,-6.2586,-6.2685,-6.3448,-6.4708,-6.4814,-6.502,-6.5297,-6.5493,-6.5749,-6.58,-6.5201,-6.5297,-6.5554,-6.4934,-6.4338,-6.4248,-6.3802,-6.3097,-6.2528,-6.2865,-6.3275,-6.3362,-6.3294,-6.3571,-6.4057,-6.3939,-6.42,-6.501,-6.5588,-6.5916,-6.6303,-6.6734,-6.698,-6.7049,-6.7221,-6.7463,-6.7532,-6.7876,-6.8049,-6.8123,-6.8397,-6.8705,-6.8967,-6.8967,-6.8892,-6.8892,-6.904,-6.9115,-6.9227,-6.9337,-6.9516,-7.0007,-6.977,-6.9805,-6.9873,-6.9735,-6.9558,-6.9449,-6.9487,-6.956,-6.9633,-6.9741,-6.9991,-7.0307,-7.055,-7.1181,-7.1549,-7.1978,-7.2268,-7.2345,-7.2164,-7.2101,-7.1941,-7.1538,-7.099,-7.0242,-6.9721,-6.9933,-6.9888,-6.9008,-6.8761,-6.9237,-6.8998,-6.8642,-5.681,-5.681,-5.681,-5.681,-5.681,-5.681,-5.6858,-5.6875,-5.6752,-5.665,-5.6559,-5.6496,-5.7018,-5.7701,-5.8602,-5.9729,-6.149,-6.2793,-6.3252,-6.3239,-6.2785,-6.2255,-6.2155,-6.145,-6.1152,-6.1152,-6.1152,-6.1285,-6.1483,-6.198,-6.2719,-6.3216,-6.3305,-6.4034,-6.494,-6.509,-6.5287,-6.5711,-6.6029,-6.6124,-6.5938,-6.5397,-6.5334,-6.5611,-6.4657,-6.3642,-6.3308,-6.3146,-6.3153,-6.2863,-6.3229,-6.3592,-6.4208,-6.441,-6.46,-6.4693,-6.4398,-6.4561,-6.546,-6.5366,-6.5344,-6.629,-6.6949,-6.7083,-6.729,-6.7669,-6.7945,-6.7945,-6.8083,-6.8123,-6.8241,-6.8358,-6.8667,-6.904,-6.9153,-6.9115,-6.9115,-6.9115,-6.919,-6.9376,-6.9376,-6.9376,-6.9449,-6.9524,-6.9597,-6.9735,-6.9667,-6.9668,-6.956,-6.9524,-6.9669,-6.9742,-6.9956,-7.0167,-7.048,-7.0823,-7.1701,-7.2394,-7.2898,-7.3328,-7.3696,-7.3659,-7.3589,-7.3384,-7.2636,-7.2087,-7.1566,-7.1338,-7.1154,-7.0714,-6.9851,-6.9944,-7.0082,-6.9228,-6.8678,-5.681,-5.681,-5.681,-5.681,-5.681,-5.681,-5.705,-5.7291,-5.6715,-5.6715,-5.6892,-5.681,-5.7459,-5.8672,-5.9457,-6.0968,-6.2757,-6.3539,-6.3881,-6.3902,-6.2709,-6.2255,-6.2056,-6.145,-6.1185,-6.1251,-6.1715,-6.1914,-6.2113,-6.2676,-6.3448,-6.3968,-6.3736,-6.4001,-6.5172,-6.5093,-6.5134,-6.569,-6.5911,-6.6042,-6.6009,-6.5744,-6.5634,-6.5831,-6.4934,-6.3909,-6.3141,-6.3391,-6.3508,-6.3168,-6.2898,-6.3199,-6.3802,-6.3937,-6.4328,-6.4869,-6.496,-6.5373,-6.6342,-6.642,-6.6811,-6.7515,-6.761,-6.7876,-6.7842,-6.7945,-6.8083,-6.8083,-6.8083,-6.8201,-6.8474,-6.859,-6.8854,-6.9153,-6.9372,-6.9337,-6.9339,-6.9302,-6.9339,-6.9376,-6.9376,-6.9376,-6.9412,-6.9669,-6.9705,-6.9633,-6.9705,-6.9813,-6.9777,-6.9669,-6.9884,-7.0168,-7.0485,-7.0835,-7.1466,-7.1845,-7.2584,-7.3143,-7.3615,-7.391,-7.428,-7.4525,-7.4279,-7.3971,-7.3597,-7.3017,-7.2262,-7.177,-7.1374,-7.1044,-7.0759,-7.0641,-7.0347,-6.9485,-6.8788,-5.6597,-5.681,-5.681,-5.6954,-5.7115,-5.7115,-5.7214,-5.7276,-5.6977,-5.6685,-5.6613,-5.6698,-5.76,-5.9024,-5.9925,-6.135,-6.3045,-6.3859,-6.3771,-6.3405,-6.2709,-6.2387,-6.1781,-6.1682,-6.1616,-6.1715,-6.2387,-6.2685,-6.2917,-6.3448,-6.4011,-6.4399,-6.4233,-6.4697,-6.5293,-6.5215,-6.5326,-6.5548,-6.5736,-6.5824,-6.5746,-6.5692,-6.5503,-6.5454,-6.4987,-6.4236,-6.3213,-6.3683,-6.374,-6.3438,-6.3199,-6.3509,-6.4349,-6.4627,-6.5128,-6.588,-6.5118,-6.5872,-6.6867,-6.6635,-6.6501,-6.8137,-6.7886,-6.7881,-6.798,-6.8083,-6.8083,-6.8083,-6.8123,-6.8241,-6.8513,-6.8667,-6.8892,-6.926,-6.9654,-6.9762,-6.9481,-6.9376,-6.9376,-6.9376,-6.9376,-6.9449,-6.956,-6.9883,-6.9991,-6.9991,-6.9956,-7.0062,-7.0167,-7.0132,-7.0522,-7.0839,-7.1187,-7.1641,-7.2413,-7.3011,-7.3579,-7.3961,-7.4232,-7.4288,-7.4415,-7.4555,-7.4652,-7.4249,-7.3846,-7.32,-7.2482,-7.1992,-7.1684,-7.161,-7.1398,-7.1162,-7.0604,-6.9687,-6.91,-5.6477,-5.6761,-5.6761,-5.7067,-5.7448,-5.7464,-5.7448,-5.734,-5.729,-5.6829,-5.6231,-5.668,-5.7936,-5.8928,-6.0022,-6.1371,-6.264,-6.3243,-6.3033,-6.251,-6.2699,-6.2137,-6.1574,-6.2047,-6.2553,-6.252,-6.3116,-6.3405,-6.3637,-6.41,-6.4465,-6.4531,-6.4862,-6.4995,-6.5205,-6.5437,-6.5448,-6.5481,-6.5603,-6.5647,-6.5514,-6.5437,-6.5227,-6.4924,-6.4461,-6.4237,-6.3631,-6.3915,-6.4065,-6.3728,-6.403,-6.4742,-6.5345,-6.5671,-6.6146,-6.6935,-6.5485,-6.5852,-6.7014,-6.6466,-6.6225,-6.7985,-6.7601,-6.7532,-6.7945,-6.8083,-6.8083,-6.8083,-6.8123,-6.8162,-6.8397,-6.859,-6.8781,-6.9148,-6.986,-7.0007,-6.9727,-6.9551,-6.9586,-6.9448,-6.9658,-6.9836,-6.9985,-7.0238,-7.031,-7.0379,-7.0343,-7.0341,-7.041,-7.0693,-7.1118,-7.1647,-7.2029,-7.2739,-7.3513,-7.3796,-7.4435,-7.4682,-7.4849,-7.4732,-7.4683,-7.4942,-7.5013,-7.4391,-7.3879,-7.3197,-7.2619,-7.2167,-7.1977,-7.2116,-7.1736,-7.1134,-7.0466,-6.9788,-6.9265,-5.6974,-5.647,-5.6713,-5.7067,-5.7495,-5.7495,-5.7648,-5.779,-5.7752,-5.7247,-5.6634,-5.771,-5.8292,-5.9015,-6.0161,-6.1446,-6.2366,-6.2508,-6.2177,-6.2028,-6.2184,-6.1712,-6.164,-6.2808,-6.3514,-6.3448,-6.3779,-6.4067,-6.4266,-6.4862,-6.4829,-6.4531,-6.4564,-6.463,-6.4664,-6.4641,-6.4951,-6.5094,-6.5304,-6.5371,-6.5293,-6.5304,-6.505,-6.4547,-6.3927,-6.3675,-6.4042,-6.4192,-6.4342,-6.4505,-6.5595,-6.5907,-6.565,-6.5085,-6.5221,-6.5789,-6.5627,-6.5925,-6.713,-6.7023,-6.7165,-6.8003,-6.8029,-6.7876,-6.8049,-6.8083,-6.8083,-6.8083,-6.8083,-6.8162,-6.8397,-6.8659,-6.8851,-6.9148,-6.9615,-6.9972,-7.0253,-7.0359,-7.0148,-6.9867,-7.0115,-7.0367,-7.0519,-7.0736,-7.0875,-7.0834,-7.0688,-7.0752,-7.085,-7.128,-7.1818,-7.2382,-7.2978,-7.3799,-7.4655,-7.4797,-7.5083,-7.5264,-7.5363,-7.5139,-7.5164,-7.5466,-7.5301,-7.4086,-7.3569,-7.3167,-7.2625,-7.2084,-7.1845,-7.1677,-7.1304,-7.0885,-7.0136,-6.9339,-6.8715,-5.6375,-5.647,-5.6779,-5.7306,-5.784,-5.815,-5.8242,-5.8181,-5.7882,-5.7495,-5.7375,-5.7806,-5.8551,-5.9339,-6.0576,-6.1557,-6.1874,-6.1862,-6.1564,-6.1537,-6.1745,-6.1886,-6.1748,-6.3282,-6.3736,-6.3902,-6.42,-6.4365,-6.4432,-6.5061,-6.4929,-6.463,-6.4664,-6.473,-6.4465,-6.4476,-6.4332,-6.4498,-6.473,-6.4929,-6.494,-6.4984,-6.4717,-6.3995,-6.3684,-6.3533,-6.3549,-6.4588,-6.4949,-6.529,-6.5955,-6.6139,-6.5861,-6.5483,-6.5343,-6.6131,-6.5941,-6.6165,-6.7264,-6.7368,-6.7403,-6.8063,-6.8123,-6.8083,-6.8083,-6.8083,-6.8083,-6.8083,-6.8083,-6.8123,-6.8241,-6.886,-6.9335,-6.9697,-7.0345,-7.0953,-7.1201,-7.1447,-7.1166,-7.0712,-7.1147,-7.1332,-7.109,-7.1267,-7.1507,-7.139,-7.1132,-7.1156,-7.128,-7.1863,-7.2518,-7.3408,-7.4046,-7.4763,-7.5336,-7.5336,-7.5334,-7.5515,-7.5551,-7.5327,-7.4954,-7.4861,-7.4077,-7.293,-7.2705,-7.31,-7.1988,-7.1198,-7.1201,-7.1099,-7.0417,-6.9843,-6.9421,-6.8898,-6.8311,-5.5901,-5.6519,-5.6923,-5.7496,-5.8159,-5.8568,-5.8586,-5.8335,-5.8032,-5.7741,-5.7654,-5.7978,-5.8691,-5.9632,-6.0544,-6.1305,-6.1511,-6.1501,-6.138,-6.1419,-6.2174,-6.2567,-6.2685,-6.3272,-6.4001,-6.4233,-6.4299,-6.4332,-6.4432,-6.4862,-6.463,-6.4167,-6.4564,-6.463,-6.3968,-6.3935,-6.367,-6.3902,-6.42,-6.4531,-6.4486,-6.4507,-6.4162,-6.3335,-6.3675,-6.3693,-6.3549,-6.4622,-6.553,-6.5865,-6.6207,-6.6337,-6.6404,-6.6126,-6.6445,-6.7152,-6.6421,-6.6824,-6.7458,-6.7635,-6.7566,-6.8088,-6.8083,-6.8083,-6.8083,-6.8083,-6.8083,-6.8083,-6.8083,-6.8295,-6.8621,-6.9311,-6.9888,-7.0496,-7.1462,-7.243,-7.2149,-7.2219,-7.243,-7.2302,-7.2535,-7.2297,-7.1908,-7.1872,-7.2114,-7.187,-7.1572,-7.164,-7.1842,-7.2528,-7.329,-7.4402,-7.5155,-7.5735,-7.5985,-7.5659,-7.5478,-7.5261,-7.5189,-7.5004,-7.4413,-7.3856,-7.3078,-7.2698,-7.3009,-7.3185,-7.1751,-7.0549,-7.0515,-7.0185,-6.9347,-6.899,-6.8981,-6.8605,-6.8008,-5.659,-5.67,-5.6988,-5.7402,-5.793,-5.8032,-5.7924,-5.7796,-5.8194,-5.813,-5.7741,-5.8745,-5.9199,-5.9436,-5.9935,-6.0283,-6.0555,-6.1034,-6.1469,-6.1795,-6.288,-6.3341,-6.3405,-6.4597,-6.4498,-6.4399,-6.4332,-6.4332,-6.42,-6.4332,-6.3769,-6.305,-6.3348,-6.3315,-6.304,-6.3415,-6.367,-6.4167,-6.4862,-6.4962,-6.4531,-6.4486,-6.3766,-6.3306,-6.3526,-6.4036,-6.421,-6.5226,-6.6,-6.6584,-6.6886,-6.7044,-6.7127,-6.7257,-6.7392,-6.7485,-6.7305,-6.7182,-6.7911,-6.7911,-6.7842,-6.8049,-6.8083,-6.8083,-6.8083,-6.8123,-6.8162,-6.8083,-6.8123,-6.8512,-6.912,-6.9663,-7.0349,-7.0993,-7.1855,-7.2462,-7.257,-7.2816,-7.3062,-7.3118,-7.3104,-7.2868,-7.2584,-7.2618,-7.2651,-7.2335,-7.2114,-7.2151,-7.2368,-7.3023,-7.4004,-7.5119,-7.5406,-7.5877,-7.6239,-7.5985,-7.5587,-7.5189,-7.5152,-7.4896,-7.4119,-7.3597,-7.3638,-7.3442,-7.353,-7.296,-7.1537,-7.0581,-7.0033,-6.9527,-6.8972,-6.8844,-6.8908,-6.8348,-6.7777,-5.6401,-5.6621,-5.7136,-5.7544,-5.784,-5.7795,-5.77,-5.7709,-5.7871,-5.8097,-5.8227,-5.8745,-5.9231,-5.9599,-5.9881,-6.0326,-6.0827,-6.123,-6.1764,-6.2398,-6.3254,-6.3715,-6.3968,-6.4465,-6.4564,-6.4399,-6.3935,-6.3415,-6.3405,-6.3438,-6.3183,-6.2487,-6.2917,-6.3315,-6.2719,-6.3116,-6.3448,-6.3835,-6.4399,-6.4862,-6.4829,-6.4531,-6.4165,-6.3781,-6.4227,-6.4615,-6.5068,-6.5974,-6.6607,-6.7056,-6.7263,-6.7428,-6.7516,-6.7638,-6.7759,-6.7925,-6.7803,-6.7773,-6.8049,-6.8083,-6.8083,-6.8083,-6.8083,-6.8083,-6.8123,-6.8314,-6.8314,-6.8083,-6.8319,-6.8852,-6.9619,-7.0188,-7.1011,-7.1804,-7.2493,-7.2883,-7.3238,-7.3378,-7.3596,-7.3655,-7.3568,-7.3119,-7.2758,-7.2748,-7.249,-7.207,-7.2151,-7.2513,-7.2766,-7.3273,-7.4468,-7.5913,-7.5804,-7.5659,-7.6022,-7.613,-7.5696,-7.5406,-7.5732,-7.5255,-7.4106,-7.3624,-7.3629,-7.3031,-7.2436,-7.1794,-7.1063,-7.0514,-6.9929,-6.9282,-6.8669,-6.8688,-6.8678,-6.8228,-6.7767,-5.6652,-5.6895,-5.7304,-5.7548,-5.7547,-5.7387,-5.7417,-5.7589,-5.7621,-5.8097,-5.881,-5.9209,-5.9729,-6.0141,-6.0272,-6.0598,-6.1077,-6.1633,-6.2224,-6.287,-6.3539,-6.4167,-6.4531,-6.473,-6.463,-6.4332,-6.3703,-6.3083,-6.2619,-6.2444,-6.2345,-6.1989,-6.2553,-6.2884,-6.305,-6.3249,-6.3471,-6.4133,-6.4564,-6.4862,-6.4962,-6.4796,-6.4573,-6.459,-6.4939,-6.5353,-6.5657,-6.6532,-6.7146,-6.7222,-6.7435,-6.7638,-6.7719,-6.7839,-6.7919,-6.8044,-6.798,-6.8014,-6.8083,-6.8083,-6.8083,-6.8083,-6.8123,-6.8123,-6.8353,-6.8656,-6.8847,-6.8544,-6.9254,-6.9645,-7.0132,-7.102,-7.1979,-7.284,-7.3557,-7.3874,-7.3979,-7.3811,-7.3575,-7.3454,-7.3257,-7.2798,-7.257,-7.2647,-7.2376,-7.1861,-7.211,-7.2798,-7.3414,-7.3921,-7.4863,-7.6239,-7.6094,-7.5804,-7.5985,-7.6094,-7.5696,-7.5551,-7.591,-7.536,-7.4029,-7.3583,-7.3588,-7.279,-7.186,-7.1641,-7.1516,-7.0653,-6.9823,-6.9549,-6.9201,-6.8669,-6.8365,-6.8025,-6.7847,-5.8088,-5.8137,-5.7663,-5.7181,-5.6654,-5.6575,-5.6931,-5.7385,-5.7524,-5.8292,-5.9555,-6.0444,-6.0736,-6.0801,-6.0924,-6.0816,-6.0424,-6.2016,-6.2716,-6.3474,-6.4366,-6.4851,-6.5028,-6.4929,-6.473,-6.4133,-6.3438,-6.2785,-6.2212,-6.1815,-6.1516,-6.1285,-6.2013,-6.2179,-6.2685,-6.3348,-6.41,-6.473,-6.516,-6.4929,-6.4962,-6.4873,-6.4916,-6.4562,-6.5268,-6.5942,-6.5756,-6.6724,-6.7263,-6.7263,-6.7557,-6.7759,-6.7879,-6.7965,-6.8078,-6.8083,-6.8256,-6.829,-6.829,-6.8152,-6.8083,-6.8083,-6.8123,-6.831,-6.876,-6.9436,-6.952,-6.9465,-7.0307,-7.0972,-7.1581,-7.2296,-7.2813,-7.3448,-7.3913,-7.3983,-7.3991,-7.3755,-7.352,-7.3322,-7.2976,-7.258,-7.2418,-7.2456,-7.2517,-7.2074,-7.2943,-7.3667,-7.45,-7.5044,-7.5515,-7.6203,-7.6203,-7.6094,-7.613,-7.6019,-7.5726,-7.5614,-7.5756,-7.4914,-7.3665,-7.3551,-7.4051,-7.3015,-7.2247,-7.2108,-7.1918,-7.1231,-7.0649,-7.0229,-6.977,-6.921,-6.8793,-6.8568,-6.8314,-5.8318,-5.8475,-5.8268,-5.7775,-5.7093,-5.6219,-5.5992,-5.6316,-5.6737,-5.8,-5.9814,-6.0907,-6.1264,-6.1016,-6.1096,-6.1186,-6.1142,-6.2224,-6.3067,-6.3804,-6.4487,-6.473,-6.4664,-6.4266,-6.367,-6.3173,-6.2709,-6.2212,-6.1516,-6.1649,-6.1781,-6.1815,-6.1748,-6.2179,-6.2851,-6.3868,-6.4796,-6.5127,-6.5425,-6.5227,-6.5238,-6.5371,-6.5524,-6.545,-6.5935,-6.6466,-6.6516,-6.7141,-6.736,-6.7516,-6.7799,-6.7919,-6.7994,-6.8113,-6.8152,-6.8256,-6.8566,-6.8739,-6.8635,-6.8394,-6.8083,-6.8083,-6.8157,-6.8487,-6.9262,-7.0094,-7.0485,-7.0812,-7.1385,-7.2058,-7.2205,-7.2489,-7.291,-7.3694,-7.4088,-7.4167,-7.3994,-7.372,-7.3388,-7.3151,-7.2798,-7.2435,-7.2341,-7.2304,-7.2368,-7.2436,-7.3486,-7.45,-7.5261,-7.5732,-7.6022,-7.613,-7.6094,-7.62,-7.6236,-7.6049,-7.5792,-7.5785,-7.5745,-7.5006,-7.4233,-7.4628,-7.4801,-7.3659,-7.2698,-7.2576,-7.2306,-7.1903,-7.1476,-7.1056,-7.0395,-6.9724,-6.9399,-6.913,-6.8849,-5.8722,-5.8863,-5.8486,-5.7903,-5.7158,-5.6154,-5.5863,-5.6089,-5.6381,-5.7871,-6.0073,-6.1077,-6.1446,-6.1244,-6.1206,-6.1132,-6.149,-6.2365,-6.3132,-6.3692,-6.4034,-6.4167,-6.3935,-6.3527,-6.2977,-6.2293,-6.2293,-6.2085,-6.149,-6.2137,-6.2245,-6.2122,-6.198,-6.2643,-6.357,-6.4697,-6.5425,-6.5425,-6.5425,-6.5425,-6.5392,-6.5559,-6.5824,-6.5995,-6.644,-6.6736,-6.6954,-6.74,-6.7644,-6.7719,-6.7914,-6.8216,-6.829,-6.8325,-6.8359,-6.8739,-6.9049,-6.9291,-6.9153,-6.8877,-6.8325,-6.8152,-6.8428,-6.8976,-6.9788,-7.0777,-7.1596,-7.152,-7.2317,-7.2922,-7.2879,-7.3066,-7.3343,-7.4057,-7.4248,-7.4287,-7.403,-7.3751,-7.3321,-7.2941,-7.2653,-7.2319,-7.244,-7.2513,-7.3273,-7.3414,-7.4102,-7.5008,-7.5696,-7.6022,-7.5949,-7.6022,-7.6022,-7.6128,-7.6233,-7.6224,-7.6181,-7.6279,-7.6199,-7.5826,-7.5489,-7.5671,-7.5024,-7.3603,-7.2899,-7.2941,-7.2592,-7.2094,-7.1924,-7.1818,-7.1204,-7.0578,-7.0253,-6.9995,-6.9503,-5.9367,-5.9478,-5.8194,-5.7223,-5.6672,-5.6478,-5.6737,-5.7126,-5.7061,-5.8324,-6.0623,-6.1044,-6.1426,-6.1813,-6.1567,-6.1305,-6.1324,-6.2405,-6.304,-6.2974,-6.358,-6.3779,-6.3417,-6.2901,-6.2441,-6.2134,-6.2375,-6.2408,-6.1946,-6.2822,-6.2875,-6.2951,-6.3239,-6.367,-6.4332,-6.5028,-6.5425,-6.5425,-6.5492,-6.5525,-6.5425,-6.5514,-6.579,-6.6139,-6.6558,-6.6896,-6.7188,-6.7597,-6.7799,-6.7799,-6.8131,-6.8532,-6.898,-6.8635,-6.898,-6.998,-6.9635,-6.9463,-6.936,-6.9291,-6.8917,-6.8359,-6.8566,-6.9426,-7.024,-7.1438,-7.2627,-7.2366,-7.3383,-7.3774,-7.3837,-7.3723,-7.3881,-7.4057,-7.4248,-7.4287,-7.3991,-7.3684,-7.3287,-7.287,-7.2469,-7.2161,-7.2387,-7.2798,-7.3925,-7.4537,-7.4902,-7.5478,-7.6094,-7.6203,-7.6094,-7.6161,-7.6161,-7.6297,-7.6472,-7.6578,-7.6607,-7.67,-7.6651,-7.6381,-7.5985,-7.5776,-7.4806,-7.3505,-7.3057,-7.3021,-7.2642,-7.2226,-7.2218,-7.2169,-7.2115,-7.1659,-7.1279,-7.0835,-7.0343,-5.8626,-5.8259,-5.7773,-5.7492,-5.7093,-5.6154,-5.6219,-5.7093,-5.8551,-6.0137,-6.1368,-6.1919,-6.1997,-6.195,-6.1643,-6.1382,-6.1468,-6.1919,-6.242,-6.2941,-6.3107,-6.2656,-6.2362,-6.2233,-6.1982,-6.1971,-6.2399,-6.321,-6.332,-6.3914,-6.4266,-6.4399,-6.4664,-6.5227,-6.5326,-6.5724,-6.6154,-6.6154,-6.6121,-6.5955,-6.5492,-6.5658,-6.6009,-6.6345,-6.6812,-6.7146,-6.7428,-6.7834,-6.8022,-6.8051,-6.8452,-6.9084,-6.9463,-6.9222,-6.9842,-7.0532,-7.036,-7.0774,-7.0642,-7.0407,-6.9514,-6.8956,-6.8991,-6.9956,-7.0884,-7.1917,-7.2672,-7.3175,-7.3755,-7.3885,-7.3492,-7.3487,-7.3582,-7.3777,-7.3896,-7.401,-7.3874,-7.3585,-7.3253,-7.287,-7.2433,-7.2518,-7.2705,-7.3273,-7.4356,-7.5116,-7.5478,-7.5696,-7.6239,-7.6309,-7.6273,-7.6442,-7.6508,-7.6574,-7.6676,-7.6741,-7.6838,-7.6929,-7.7024,-7.7009,-7.6549,-7.5917,-7.5024,-7.391,-7.3421,-7.3033,-7.2642,-7.2321,-7.2467,-7.2483,-7.2383,-7.2133,-7.1635,-7.1357,-7.1104,-5.8,-5.7621,-5.7589,-5.7459,-5.7126,-5.6446,-5.6575,-5.7547,-5.949,-6.0818,-6.1433,-6.1919,-6.1932,-6.1528,-6.124,-6.136,-6.1513,-6.1966,-6.2491,-6.2987,-6.2382,-6.2098,-6.1871,-6.1632,-6.1568,-6.183,-6.2869,-6.3812,-6.4308,-6.4862,-6.5293,-6.5657,-6.6055,-6.6254,-6.6419,-6.6916,-6.6717,-6.6585,-6.6386,-6.6088,-6.5713,-6.5746,-6.6129,-6.6558,-6.698,-6.7394,-6.7706,-6.8086,-6.8457,-6.8619,-6.9072,-6.9773,-7.0049,-7.0222,-7.0705,-7.1153,-7.1256,-7.1532,-7.1298,-7.0909,-7.0044,-6.9381,-6.9831,-7.0699,-7.1652,-7.2582,-7.3068,-7.3532,-7.3786,-7.3702,-7.3461,-7.3415,-7.3496,-7.3692,-7.3782,-7.3861,-7.3842,-7.359,-7.3185,-7.2798,-7.2789,-7.2875,-7.328,-7.3964,-7.479,-7.537,-7.5949,-7.613,-7.6311,-7.6454,-7.6451,-7.6548,-7.6789,-7.6927,-7.6984,-7.6966,-7.7061,-7.7155,-7.7107,-7.6955,-7.6617,-7.588,-7.5097,-7.4378,-7.3702,-7.3124,-7.2592,-7.238,-7.2532,-7.2647,-7.265,-7.2346,-7.1959,-7.1765,-7.1632,-5.7589,-5.7589,-5.7547,-5.7191,-5.677,-5.7288,-5.7968,-5.8637,-5.949,-6.0235,-6.0915,-6.0979,-6.1069,-6.1031,-6.0641,-6.0826,-6.1338,-6.1867,-6.2263,-6.2408,-6.1946,-6.1762,-6.1622,-6.147,-6.1643,-6.232,-6.3436,-6.472,-6.5198,-6.5874,-6.6329,-6.6341,-6.6196,-6.6937,-6.7632,-6.7943,-6.7413,-6.7016,-6.6751,-6.6254,-6.5669,-6.5736,-6.6273,-6.666,-6.7124,-6.7639,-6.8171,-6.8756,-6.9112,-6.9497,-7.0015,-7.0705,-7.0981,-7.0808,-7.1567,-7.1946,-7.1843,-7.1601,-7.1608,-7.122,-7.1099,-7.0782,-7.1538,-7.2076,-7.233,-7.2839,-7.3252,-7.3392,-7.3502,-7.3617,-7.3577,-7.3617,-7.3617,-7.3742,-7.3795,-7.3842,-7.3815,-7.3522,-7.3116,-7.2904,-7.3001,-7.3269,-7.4076,-7.479,-7.5044,-7.5406,-7.5913,-7.6167,-7.6384,-7.671,-7.6738,-7.665,-7.6963,-7.7316,-7.7299,-7.7129,-7.7118,-7.7217,-7.6594,-7.6374,-7.6073,-7.5651,-7.4681,-7.392,-7.3678,-7.3184,-7.2607,-7.2446,-7.2569,-7.2692,-7.2998,-7.2675,-7.2344,-7.2171,-7.2086,-5.6802,-5.6802,-5.6802,-5.7255,-5.7957,-5.8227,-5.8745,-5.9457,-6.017,-6.0882,-6.1498,-6.1012,-6.083,-6.0854,-6.0391,-6.0642,-6.099,-6.1271,-6.1445,-6.1511,-6.1412,-6.1283,-6.1404,-6.1674,-6.204,-6.3043,-6.4257,-6.5469,-6.5805,-6.6549,-6.6641,-6.6278,-6.6964,-6.7903,-6.8493,-6.897,-6.8175,-6.7546,-6.7214,-6.6519,-6.5846,-6.5857,-6.645,-6.7158,-6.7377,-6.807,-6.9192,-6.9354,-6.9635,-7.0118,-7.0774,-7.136,-7.136,-7.1774,-7.2464,-7.2429,-7.205,-7.1712,-7.2126,-7.1843,-7.1688,-7.2076,-7.2649,-7.2528,-7.2597,-7.2765,-7.3135,-7.3211,-7.3211,-7.3252,-7.3375,-7.3456,-7.3657,-7.3861,-7.3917,-7.3864,-7.3805,-7.3507,-7.3154,-7.3183,-7.3272,-7.3766,-7.4612,-7.508,-7.5334,-7.5587,-7.5841,-7.613,-7.6456,-7.6782,-7.6881,-7.6825,-7.7065,-7.7417,-7.7358,-7.7186,-7.7181,-7.7169,-7.6411,-7.5794,-7.5592,-7.5092,-7.4117,-7.3496,-7.3184,-7.2907,-7.2585,-7.2569,-7.2569,-7.3243,-7.3558,-7.3096,-7.2757,-7.2632,-7.2475,-5.6737,-5.6575,-5.7126,-5.8032,-5.8863,-5.8702,-5.8993,-5.9716,-6.0202,-6.0753,-6.1303,-6.0979,-6.0656,-6.0344,-6.0207,-6.0424,-6.089,-6.0793,-6.1054,-6.1612,-6.0912,-6.1208,-6.1478,-6.1963,-6.2659,-6.3747,-6.491,-6.5975,-6.6316,-6.6785,-6.6944,-6.6826,-6.7928,-6.8597,-6.9022,-6.9103,-6.8572,-6.7943,-6.7367,-6.6837,-6.64,-6.6001,-6.6815,-6.7692,-6.7808,-6.8946,-7.0175,-7.0015,-7.0429,-7.0877,-7.1532,-7.1946,-7.1981,-7.2471,-7.2636,-7.2602,-7.2402,-7.2299,-7.2506,-7.2465,-7.2617,-7.2873,-7.3129,-7.2927,-7.2782,-7.2838,-7.2977,-7.3046,-7.2963,-7.2922,-7.3088,-7.3252,-7.3657,-7.4049,-7.3931,-7.3845,-7.3686,-7.351,-7.3466,-7.3521,-7.3796,-7.429,-7.4754,-7.5225,-7.5587,-7.5841,-7.6022,-7.6167,-7.6492,-7.6855,-7.6911,-7.685,-7.7166,-7.745,-7.7348,-7.7144,-7.7028,-7.6698,-7.5831,-7.5324,-7.5184,-7.4415,-7.3354,-7.2914,-7.2688,-7.2556,-7.2532,-7.2532,-7.2708,-7.3353,-7.375,-7.3288,-7.3133,-7.3284,-7.3102,-5.7223,-5.6834,-5.813,-5.8993,-5.9555,-5.8993,-5.909,-5.9684,-5.9781,-6.0105,-6.0623,-6.0688,-6.0332,-5.9955,-6.0011,-6.0228,-6.0532,-6.05,-6.0913,-6.1988,-6.0968,-6.1054,-6.1865,-6.212,-6.2945,-6.4276,-6.5213,-6.5685,-6.664,-6.6968,-6.71,-6.7306,-6.8239,-6.8895,-6.9268,-6.9003,-6.8506,-6.8076,-6.7479,-6.6916,-6.6488,-6.6334,-6.6748,-6.7852,-6.8557,-6.9323,-7.0402,-7.1084,-7.1532,-7.1808,-7.2119,-7.2609,-7.2644,-7.2678,-7.2671,-7.2671,-7.2609,-7.2609,-7.2678,-7.27,-7.2818,-7.2963,-7.2998,-7.3102,-7.313,-7.2887,-7.2846,-7.2963,-7.2963,-7.3088,-7.3293,-7.3502,-7.3821,-7.404,-7.4064,-7.3756,-7.344,-7.3466,-7.3701,-7.3974,-7.4727,-7.5152,-7.5515,-7.6022,-7.613,-7.6275,-7.6203,-7.6275,-7.649,-7.6852,-7.6981,-7.6915,-7.7121,-7.7363,-7.7307,-7.7102,-7.6741,-7.6228,-7.5397,-7.4805,-7.4585,-7.3692,-7.2642,-7.2511,-7.2556,-7.2548,-7.2532,-7.2679,-7.3002,-7.3464,-7.3684,-7.3332,-7.339,-7.3652,-7.3442,-5.7806,-5.8194,-5.9069,-5.9587,-5.9684,-5.9522,-5.9522,-5.9673,-5.9673,-5.9814,-5.9976,-5.9976,-5.9943,-5.9749,-5.9935,-6.013,-6.0054,-6.0261,-6.0663,-6.1085,-6.0792,-6.1365,-6.2477,-6.258,-6.3274,-6.3919,-6.4593,-6.5106,-6.5592,-6.6213,-6.6882,-6.7156,-6.8233,-6.91,-6.9088,-6.8771,-6.8407,-6.8162,-6.7181,-6.6618,-6.6133,-6.6801,-6.7443,-6.8408,-6.922,-7.0301,-7.1213,-7.1587,-7.2015,-7.2326,-7.2533,-7.2671,-7.2671,-7.2671,-7.2671,-7.2671,-7.2671,-7.2671,-7.2713,-7.2755,-7.2797,-7.3004,-7.3177,-7.3445,-7.3445,-7.2996,-7.2873,-7.2998,-7.3088,-7.3293,-7.3537,-7.3742,-7.3952,-7.4095,-7.415,-7.369,-7.3289,-7.3634,-7.4007,-7.4724,-7.5587,-7.5985,-7.6311,-7.6529,-7.6674,-7.6601,-7.6348,-7.6345,-7.6448,-7.6735,-7.7047,-7.7057,-7.7034,-7.7166,-7.7217,-7.7065,-7.6668,-7.6045,-7.5281,-7.4652,-7.4095,-7.3604,-7.3046,-7.2679,-7.2532,-7.2753,-7.301,-7.323,-7.3516,-7.3729,-7.3897,-7.3721,-7.3681,-7.3867,-7.3554,-5.8551,-5.8702,-5.9425,-5.9673,-5.9673,-5.9673,-5.9673,-5.9673,-5.9673,-5.9673,-5.9673,-5.9673,-5.9673,-5.9716,-5.9892,-5.9924,-5.9793,-5.9979,-6.0423,-6.0757,-6.1134,-6.175,-6.2385,-6.2955,-6.3808,-6.4341,-6.4663,-6.4999,-6.4919,-6.5846,-6.6757,-6.7421,-6.8501,-6.9055,-6.8862,-6.8578,-6.836,-6.8399,-6.6982,-6.641,-6.6211,-6.7068,-6.8136,-6.9113,-7.0395,-7.1362,-7.1969,-7.2387,-7.2602,-7.2671,-7.2671,-7.2671,-7.2671,-7.2671,-7.2671,-7.2671,-7.2671,-7.2671,-7.2671,-7.2671,-7.2705,-7.2946,-7.3403,-7.3713,-7.3841,-7.3461,-7.367,-7.3726,-7.324,-7.3334,-7.3697,-7.394,-7.437,-7.4574,-7.444,-7.4185,-7.4354,-7.4771,-7.5119,-7.5517,-7.6058,-7.613,-7.6348,-7.6384,-7.6492,-7.6492,-7.6311,-7.6378,-7.6481,-7.6726,-7.7032,-7.7231,-7.7244,-7.7192,-7.7248,-7.6992,-7.66,-7.5904,-7.5128,-7.4609,-7.4088,-7.3898,-7.3597,-7.345,-7.3377,-7.3413,-7.367,-7.378,-7.367,-7.3802,-7.4044,-7.4183,-7.4134,-7.3933,-7.3619,-5.9328,-5.8863,-5.9457,-5.9673,-5.9673,-5.9673,-5.9673,-5.9673,-5.9673,-5.9673,-5.9673,-5.9673,-5.9673,-5.9716,-5.976,-5.9781,-5.9922,-6.0184,-6.0485,-6.1044,-6.1251,-6.2191,-6.2807,-6.3182,-6.3858,-6.4406,-6.4793,-6.4923,-6.4955,-6.5946,-6.6857,-6.788,-6.8678,-6.9283,-6.8932,-6.8352,-6.7883,-6.7916,-6.736,-6.7077,-6.7278,-6.7658,-6.8739,-7.0066,-7.142,-7.221,-7.2742,-7.305,-7.3153,-7.3023,-7.2671,-7.2671,-7.2671,-7.2671,-7.2671,-7.2671,-7.2671,-7.2671,-7.2671,-7.2671,-7.2774,-7.3058,-7.361,-7.4075,-7.4306,-7.4594,-7.4761,-7.4514,-7.4025,-7.3657,-7.3975,-7.4248,-7.4673,-7.4796,-7.4652,-7.4749,-7.5205,-7.5623,-7.5841,-7.6167,-7.6348,-7.6384,-7.6311,-7.6311,-7.6384,-7.6348,-7.6342,-7.6445,-7.6617,-7.6931,-7.7243,-7.7404,-7.7453,-7.7401,-7.7494,-7.6913,-7.6484,-7.5709,-7.4932,-7.4455,-7.4125,-7.4191,-7.4368,-7.4558,-7.4515,-7.4221,-7.4147,-7.4184,-7.4074,-7.3802,-7.3934,-7.4057,-7.3776,-7.3582,-7.3542,-5.9652,-5.9522,-5.9652,-5.9673,-5.9673,-5.9673,-5.9673,-5.9673,-5.9716,-5.9673,-5.9749,-5.9716,-5.9716,-5.9716,-5.9935,-6.0163,-6.0603,-6.0724,-6.1523,-6.2385,-6.2178,-6.2923,-6.3473,-6.357,-6.3585,-6.3891,-6.4262,-6.4345,-6.5073,-6.5885,-6.6628,-6.756,-6.8583,-6.8807,-6.8314,-6.7903,-6.7963,-6.8042,-6.7895,-6.759,-6.9042,-6.9323,-6.9187,-7.027,-7.1411,-7.2022,-7.2485,-7.2724,-7.2774,-7.2747,-7.2671,-7.2671,-7.2671,-7.2671,-7.2671,-7.2671,-7.2671,-7.2671,-7.2671,-7.2912,-7.3119,-7.3541,-7.4394,-7.567,-7.6021,-7.6613,-7.6543,-7.6203,-7.5607,-7.4579,-7.4631,-7.4669,-7.4934,-7.469,-7.453,-7.5097,-7.5626,-7.5623,-7.5659,-7.6203,-7.671,-7.6565,-7.6311,-7.642,-7.6674,-7.6565,-7.6345,-7.6445,-7.6647,-7.7032,-7.7523,-7.7719,-7.7809,-7.7982,-7.8185,-7.6937,-7.6252,-7.5439,-7.4925,-7.4852,-7.4778,-7.4742,-7.4918,-7.5139,-7.4955,-7.4588,-7.4588,-7.4515,-7.4015,-7.3713,-7.3807,-7.3783,-7.3499,-7.3441,-7.3511]},{"header":{"parameterUnit":"m.s-1","parameterCategory":1,"la1":31.0,"la2":29.5877,"lo1":-88.7671,"lo2":-86.6584,"dy":0.0162,"dx":0.0185,"nx":115,"ny":88,"refTime":"2023-03-24T18:00:00:Z","depth":0,"parameterNumber":3,"parameterNumberName":"V-component_of_WINDS"},"data":[0.0,0.0,0.0,0.0,0.0,0.0,0.0,0.0,0.0,0.0,0.0,0.0,0.0,0.0,0.0,0.0,0.0,0.0,0.0,0.0,0.0,0.0,0.0,0.0,0.0,0.0,0.0,0.0,0.0,0.0,0.0,0.0,0.0,0.0,0.0,0.0,0.0,0.0,0.0,0.0,0.0,0.0,0.0,0.0,0.0,0.0,0.0,0.0,0.0,0.0,0.0,0.0,0.0,0.0,0.0,0.0,0.0,0.0,0.0,0.0,0.0,0.0,0.0,0.0,0.0,0.0,0.0,0.0,0.0,0.0,0.0,0.0,0.0,0.0,0.0,0.0,0.0,0.0,0.0,0.0,0.0,0.0,0.0,0.0,0.0,0.0,0.0,0.0,0.0,0.0,0.0,0.0,0.0,0.0,0.0,0.0,0.0,0.0,0.0,0.0,0.0,0.0,0.0,0.0,0.0,0.0,0.0,0.0,0.0,0.0,0.0,0.0,0.0,0.0,0.0,0.0,0.0,0.0,0.0,0.0,0.0,0.0,0.0,0.0,0.0,0.0,0.0,0.0,0.0,0.0,0.0,0.0,0.0,0.0,0.0,0.0,0.0,0.0,0.0,0.0,0.0,0.0,0.0,0.0,0.0,0.0,0.0,0.0,0.0,0.0,0.0,0.0,0.0,0.0,0.0,0.0,0.0,0.0,0.0,0.0,0.0,0.0,0.0,0.0,0.0,0.0,0.0,0.0,0.0,0.0,0.0,0.0,0.0,0.0,0.0,0.0,0.0,0.0,0.0,0.0,0.0,0.0,0.0,0.0,0.0,0.0,0.0,0.0,0.0,0.0,0.0,0.0,0.0,0.0,0.0,0.0,0.0,0.0,0.0,0.0,0.0,0.0,0.0,0.0,0.0,0.0,0.0,0.0,0.0,0.0,0.0,0.0,0.0,0.0,0.0,0.0,0.0,0.0,0.0,0.0,0.0,0.0,0.0,0.0,0.0,0.0,0.0,0.0,0.0,0.0,0.0,0.0,0.0,0.0,0.0,0.0,0.0,0.0,0.0,0.0,0.0,0.0,0.0,0.0,0.0,0.0,0.0,0.0,0.0,0.0,0.0,0.0,0.0,0.0,0.0,0.0,0.0,0.0,0.0,0.0,0.0,0.0,0.0,0.0,0.0,0.0,0.0,0.0,0.0,0.0,0.0,0.0,0.0,0.0,0.0,0.0,0.0,0.0,0.0,0.0,0.0,0.0,0.0,0.0,0.0,0.0,0.0,0.0,0.0,0.0,0.0,0.0,0.0,0.0,0.0,0.0,0.0,0.0,0.0,0.0,0.0,0.0,0.0,0.0,0.0,0.0,0.0,0.0,0.0,0.0,0.0,0.0,0.0,0.0,0.0,0.0,0.0,0.0,0.0,0.0,0.0,0.0,0.0,0.0,0.0,0.0,0.0,0.0,0.0,0.0,0.0,0.0,0.0,0.0,0.0,0.0,0.0,0.0,0.0,0.0,0.0,0.0,0.0,0.0,0.0,0.0,0.0,0.0,0.0,0.0,0.0,0.0,0.0,0.0,0.0,0.0,0.0,0.0,0.0,0.0,0.0,0.0,0.0,0.0,0.0,0.0,0.0,0.0,0.0,0.0,0.0,0.0,0.0,0.0,0.0,0.0,0.0,0.0,0.0,0.0,0.0,0.0,0.0,0.0,0.0,0.0,0.0,0.0,0.0,0.0,0.0,0.0,0.0,0.0,0.0,0.0,0.0,0.0,0.0,0.0,0.0,0.0,0.0,0.0,0.0,0.0,0.0,0.0,0.0,0.0,0.0,0.0,0.0,0.0,0.0,0.0,0.0,0.0,0.0,0.0,0.0,0.0,0.0,0.0,0.0,0.0,0.0,0.0,0.0,0.0,0.0,0.0,0.0,0.0,0.0,0.0,0.0,0.0,0.0,0.0,0.0,0.0,0.0,0.0,0.0,0.0,0.0,0.0,0.0,0.0,0.0,0.0,0.0,0.0,0.0,0.0,0.0,0.0,0.0,0.0,0.0,0.0,0.0,0.0,0.0,0.0,0.0,0.0,0.0,0.0,0.0,0.0,0.0,0.0,0.0,0.0,0.0,0.0,0.0,0.0,0.0,0.0,0.0,0.0,0.0,0.0,0.0,0.0,0.0,0.0,0.0,0.0,0.0,0.0,0.0,0.0,0.0,0.0,0.0,0.0,0.0,0.0,0.0,0.0,0.0,0.0,0.0,0.0,0.0,0.0,0.0,0.0,0.0,0.0,0.0,0.0,0.0,0.0,0.0,0.0,0.0,0.0,0.0,0.0,0.0,0.0,0.0,0.0,0.0,0.0,0.0,0.0,0.0,0.0,0.0,0.0,0.0,0.0,0.0,0.0,0.0,0.0,0.0,0.0,0.0,0.0,0.0,0.0,0.0,0.0,0.0,0.0,0.0,0.0,0.0,0.0,0.0,0.0,0.0,0.0,0.0,0.0,0.0,0.0,0.0,0.0,0.0,0.0,0.0,0.0,0.0,0.0,0.0,0.0,0.0,0.0,0.0,0.0,0.0,0.0,0.0,0.0,0.0,0.0,0.0,0.0,0.0,0.0,0.0,0.0,0.0,0.0,0.0,0.0,0.0,0.0,0.0,0.0,0.0,0.0,0.0,0.0,0.0,0.0,0.0,0.0,0.0,0.0,0.0,0.0,0.0,0.0,0.0,0.0,0.0,0.0,0.0,0.0,0.0,0.0,0.0,0.0,0.0,0.0,0.0,0.0,0.0,0.0,0.0,0.0,0.0,0.0,0.0,0.0,0.0,0.0,0.0,0.0,0.0,0.0,0.0,0.0,0.0,0.0,0.0,0.0,0.0,0.0,0.0,0.0,0.0,0.0,0.0,0.0,0.0,0.0,0.0,0.0,0.0,0.0,0.0,0.0,0.0,0.0,0.0,0.0,0.0,0.0,0.0,0.0,0.0,0.0,0.0,0.0,0.0,0.0,0.0,0.0,0.0,0.0,0.0,0.0,0.0,0.0,0.0,0.0,0.0,0.0,0.0,0.0,0.0,0.0,0.0,0.0,0.0,0.0,0.0,0.0,0.0,0.0,0.0,0.0,0.0,0.0,0.0,0.0,0.0,0.0,0.0,0.0,0.0,0.0,0.0,0.0,0.0,0.0,0.0,0.0,0.0,0.0,0.0,0.0,0.0,0.0,0.0,0.0,0.0,0.0,0.0,0.0,0.0,0.0,0.0,0.0,0.0,0.0,0.0,0.0,0.0,0.0,0.0,0.0,0.0,0.0,0.0,0.0,0.0,0.0,0.0,0.0,0.0,0.0,0.0,0.0,0.0,0.0,0.0,0.0,0.0,0.0,0.0,0.0,0.0,0.0,0.0,0.0,0.0,0.0,0.0,0.0,0.0,0.0,0.0,0.0,0.0,0.0,0.0,0.0,0.0,0.0,0.0,0.0,0.0,0.0,0.0,0.0,0.0,0.0,0.0,0.0,0.0,0.0,0.0,0.0,0.0,0.0,0.0,0.0,0.0,0.0,0.0,0.0,0.0,0.0,0.0,0.0,0.0,0.0,0.0,0.0,0.0,0.0,0.0,0.0,0.0,0.0,0.0,0.0,0.0,0.0,0.0,0.0,0.0,0.0,0.0,0.0,0.0,0.0,0.0,0.0,0.0,0.0,0.0,0.0,0.0,0.0,0.0,0.0,0.0,0.0,0.0,0.0,0.0,0.0,0.0,0.0,0.0,0.0,0.0,0.0,0.0,0.0,0.0,0.0,0.0,0.0,0.0,0.0,0.0,0.0,0.0,0.0,0.0,0.0,0.0,0.0,0.0,0.0,0.0,0.0,0.0,0.0,0.0,0.0,0.0,0.0,0.0,0.0,0.0,0.0,0.0,0.0,0.0,0.0,0.0,0.0,0.0,0.0,0.0,0.0,0.0,0.0,0.0,0.0,0.0,0.0,0.0,0.0,0.0,0.0,0.0,0.0,0.0,0.0,0.0,0.0,0.0,0.0,0.0,0.0,0.0,0.0,0.0,0.0,0.0,0.0,0.0,0.0,0.0,0.0,0.0,0.0,0.0,0.0,0.0,0.0,0.0,0.0,0.0,0.0,0.0,0.0,0.0,0.0,0.0,0.0,0.0,0.0,0.0,0.0,0.0,0.0,0.0,0.0,0.0,0.0,0.0,0.0,0.0,0.0,0.0,0.0,0.0,0.0,0.0,0.0,0.0,0.0,0.0,0.0,0.0,0.0,0.0,0.0,0.0,0.0,-2.796,0.0,0.0,0.0,0.0,0.0,0.0,0.0,0.0,0.0,0.0,0.0,0.0,0.0,0.0,0.0,0.0,0.0,0.0,0.0,0.0,0.0,0.0,0.0,0.0,0.0,0.0,0.0,0.0,0.0,0.0,0.0,0.0,0.0,0.0,0.0,0.0,0.0,0.0,0.0,0.0,0.0,0.0,0.0,0.0,0.0,0.0,0.0,0.0,0.0,0.0,0.0,0.0,0.0,0.0,0.0,0.0,0.0,0.0,0.0,0.0,0.0,0.0,0.0,0.0,0.0,0.0,0.0,0.0,0.0,0.0,0.0,0.0,0.0,0.0,0.0,0.0,0.0,0.0,0.0,0.0,0.0,0.0,0.0,0.0,0.0,0.0,0.0,0.0,0.0,0.0,0.0,0.0,0.0,0.0,0.0,0.0,0.0,0.0,0.0,0.0,0.0,0.0,0.0,0.0,0.0,0.0,0.0,0.0,0.0,0.0,-2.79,-2.7702,-2.7418,-2.7358,-2.7496,0.0,0.0,0.0,0.0,0.0,0.0,0.0,0.0,0.0,0.0,0.0,0.0,0.0,0.0,0.0,0.0,0.0,0.0,0.0,0.0,0.0,0.0,0.0,0.0,0.0,0.0,0.0,0.0,0.0,0.0,0.0,0.0,0.0,0.0,0.0,0.0,0.0,0.0,0.0,0.0,0.0,0.0,0.0,0.0,0.0,0.0,0.0,0.0,0.0,0.0,0.0,0.0,0.0,0.0,0.0,0.0,0.0,0.0,0.0,0.0,0.0,0.0,0.0,0.0,0.0,0.0,0.0,0.0,0.0,0.0,0.0,0.0,0.0,0.0,0.0,0.0,0.0,0.0,0.0,0.0,0.0,0.0,0.0,0.0,0.0,0.0,0.0,0.0,0.0,0.0,0.0,0.0,0.0,0.0,0.0,0.0,0.0,0.0,0.0,0.0,0.0,0.0,0.0,0.0,0.0,0.0,0.0,0.0,0.0,0.0,0.0,0.0,-2.7177,-2.7073,-2.7133,0.0,0.0,0.0,0.0,0.0,0.0,0.0,0.0,0.0,0.0,0.0,0.0,0.0,0.0,0.0,0.0,0.0,0.0,0.0,0.0,0.0,0.0,0.0,0.0,0.0,0.0,0.0,0.0,0.0,0.0,0.0,0.0,0.0,0.0,0.0,0.0,0.0,0.0,0.0,0.0,0.0,0.0,0.0,0.0,0.0,0.0,0.0,0.0,0.0,0.0,0.0,0.0,0.0,0.0,0.0,0.0,0.0,0.0,0.0,0.0,0.0,0.0,0.0,0.0,0.0,0.0,0.0,0.0,0.0,0.0,0.0,0.0,0.0,0.0,0.0,0.0,0.0,0.0,0.0,0.0,0.0,0.0,0.0,0.0,0.0,0.0,0.0,0.0,0.0,0.0,0.0,0.0,0.0,0.0,0.0,0.0,0.0,0.0,0.0,0.0,0.0,0.0,0.0,0.0,0.0,0.0,0.0,0.0,0.0,0.0,-2.734,-2.7133,-2.7133,0.0,-2.7133,0.0,0.0,0.0,0.0,0.0,0.0,0.0,0.0,0.0,0.0,0.0,0.0,0.0,0.0,0.0,0.0,0.0,0.0,0.0,0.0,0.0,0.0,0.0,0.0,0.0,0.0,0.0,0.0,0.0,0.0,0.0,0.0,0.0,0.0,0.0,0.0,0.0,0.0,0.0,0.0,0.0,0.0,0.0,0.0,0.0,0.0,0.0,0.0,0.0,0.0,0.0,0.0,0.0,0.0,0.0,0.0,0.0,0.0,0.0,0.0,0.0,0.0,0.0,0.0,0.0,0.0,0.0,0.0,0.0,0.0,0.0,0.0,0.0,0.0,0.0,0.0,0.0,0.0,0.0,0.0,0.0,0.0,0.0,0.0,0.0,0.0,0.0,0.0,0.0,0.0,0.0,0.0,0.0,0.0,0.0,0.0,0.0,0.0,0.0,0.0,0.0,0.0,0.0,0.0,0.0,0.0,0.0,0.0,0.0,0.0,-2.7116,-2.683,-2.683,-2.683,0.0,0.0,0.0,0.0,0.0,0.0,0.0,0.0,0.0,0.0,0.0,0.0,0.0,0.0,0.0,0.0,0.0,0.0,0.0,0.0,0.0,0.0,0.0,0.0,0.0,0.0,0.0,0.0,0.0,0.0,0.0,0.0,0.0,0.0,0.0,0.0,0.0,0.0,0.0,0.0,0.0,0.0,0.0,0.0,0.0,0.0,0.0,0.0,0.0,0.0,0.0,0.0,0.0,0.0,0.0,0.0,0.0,0.0,0.0,0.0,0.0,0.0,0.0,0.0,0.0,0.0,0.0,0.0,0.0,0.0,0.0,0.0,0.0,0.0,0.0,0.0,0.0,0.0,0.0,0.0,0.0,0.0,0.0,0.0,0.0,0.0,0.0,0.0,0.0,0.0,0.0,0.0,0.0,0.0,0.0,0.0,0.0,0.0,0.0,0.0,0.0,0.0,0.0,0.0,0.0,0.0,0.0,0.0,0.0,0.0,-2.7435,-2.6952,-2.6631,-2.651,-2.651,-2.6631,0.0,0.0,0.0,0.0,0.0,0.0,0.0,0.0,0.0,0.0,0.0,0.0,0.0,0.0,0.0,0.0,0.0,0.0,0.0,0.0,0.0,0.0,0.0,0.0,0.0,0.0,0.0,0.0,0.0,0.0,0.0,0.0,0.0,0.0,0.0,0.0,0.0,0.0,0.0,0.0,0.0,0.0,0.0,0.0,0.0,0.0,0.0,0.0,0.0,0.0,0.0,0.0,0.0,0.0,0.0,0.0,0.0,0.0,0.0,0.0,0.0,0.0,0.0,0.0,0.0,0.0,0.0,0.0,0.0,0.0,0.0,0.0,0.0,0.0,0.0,0.0,0.0,0.0,0.0,0.0,0.0,0.0,0.0,0.0,0.0,0.0,0.0,0.0,0.0,0.0,0.0,0.0,0.0,0.0,0.0,0.0,0.0,0.0,0.0,0.0,0.0,0.0,0.0,0.0,0.0,0.0,0.0,0.0,-2.802,-2.7418,-2.6952,-2.6571,-2.625,-2.6266,0.0,0.0,0.0,0.0,0.0,0.0,0.0,0.0,0.0,0.0,0.0,0.0,0.0,0.0,0.0,0.0,0.0,0.0,0.0,0.0,0.0,0.0,0.0,0.0,0.0,0.0,0.0,0.0,0.0,0.0,0.0,0.0,0.0,0.0,0.0,0.0,0.0,0.0,0.0,0.0,0.0,0.0,0.0,0.0,0.0,0.0,0.0,0.0,0.0,0.0,0.0,0.0,0.0,0.0,0.0,0.0,0.0,0.0,0.0,0.0,0.0,0.0,0.0,0.0,0.0,0.0,0.0,0.0,0.0,0.0,0.0,0.0,0.0,0.0,0.0,0.0,0.0,0.0,0.0,0.0,0.0,0.0,0.0,0.0,0.0,0.0,0.0,0.0,0.0,0.0,0.0,0.0,0.0,0.0,0.0,0.0,0.0,0.0,0.0,0.0,0.0,0.0,0.0,0.0,0.0,0.0,0.0,0.0,0.0,-2.8301,-2.7099,-2.6388,-2.625,-2.5961,-2.5961,0.0,0.0,0.0,0.0,0.0,0.0,0.0,0.0,0.0,0.0,0.0,0.0,0.0,0.0,0.0,0.0,0.0,0.0,0.0,0.0,0.0,0.0,0.0,0.0,0.0,0.0,0.0,0.0,0.0,0.0,0.0,0.0,0.0,0.0,0.0,0.0,0.0,0.0,0.0,0.0,0.0,0.0,0.0,0.0,0.0,0.0,0.0,0.0,0.0,0.0,0.0,0.0,0.0,0.0,0.0,0.0,0.0,0.0,0.0,0.0,0.0,0.0,0.0,0.0,0.0,0.0,0.0,0.0,0.0,0.0,0.0,0.0,0.0,0.0,0.0,0.0,0.0,0.0,0.0,0.0,0.0,0.0,0.0,0.0,0.0,0.0,0.0,0.0,0.0,0.0,0.0,0.0,0.0,0.0,0.0,0.0,0.0,0.0,0.0,0.0,0.0,0.0,0.0,0.0,0.0,0.0,0.0,0.0,0.0,-2.8182,0.0,-2.625,-2.625,-2.5961,-2.5949,0.0,0.0,0.0,0.0,0.0,0.0,0.0,0.0,0.0,0.0,0.0,0.0,0.0,0.0,0.0,0.0,0.0,0.0,0.0,0.0,0.0,0.0,0.0,0.0,0.0,0.0,0.0,0.0,0.0,0.0,0.0,0.0,0.0,0.0,0.0,0.0,0.0,0.0,0.0,0.0,0.0,0.0,0.0,0.0,0.0,0.0,0.0,0.0,0.0,0.0,0.0,0.0,0.0,0.0,0.0,0.0,0.0,0.0,0.0,0.0,0.0,0.0,0.0,0.0,0.0,0.0,0.0,0.0,0.0,0.0,0.0,0.0,0.0,0.0,0.0,0.0,0.0,0.0,0.0,0.0,0.0,0.0,0.0,0.0,0.0,0.0,0.0,0.0,0.0,0.0,0.0,0.0,0.0,0.0,0.0,0.0,0.0,0.0,0.0,0.0,0.0,0.0,0.0,0.0,0.0,0.0,0.0,0.0,-2.8838,-2.7581,-2.6935,-2.6587,-2.6571,-2.6283,-2.6449,0.0,0.0,0.0,0.0,0.0,0.0,0.0,0.0,0.0,0.0,0.0,0.0,0.0,0.0,0.0,0.0,0.0,0.0,0.0,0.0,0.0,0.0,0.0,0.0,0.0,0.0,0.0,0.0,0.0,0.0,0.0,0.0,0.0,0.0,0.0,0.0,0.0,0.0,0.0,0.0,0.0,0.0,0.0,0.0,0.0,0.0,0.0,0.0,0.0,0.0,0.0,0.0,0.0,0.0,0.0,0.0,0.0,0.0,0.0,0.0,0.0,0.0,0.0,0.0,0.0,0.0,0.0,0.0,0.0,0.0,0.0,0.0,0.0,0.0,0.0,0.0,0.0,0.0,0.0,0.0,0.0,0.0,0.0,0.0,0.0,0.0,0.0,0.0,0.0,0.0,0.0,0.0,0.0,0.0,0.0,0.0,0.0,0.0,0.0,0.0,0.0,0.0,0.0,0.0,0.0,0.0,0.0,0.0,0.0,-2.79,-2.7056,-2.6705,-2.6941,-2.6632,-2.6815,0.0,0.0,0.0,0.0,0.0,0.0,0.0,0.0,0.0,0.0,0.0,0.0,0.0,0.0,0.0,0.0,0.0,0.0,0.0,0.0,0.0,0.0,0.0,0.0,0.0,0.0,0.0,0.0,0.0,0.0,0.0,0.0,0.0,0.0,0.0,0.0,0.0,0.0,0.0,0.0,0.0,0.0,0.0,0.0,0.0,0.0,0.0,0.0,0.0,0.0,0.0,0.0,0.0,0.0,0.0,0.0,0.0,0.0,0.0,0.0,0.0,0.0,0.0,0.0,0.0,0.0,0.0,0.0,0.0,0.0,0.0,0.0,0.0,0.0,0.0,0.0,0.0,0.0,0.0,0.0,0.0,0.0,0.0,0.0,0.0,0.0,0.0,0.0,0.0,0.0,0.0,0.0,0.0,0.0,0.0,0.0,0.0,0.0,0.0,0.0,0.0,0.0,0.0,0.0,0.0,0.0,0.0,0.0,0.0,-2.8828,-2.8036,-2.7586,-2.7702,-2.7515,-2.7684,-2.8311,0.0,0.0,0.0,0.0,0.0,0.0,0.0,0.0,0.0,0.0,0.0,0.0,0.0,0.0,0.0,0.0,0.0,0.0,0.0,0.0,0.0,0.0,0.0,0.0,0.0,0.0,0.0,0.0,0.0,0.0,0.0,0.0,0.0,0.0,0.0,0.0,0.0,0.0,0.0,0.0,0.0,0.0,0.0,0.0,0.0,0.0,0.0,0.0,0.0,0.0,0.0,0.0,0.0,0.0,0.0,0.0,0.0,0.0,0.0,0.0,0.0,0.0,0.0,0.0,0.0,0.0,0.0,0.0,0.0,0.0,0.0,0.0,0.0,0.0,0.0,0.0,0.0,0.0,0.0,0.0,0.0,0.0,0.0,0.0,0.0,0.0,0.0,0.0,0.0,0.0,0.0,0.0,0.0,0.0,0.0,0.0,0.0,0.0,0.0,0.0,0.0,0.0,0.0,0.0,0.0,0.0,0.0,0.0,-3.0296,-2.969,-2.9189,-2.8804,-2.8759,-2.8979,0.0,0.0,0.0,0.0,0.0,0.0,0.0,0.0,0.0,0.0,0.0,0.0,0.0,0.0,0.0,0.0,0.0,0.0,0.0,0.0,0.0,0.0,0.0,0.0,0.0,0.0,0.0,0.0,0.0,0.0,0.0,0.0,0.0,0.0,0.0,0.0,0.0,0.0,0.0,0.0,0.0,0.0,0.0,0.0,0.0,0.0,0.0,0.0,0.0,0.0,0.0,0.0,0.0,0.0,0.0,0.0,0.0,0.0,0.0,0.0,0.0,0.0,0.0,0.0,0.0,0.0,0.0,0.0,0.0,0.0,0.0,0.0,0.0,0.0,0.0,0.0,0.0,0.0,0.0,0.0,0.0,0.0,0.0,0.0,0.0,0.0,0.0,0.0,0.0,0.0,0.0,0.0,0.0,0.0,0.0,0.0,0.0,0.0,0.0,0.0,0.0,0.0,0.0,0.0,0.0,0.0,0.0,0.0,0.0,-3.1874,-3.1818,-3.1168,-3.003,-2.9719,-2.9772,0.0,0.0,0.0,0.0,0.0,0.0,0.0,0.0,0.0,0.0,0.0,0.0,0.0,0.0,0.0,0.0,0.0,0.0,0.0,0.0,0.0,0.0,0.0,0.0,0.0,0.0,0.0,0.0,0.0,0.0,0.0,0.0,0.0,0.0,0.0,0.0,0.0,0.0,0.0,0.0,0.0,0.0,0.0,0.0,0.0,0.0,0.0,0.0,0.0,0.0,0.0,0.0,0.0,0.0,0.0,0.0,0.0,0.0,0.0,0.0,0.0,0.0,0.0,0.0,0.0,0.0,0.0,0.0,0.0,0.0,0.0,0.0,0.0,0.0,0.0,0.0,0.0,0.0,0.0,0.0,0.0,0.0,0.0,0.0,0.0,0.0,0.0,0.0,0.0,0.0,0.0,0.0,0.0,0.0,0.0,0.0,0.0,0.0,0.0,0.0,0.0,0.0,0.0,0.0,0.0,0.0,0.0,0.0,-3.2384,-3.2683,-3.2818,-3.2289,-3.1172,-3.0637,-3.0543,0.0,0.0,0.0,0.0,0.0,0.0,0.0,0.0,0.0,0.0,0.0,0.0,0.0,0.0,0.0,0.0,0.0,0.0,0.0,0.0,0.0,0.0,0.0,0.0,0.0,0.0,0.0,0.0,0.0,0.0,0.0,0.0,0.0,0.0,0.0,0.0,0.0,0.0,0.0,0.0,0.0,0.0,0.0,0.0,0.0,0.0,0.0,0.0,0.0,0.0,0.0,0.0,0.0,0.0,0.0,0.0,0.0,0.0,0.0,0.0,0.0,0.0,0.0,0.0,0.0,0.0,0.0,0.0,0.0,0.0,0.0,0.0,0.0,0.0,0.0,0.0,0.0,0.0,0.0,0.0,0.0,0.0,0.0,0.0,0.0,0.0,0.0,0.0,0.0,0.0,0.0,0.0,0.0,0.0,0.0,0.0,0.0,0.0,0.0,0.0,0.0,0.0,0.0,0.0,0.0,0.0,0.0,0.0,-3.2568,-3.3084,-3.32,-3.2961,-3.2274,-3.1545,-3.1234,0.0,0.0,0.0,0.0,0.0,0.0,0.0,0.0,0.0,0.0,0.0,0.0,0.0,0.0,0.0,0.0,0.0,0.0,0.0,0.0,0.0,0.0,0.0,0.0,0.0,0.0,0.0,0.0,0.0,0.0,0.0,0.0,0.0,0.0,0.0,0.0,0.0,0.0,0.0,0.0,0.0,0.0,0.0,0.0,0.0,0.0,0.0,0.0,0.0,0.0,0.0,0.0,0.0,0.0,0.0,0.0,0.0,0.0,0.0,0.0,0.0,0.0,0.0,0.0,0.0,0.0,0.0,0.0,0.0,0.0,0.0,0.0,0.0,0.0,0.0,0.0,0.0,0.0,0.0,0.0,0.0,0.0,0.0,0.0,0.0,0.0,0.0,0.0,0.0,0.0,0.0,0.0,0.0,0.0,0.0,0.0,0.0,0.0,0.0,0.0,0.0,0.0,0.0,0.0,0.0,0.0,0.0,0.0,-3.3264,-3.3764,-3.3743,-3.3626,-3.3515,-3.2465,-3.1566,0.0,0.0,0.0,0.0,0.0,0.0,0.0,0.0,0.0,0.0,0.0,0.0,0.0,0.0,0.0,0.0,0.0,0.0,0.0,0.0,0.0,0.0,0.0,0.0,0.0,0.0,0.0,0.0,0.0,0.0,0.0,0.0,0.0,0.0,0.0,0.0,0.0,0.0,0.0,0.0,0.0,0.0,0.0,0.0,0.0,0.0,0.0,0.0,-3.0058,0.0,0.0,0.0,0.0,0.0,0.0,0.0,0.0,0.0,0.0,0.0,0.0,0.0,0.0,0.0,0.0,0.0,0.0,0.0,0.0,0.0,0.0,0.0,0.0,0.0,0.0,0.0,0.0,0.0,0.0,0.0,0.0,0.0,0.0,0.0,0.0,0.0,0.0,0.0,0.0,0.0,0.0,0.0,0.0,0.0,0.0,0.0,0.0,0.0,0.0,0.0,0.0,0.0,0.0,0.0,0.0,0.0,0.0,0.0,-3.3818,-3.4317,-3.4203,-3.3921,-3.3607,-3.3353,-3.26,0.0,0.0,0.0,0.0,0.0,0.0,0.0,0.0,0.0,0.0,0.0,0.0,0.0,0.0,0.0,0.0,0.0,0.0,0.0,0.0,0.0,0.0,0.0,0.0,0.0,0.0,0.0,0.0,0.0,0.0,0.0,0.0,0.0,0.0,0.0,0.0,0.0,0.0,0.0,0.0,0.0,0.0,0.0,0.0,0.0,0.0,0.0,0.0,0.0,0.0,0.0,0.0,0.0,0.0,0.0,0.0,0.0,0.0,0.0,0.0,0.0,0.0,0.0,0.0,0.0,0.0,0.0,0.0,0.0,0.0,0.0,0.0,0.0,0.0,0.0,0.0,0.0,0.0,0.0,0.0,0.0,0.0,0.0,0.0,0.0,0.0,0.0,0.0,0.0,0.0,0.0,0.0,0.0,0.0,0.0,0.0,0.0,0.0,0.0,0.0,0.0,0.0,0.0,0.0,0.0,0.0,0.0,-3.3997,-3.4154,-3.4604,-3.4463,-3.4032,-3.334,-3.403,-3.3623,-3.2088,0.0,0.0,0.0,0.0,0.0,0.0,0.0,0.0,0.0,0.0,0.0,0.0,0.0,0.0,0.0,0.0,0.0,0.0,0.0,0.0,0.0,0.0,0.0,0.0,0.0,0.0,0.0,0.0,0.0,0.0,0.0,0.0,0.0,0.0,0.0,0.0,0.0,0.0,-2.9628,-2.9929,0.0,0.0,0.0,0.0,0.0,0.0,0.0,0.0,-3.0303,0.0,0.0,0.0,0.0,0.0,0.0,0.0,0.0,0.0,0.0,0.0,0.0,0.0,0.0,0.0,0.0,0.0,0.0,0.0,0.0,0.0,0.0,0.0,0.0,0.0,0.0,0.0,0.0,0.0,0.0,0.0,0.0,0.0,0.0,0.0,0.0,0.0,0.0,0.0,0.0,0.0,0.0,0.0,0.0,0.0,0.0,0.0,0.0,0.0,0.0,0.0,0.0,0.0,0.0,0.0,0.0,-3.3558,-3.3763,-3.3947,-3.4037,-3.4253,-3.4027,-3.3387,-3.3978,-3.3555,-3.2173,0.0,0.0,0.0,0.0,0.0,0.0,0.0,0.0,0.0,0.0,0.0,0.0,0.0,0.0,0.0,0.0,0.0,0.0,0.0,0.0,0.0,0.0,0.0,0.0,0.0,0.0,0.0,0.0,0.0,0.0,0.0,0.0,0.0,0.0,0.0,0.0,0.0,0.0,0.0,-2.9929,-3.0185,0.0,0.0,0.0,0.0,0.0,0.0,0.0,0.0,-3.0201,0.0,0.0,0.0,0.0,0.0,0.0,0.0,0.0,0.0,0.0,0.0,0.0,0.0,0.0,0.0,0.0,0.0,0.0,0.0,0.0,0.0,0.0,0.0,0.0,0.0,0.0,0.0,0.0,0.0,0.0,0.0,0.0,0.0,0.0,0.0,0.0,0.0,0.0,0.0,0.0,0.0,0.0,0.0,0.0,0.0,0.0,0.0,0.0,0.0,0.0,0.0,0.0,0.0,0.0,0.0,-3.4185,-3.4604,-3.4844,-3.4699,-3.5067,-3.4956,-3.4217,-3.4482,-3.414,0.0,0.0,0.0,0.0,0.0,0.0,0.0,0.0,0.0,0.0,0.0,0.0,0.0,0.0,0.0,0.0,0.0,0.0,0.0,0.0,0.0,0.0,0.0,0.0,0.0,0.0,0.0,0.0,0.0,0.0,0.0,0.0,0.0,0.0,0.0,0.0,0.0,0.0,0.0,0.0,-3.0299,-3.0501,-3.0301,0.0,0.0,0.0,0.0,0.0,0.0,-3.0366,-3.0876,0.0,0.0,0.0,0.0,0.0,0.0,0.0,0.0,0.0,0.0,0.0,0.0,0.0,0.0,0.0,0.0,0.0,0.0,0.0,0.0,0.0,0.0,0.0,0.0,0.0,0.0,0.0,0.0,0.0,0.0,0.0,0.0,0.0,0.0,0.0,0.0,0.0,0.0,0.0,0.0,0.0,0.0,0.0,0.0,0.0,0.0,0.0,0.0,0.0,0.0,0.0,0.0,0.0,0.0,0.0,-3.4922,-3.5456,-3.563,-3.5403,-3.5883,-3.5722,-3.4883,-3.4828,-3.4588,0.0,0.0,0.0,0.0,0.0,0.0,0.0,0.0,0.0,0.0,0.0,0.0,0.0,0.0,0.0,0.0,0.0,0.0,0.0,0.0,0.0,0.0,0.0,0.0,0.0,0.0,0.0,0.0,0.0,0.0,0.0,0.0,0.0,0.0,0.0,0.0,0.0,0.0,0.0,0.0,0.0,-3.0861,-3.0483,-3.041,0.0,0.0,0.0,0.0,-3.052,-3.1114,0.0,0.0,0.0,0.0,0.0,0.0,0.0,0.0,0.0,0.0,0.0,0.0,0.0,0.0,0.0,0.0,0.0,0.0,0.0,0.0,0.0,0.0,0.0,0.0,0.0,0.0,0.0,0.0,0.0,0.0,0.0,0.0,0.0,0.0,0.0,0.0,0.0,0.0,0.0,0.0,0.0,0.0,0.0,0.0,0.0,0.0,0.0,0.0,0.0,0.0,0.0,0.0,0.0,0.0,0.0,0.0,-3.4922,-3.5477,-3.5574,-3.5315,-3.5789,-3.559,-3.4418,-3.4408,-3.4033,0.0,0.0,0.0,0.0,0.0,0.0,0.0,0.0,0.0,0.0,0.0,0.0,0.0,0.0,0.0,0.0,0.0,0.0,0.0,0.0,0.0,0.0,0.0,0.0,0.0,0.0,0.0,0.0,0.0,0.0,0.0,0.0,0.0,0.0,0.0,0.0,0.0,0.0,0.0,0.0,0.0,-3.1193,-3.0861,-3.0807,-3.0707,0.0,0.0,-3.0211,-3.1216,-3.1529,0.0,0.0,0.0,0.0,0.0,0.0,0.0,0.0,0.0,0.0,0.0,0.0,0.0,0.0,0.0,0.0,0.0,0.0,0.0,0.0,0.0,0.0,0.0,0.0,0.0,0.0,0.0,0.0,0.0,0.0,0.0,0.0,0.0,0.0,0.0,0.0,0.0,0.0,0.0,0.0,0.0,0.0,0.0,0.0,0.0,0.0,0.0,0.0,0.0,0.0,0.0,0.0,0.0,0.0,0.0,-3.4987,-3.4922,-3.5872,-3.6016,-3.5391,-3.6211,-3.6044,-3.4604,-3.4374,-3.4108,0.0,0.0,0.0,0.0,0.0,0.0,0.0,0.0,0.0,0.0,0.0,0.0,0.0,0.0,0.0,0.0,0.0,0.0,0.0,0.0,0.0,0.0,0.0,0.0,0.0,0.0,0.0,0.0,0.0,0.0,0.0,0.0,0.0,0.0,0.0,0.0,0.0,0.0,0.0,0.0,0.0,0.0,-3.1276,-3.1601,0.0,0.0,0.0,-3.1598,-3.2098,0.0,0.0,0.0,0.0,0.0,0.0,0.0,0.0,0.0,0.0,0.0,0.0,0.0,0.0,0.0,0.0,0.0,0.0,0.0,0.0,0.0,0.0,0.0,0.0,0.0,0.0,0.0,0.0,0.0,0.0,0.0,0.0,0.0,0.0,0.0,0.0,0.0,0.0,0.0,0.0,0.0,0.0,0.0,0.0,0.0,0.0,0.0,0.0,0.0,0.0,0.0,0.0,0.0,0.0,0.0,0.0,0.0,-3.5374,-3.6275,-3.6385,-3.5795,-3.6697,-3.6474,-3.5123,-3.4478,0.0,0.0,0.0,0.0,0.0,0.0,0.0,0.0,0.0,0.0,0.0,0.0,0.0,0.0,0.0,0.0,0.0,0.0,0.0,0.0,0.0,0.0,0.0,0.0,0.0,0.0,0.0,-3.0806,0.0,0.0,0.0,0.0,0.0,0.0,0.0,0.0,0.0,0.0,0.0,0.0,0.0,0.0,-3.2375,-3.2084,-3.258,-3.2806,0.0,0.0,-3.2867,-3.2965,-3.3087,-3.2941,0.0,0.0,0.0,0.0,0.0,0.0,0.0,0.0,0.0,0.0,0.0,0.0,0.0,0.0,0.0,0.0,0.0,0.0,0.0,0.0,0.0,0.0,0.0,0.0,0.0,0.0,0.0,0.0,0.0,0.0,0.0,0.0,0.0,0.0,0.0,0.0,0.0,0.0,0.0,0.0,0.0,0.0,0.0,0.0,0.0,0.0,0.0,0.0,0.0,0.0,0.0,0.0,0.0,0.0,0.0,-3.6618,-3.6306,-3.6439,-3.6978,-3.7031,-3.6696,-3.5818,-3.479,-3.4296,0.0,0.0,0.0,0.0,0.0,0.0,0.0,0.0,0.0,0.0,0.0,0.0,0.0,0.0,0.0,0.0,0.0,0.0,0.0,0.0,0.0,0.0,0.0,0.0,0.0,0.0,0.0,0.0,0.0,0.0,0.0,0.0,0.0,0.0,0.0,0.0,0.0,0.0,0.0,0.0,0.0,-3.3594,-3.3662,-3.3692,-3.3839,0.0,0.0,-3.3368,-3.3747,-3.4108,-3.3803,-3.2259,0.0,0.0,0.0,0.0,0.0,0.0,0.0,0.0,0.0,0.0,0.0,0.0,0.0,0.0,0.0,0.0,0.0,0.0,0.0,0.0,0.0,0.0,0.0,0.0,0.0,0.0,0.0,0.0,0.0,0.0,0.0,0.0,0.0,0.0,0.0,0.0,0.0,0.0,0.0,0.0,0.0,0.0,0.0,0.0,0.0,0.0,0.0,0.0,0.0,0.0,0.0,0.0,0.0,-3.567,-3.6666,-3.6558,-3.667,-3.6968,-3.7273,-3.6936,-3.5836,-3.5395,-3.4978,0.0,0.0,0.0,0.0,0.0,0.0,0.0,0.0,0.0,0.0,0.0,0.0,0.0,0.0,0.0,0.0,0.0,0.0,0.0,0.0,0.0,0.0,0.0,0.0,0.0,0.0,0.0,0.0,-3.0178,-2.9969,-2.9676,0.0,0.0,0.0,0.0,0.0,0.0,0.0,0.0,0.0,0.0,-3.4383,-3.4196,-3.4826,0.0,0.0,-3.5138,-3.503,-3.4966,-3.4623,-3.4025,-3.2934,-3.2011,0.0,0.0,0.0,0.0,0.0,0.0,0.0,0.0,0.0,0.0,0.0,0.0,0.0,0.0,0.0,0.0,0.0,0.0,0.0,0.0,0.0,0.0,0.0,0.0,0.0,0.0,0.0,0.0,0.0,0.0,0.0,0.0,0.0,0.0,0.0,0.0,0.0,0.0,0.0,0.0,0.0,0.0,0.0,0.0,0.0,0.0,0.0,0.0,0.0,0.0,0.0,0.0,-3.6131,-3.6939,-3.6831,-3.6965,-3.7258,-3.7519,-3.7177,-3.637,-3.5977,-3.5534,0.0,0.0,0.0,0.0,0.0,0.0,0.0,0.0,0.0,0.0,0.0,0.0,0.0,0.0,0.0,0.0,0.0,0.0,0.0,0.0,0.0,0.0,0.0,0.0,0.0,0.0,0.0,0.0,-3.0316,-3.0039,-2.9568,0.0,0.0,0.0,0.0,0.0,0.0,0.0,0.0,0.0,0.0,-3.5047,-3.4954,-3.5463,-3.5807,-3.5635,-3.5612,-3.55,-3.5157,-3.4603,-3.3959,-3.2973,0.0,0.0,0.0,0.0,0.0,0.0,0.0,0.0,0.0,0.0,0.0,0.0,0.0,0.0,0.0,0.0,0.0,0.0,0.0,0.0,0.0,0.0,0.0,0.0,0.0,0.0,0.0,0.0,0.0,0.0,-3.777,0.0,0.0,0.0,0.0,0.0,0.0,0.0,0.0,0.0,0.0,0.0,0.0,0.0,0.0,0.0,0.0,0.0,0.0,0.0,0.0,0.0,0.0,-3.6423,-3.7742,-3.7125,-3.7239,-3.8129,-3.7837,-3.7595,-3.7534,-3.6411,-3.5945,-3.6207,0.0,0.0,0.0,0.0,0.0,0.0,0.0,0.0,0.0,0.0,0.0,0.0,0.0,0.0,0.0,0.0,0.0,0.0,0.0,0.0,0.0,0.0,0.0,0.0,0.0,0.0,-3.0898,-3.0294,-2.9823,0.0,0.0,0.0,0.0,0.0,0.0,0.0,0.0,0.0,0.0,-3.4931,-3.5624,-3.5939,-3.5476,-3.5205,-3.5507,-3.4944,-3.4275,-3.3908,-3.3817,-3.3413,0.0,0.0,0.0,0.0,0.0,0.0,0.0,0.0,0.0,0.0,0.0,0.0,0.0,0.0,0.0,0.0,0.0,0.0,0.0,0.0,0.0,0.0,0.0,0.0,0.0,0.0,0.0,-3.9604,-3.9838,0.0,0.0,0.0,0.0,0.0,0.0,0.0,0.0,0.0,0.0,0.0,-4.1078,-4.1138,0.0,0.0,0.0,0.0,0.0,0.0,0.0,0.0,0.0,0.0,0.0,0.0,-3.6597,-3.7403,-3.7061,-3.726,-3.815,-3.8037,-3.7826,-3.7518,-3.6855,-3.6259,-3.5726,0.0,0.0,0.0,0.0,0.0,0.0,0.0,0.0,0.0,0.0,0.0,0.0,0.0,0.0,0.0,0.0,0.0,0.0,0.0,0.0,0.0,0.0,0.0,0.0,0.0,-3.1958,0.0,0.0,0.0,0.0,0.0,0.0,0.0,0.0,0.0,0.0,0.0,-3.3921,-3.4508,-3.5124,-3.5505,-3.542,-3.5406,-3.5374,0.0,0.0,0.0,0.0,0.0,0.0,0.0,0.0,0.0,0.0,0.0,0.0,0.0,0.0,-2.9739,-2.849,-2.7997,-2.7641,-2.7355,0.0,0.0,0.0,0.0,0.0,0.0,0.0,0.0,0.0,0.0,0.0,0.0,0.0,0.0,-4.0858,0.0,-4.0305,0.0,0.0,0.0,0.0,0.0,0.0,0.0,0.0,-4.0884,-4.1228,-4.1956,-4.1956,-4.2076,0.0,-4.1835,-4.0908,0.0,0.0,0.0,0.0,0.0,0.0,0.0,0.0,-3.7043,-3.7296,-3.7309,-3.757,-3.815,-3.8191,-3.8046,-3.7736,-3.7136,-3.637,-3.5459,-3.5418,-3.5293,0.0,0.0,0.0,0.0,0.0,0.0,0.0,0.0,0.0,0.0,0.0,0.0,0.0,0.0,0.0,0.0,0.0,0.0,0.0,0.0,0.0,0.0,0.0,-3.227,0.0,0.0,0.0,0.0,0.0,0.0,0.0,0.0,0.0,-3.3417,-3.3966,-3.4483,-3.4758,-3.4882,-3.4865,-3.4775,0.0,0.0,0.0,0.0,0.0,0.0,0.0,-3.304,-3.2691,-3.2386,-3.2228,-3.2217,-3.2327,-3.1939,-3.0411,0.0,0.0,-2.8476,-2.79,-2.7533,-2.735,-2.727,-2.7247,-2.7247,-2.7229,-2.7191,0.0,0.0,0.0,0.0,0.0,0.0,0.0,0.0,-4.1835,-4.1576,0.0,-4.1576,0.0,0.0,0.0,0.0,0.0,-3.9983,0.0,0.0,-4.1532,-4.1737,-4.2352,-4.2328,-4.2328,-4.2268,-4.1663,-4.0898,-4.0135,-4.0028,0.0,0.0,0.0,0.0,0.0,0.0,-3.7636,-3.7253,-3.785,-3.8171,-3.8191,-3.8191,-3.8171,-3.8088,-3.726,-3.637,-3.548,-3.5397,-3.5418,-3.5376,-3.5376,0.0,0.0,0.0,0.0,0.0,0.0,0.0,0.0,0.0,0.0,0.0,0.0,0.0,0.0,0.0,0.0,0.0,0.0,0.0,0.0,-3.237,0.0,0.0,0.0,0.0,0.0,0.0,0.0,0.0,0.0,0.0,-3.418,-3.4533,-3.4787,-3.4787,0.0,0.0,0.0,0.0,-3.3413,-3.3762,-3.3835,-3.3707,-3.3303,-3.3248,-3.3101,-3.2735,0.0,0.0,-3.1719,-3.1886,-3.1669,-3.002,-2.9547,-2.9153,-2.8728,-2.7978,-2.7563,-2.7509,-2.7507,-2.7555,-2.7585,-2.747,-2.7507,-4.1851,0.0,0.0,0.0,0.0,-4.2265,-4.2563,-4.2766,-4.2925,-4.2951,-4.2747,-4.2352,0.0,0.0,0.0,0.0,0.0,0.0,-4.17,-4.2705,-4.2644,-4.3017,-4.3706,-4.2871,-4.2565,-4.2584,-4.1614,-4.0638,-3.9667,-3.9312,-3.8736,-3.7878,0.0,0.0,0.0,0.0,-3.6771,-3.6497,-3.7283,-3.786,-3.8191,-3.8191,-3.786,-3.7218,-3.6949,-3.637,-3.5459,-3.5807,-3.5865,-3.5558,-3.5537,0.0,0.0,0.0,0.0,0.0,0.0,0.0,0.0,0.0,0.0,0.0,0.0,0.0,0.0,0.0,0.0,0.0,0.0,0.0,-3.3686,-3.2863,-3.2444,0.0,0.0,0.0,0.0,0.0,0.0,0.0,0.0,0.0,-3.5008,-3.5191,-3.5092,0.0,0.0,-3.4171,-3.4006,-3.4033,-3.4,-3.3835,-3.4055,0.0,-3.3707,-3.3651,-3.3707,-3.3853,-3.389,-3.3502,-3.2539,-3.2666,-3.228,-3.0151,-2.9688,-2.9305,-2.81,-2.7372,-2.6888,-2.6904,-2.7027,-2.7199,-2.7156,-2.7497,-2.782,-4.318,-4.1777,-4.2164,-4.2591,-4.2962,-4.3602,-4.3989,-4.418,-4.4429,-4.4227,-4.378,-4.3562,-4.3057,-4.246,-4.216,0.0,0.0,0.0,-4.279,-4.3559,-4.3559,-4.3631,-4.3555,-4.2938,-4.2444,-4.2097,-4.1108,-4.0278,-3.9515,-3.8977,-3.8393,-3.7841,0.0,0.0,-3.6112,-3.6582,-3.6791,-3.668,-3.7384,-3.7902,-3.8171,-3.8005,-3.7632,-3.7094,-3.6722,-3.6266,-3.5728,-3.585,-3.5806,-3.5539,-3.5518,-3.5537,0.0,0.0,0.0,0.0,0.0,0.0,0.0,0.0,0.0,0.0,0.0,-3.4424,-3.459,0.0,0.0,0.0,-3.3888,-3.3853,-3.4043,-3.3578,0.0,0.0,0.0,0.0,0.0,0.0,0.0,-3.457,-3.4862,-3.5171,-3.5368,-3.5527,-3.5344,-3.4944,-3.4585,-3.439,-3.4275,0.0,-3.4202,-3.4275,-3.4348,-3.4312,-3.4092,-3.4055,-3.4073,-3.4147,-3.3884,-3.3389,-3.2472,-3.2351,-3.1657,-2.9952,-2.9335,-2.8997,-2.7789,-2.711,-2.6769,-2.6784,-2.707,-2.7349,-2.7364,-2.7876,-2.833,-4.4478,-4.4512,-4.4832,-4.4865,-4.4833,-4.511,-4.5462,-4.591,-4.5958,-4.5429,-4.4477,-4.4933,-4.4371,-4.2952,-4.2651,0.0,-4.3174,-4.3198,-4.3559,-4.4285,-4.4175,-4.3602,-4.2597,-4.238,-4.1908,-4.0977,-4.0215,-3.9706,-3.9388,-3.8659,-3.8145,-3.7742,-3.6809,-3.6452,-3.6624,-3.7065,-3.7376,-3.7425,-3.7922,-3.8191,-3.8171,-3.7736,-3.7488,-3.7488,-3.6596,-3.612,-3.6101,-3.5707,-3.548,-3.5418,-3.5438,-3.5478,-3.5616,0.0,0.0,0.0,0.0,0.0,0.0,0.0,0.0,0.0,0.0,0.0,0.0,0.0,0.0,0.0,-3.3764,0.0,-3.416,-3.4492,0.0,0.0,0.0,-3.4687,-3.4687,-3.4766,-3.4961,-3.5324,0.0,0.0,-3.5565,-3.5556,-3.5603,-3.5622,-3.5018,-3.4587,-3.4972,-3.4403,-3.4165,-3.488,-3.4626,-3.4458,-3.4458,-3.4369,-3.4189,-3.379,-3.3175,-3.2421,-3.1566,-3.1215,-3.0288,-2.8716,-2.8562,-2.8395,-2.757,-2.7218,-2.6998,-2.6954,-2.7452,-2.7801,-2.7876,-2.83,-2.8681,-4.7021,-4.6946,-4.7012,-4.652,-4.5638,-4.611,-4.6175,-4.5982,-4.6367,-4.615,-4.551,-4.5694,-4.5309,-4.4563,-4.4439,-4.4295,-4.4031,-4.4031,-4.4103,-4.4261,-4.3422,-4.2918,-4.2692,-4.0933,-4.0037,-3.9995,-3.9002,-3.8504,-3.8492,-3.7626,-3.7353,-3.752,-3.6665,-3.6311,-3.6583,-3.7186,-3.7283,-3.697,-3.7777,-3.8191,-3.8171,-3.7736,-3.7488,-3.7488,-3.6999,-3.6503,-3.6163,-3.6167,-3.5953,-3.5556,-3.5631,-3.5662,-3.5699,-3.5359,0.0,0.0,0.0,0.0,0.0,0.0,0.0,0.0,0.0,-3.4943,-3.5046,0.0,-3.4173,0.0,-3.4064,-3.429,-3.5,-3.4665,0.0,0.0,-3.4687,-3.4687,-3.4707,-3.5293,-3.5607,-3.5433,-3.5762,-3.602,-3.6005,-3.5775,-3.5741,-3.6018,-3.5664,-3.5256,-3.5009,-3.5076,-3.5145,-3.4972,-3.472,-3.4575,-3.47,-3.4647,-3.4126,-3.3127,-3.2772,-3.2049,-3.0206,-3.007,-2.9574,-2.7891,-2.7666,-2.7602,-2.7203,-2.7027,-2.7013,-2.7013,-2.732,-2.7583,-2.7598,-2.7905,-2.8107,-4.7596,-4.7686,-4.7686,-4.7226,-4.659,-4.6592,-4.6502,-4.6394,-4.6681,-4.6645,-4.6271,-4.603,-4.5501,-4.4765,-4.4957,-4.4789,-4.4309,-4.4285,-4.4285,-4.4261,-4.3094,-4.2382,-4.1988,-4.015,-3.9209,-3.8935,-3.8266,-3.8065,-3.8129,-3.7674,-3.755,-3.7777,-3.7301,-3.7097,-3.7311,-3.7408,-3.7467,-3.7425,-3.7769,-3.7904,-3.795,-3.7267,-3.6955,-3.6987,-3.6371,-3.5901,-3.5679,-3.5561,-3.5352,-3.5078,-3.509,-3.5184,-3.5171,-3.4963,-3.4886,0.0,0.0,0.0,0.0,0.0,0.0,0.0,0.0,0.0,0.0,0.0,-3.4433,-3.4305,-3.4245,-3.4448,-3.5065,-3.4931,-3.4892,-3.5226,-3.5159,-3.5084,-3.5278,-3.5587,-3.5824,-3.5998,-3.6152,-3.63,-3.6421,-3.611,-3.6036,-3.6405,-3.6402,-3.6195,-3.5668,-3.5775,-3.5645,-3.5139,-3.4776,-3.4361,-3.4073,-3.3678,-3.3177,-3.2399,-3.1796,-3.099,-2.9642,-2.9007,-2.8294,-2.7342,-2.7357,-2.7542,-2.7318,-2.7673,-2.7954,-2.7776,-2.7792,-2.7674,-2.7555,-2.773,-2.7874,-4.7258,-4.7455,-4.7455,-4.7383,-4.7202,-4.6579,-4.656,-4.7055,-4.7055,-4.6968,-4.6776,-4.6247,-4.5477,-4.4525,-4.4981,-4.4774,-4.4223,-4.4099,-4.4037,-4.3989,-4.2785,-4.1768,-4.0874,-3.9689,-3.8721,-3.8028,-3.8049,-3.8062,-3.8171,-3.8129,-3.8129,-3.8171,-3.8129,-3.8129,-3.8171,-3.7777,-3.7777,-3.8171,-3.7837,-3.7616,-3.7616,-3.6734,-3.6359,-3.6334,-3.5419,-3.4997,-3.5067,-3.4662,-3.4421,-3.436,-3.4481,-3.4575,-3.4635,-3.4612,-3.4632,0.0,-3.4992,0.0,0.0,0.0,0.0,0.0,0.0,0.0,0.0,-3.5077,-3.4858,-3.4324,-3.427,-3.4431,-3.4777,-3.519,-3.5577,-3.5889,-3.5684,-3.5651,-3.6054,-3.587,-3.5982,-3.6648,-3.6471,-3.6421,-3.659,-3.6442,-3.6367,-3.6645,-3.6921,-3.6827,-3.6294,-3.6164,-3.6014,-3.5138,-3.4631,-3.3893,-3.2787,-3.2271,-3.1953,-3.1432,-3.0672,-2.977,-2.922,-2.8167,-2.7205,-2.7125,-2.738,-2.7625,-2.767,-2.8414,-2.8864,-2.8532,-2.822,-2.791,-2.7689,-2.7746,-2.7876,-4.726,-4.7098,-4.7098,-4.6661,-4.5927,-4.5794,-4.6362,-4.7364,-4.7431,-4.7383,-4.7305,-4.68,-4.6223,-4.5582,-4.5422,-4.4793,-4.3826,-4.3051,-4.2673,-4.2587,-4.0882,-4.0032,-3.9909,-3.8787,-3.8201,-3.8179,-3.8134,-3.8175,-3.8171,-3.7798,-3.7819,-3.815,-3.7819,-3.7819,-3.8171,0.0,0.0,0.0,-3.7837,-3.7616,-3.7595,-3.6821,-3.638,-3.6395,-3.5636,0.0,-3.5107,-3.4752,-3.4489,-3.4401,-3.4788,0.0,0.0,0.0,0.0,0.0,0.0,0.0,0.0,0.0,0.0,0.0,-3.5898,-3.5639,-3.5196,-3.4668,-3.4487,-3.4681,-3.4461,-3.4429,-3.4838,-3.4933,-3.5192,-3.5515,-3.5534,-3.5654,-3.6072,-3.6342,-3.65,-3.6324,-3.6568,-3.6571,-3.6331,-3.6275,-3.6201,-3.6312,-3.6679,-3.6565,-3.5797,-3.6216,-3.6066,-3.483,-3.3965,-3.2966,-3.1517,-3.1571,-3.1287,-3.0513,-3.0069,-2.9424,-2.8381,-2.8048,-2.7644,-2.7154,-2.7261,-2.7763,-2.8283,-2.8327,-2.837,-2.8221,-2.7922,-2.773,-2.7925,-2.7748,-2.7569,-4.7364,0.0,-4.7232,-4.6955,0.0,-4.6561,-4.6902,-4.7497,-4.7035,-4.6771,-4.6728,-4.6704,-4.6126,-4.5101,-4.5238,-4.484,-4.4013,-4.2919,-4.2504,-4.2437,-4.0382,-3.9494,-3.9692,-3.8546,-3.8065,-3.8171,-3.8191,-3.8191,-3.8171,-3.7943,-3.7964,-3.8191,-3.7943,-3.7943,-3.8171,-3.8191,-3.8191,-3.8191,-3.7636,-3.7348,-3.7327,-3.6769,-3.6116,-3.5567,-3.5349,0.0,0.0,0.0,0.0,0.0,0.0,0.0,0.0,0.0,0.0,-3.5933,-3.5559,-3.5764,-3.6708,-3.6261,-3.5949,-3.6248,-3.6091,-3.5807,-3.5371,-3.4902,-3.4575,-3.4599,-3.4652,-3.4627,-3.4646,-3.4815,-3.5092,-3.542,-3.5317,-3.5416,-3.5777,-3.6045,-3.6124,-3.5961,-3.6257,-3.6423,-3.6201,-3.6201,-3.6201,-3.6183,-3.62,-3.5994,-3.5263,-3.5696,-3.5643,-3.4089,-3.3031,-3.223,-3.1476,-3.1004,-3.0844,-3.0163,-2.9663,-2.907,-2.832,-2.7855,-2.7464,-2.7335,-2.7674,-2.8207,-2.8476,-2.8729,-2.8832,-2.8694,-2.8339,-2.8087,-2.8073,-2.7763,-2.7525,-4.7497,-4.7497,-4.7497,-4.7449,-4.7353,-4.7353,-4.7377,-4.7329,0.0,0.0,0.0,-4.6415,-4.575,-4.4477,-4.4861,-4.4726,-4.4137,-4.2879,-4.2319,-4.2351,-4.0126,-3.9215,-3.9364,-3.85,-3.8082,-3.8171,-3.8191,-3.8191,-3.8191,-3.8191,-3.8191,-3.8191,-3.8191,-3.8191,-3.8191,-3.8125,-3.8104,-3.8191,-3.7569,-3.7146,-3.7079,-3.6569,-3.5838,-3.4824,-3.5008,-3.4792,-3.4199,-3.4512,-3.4687,-3.4707,-3.4785,-3.4824,-3.4824,-3.4902,-3.5176,-3.5684,-3.5586,-3.5918,-3.6797,-3.6348,-3.6172,-3.6523,-3.6162,-3.5811,-3.5538,-3.5204,-3.4897,-3.4551,-3.478,-3.4766,-3.445,-3.4692,-3.5074,-3.5341,-3.5149,-3.5194,-3.5624,-3.5667,-3.565,-3.5742,-3.6017,-3.6164,-3.6091,-3.6091,-3.6036,-3.5887,-3.563,-3.5138,-3.4481,-3.4788,-3.4866,-3.3742,-3.2895,-3.203,-3.1529,-3.1121,-3.0616,-3.0425,-2.9633,-2.8903,-2.8636,-2.7969,-2.7497,-2.7659,-2.8267,-2.8535,-2.8697,-2.9041,-2.9325,-2.9047,-2.8773,-2.8372,-2.8074,-2.7748,-2.7553,-4.7497,-4.7497,-4.7497,-4.7233,-4.6824,-4.6824,-4.6824,-4.6824,-4.6686,-4.6614,-4.6583,-4.6199,-4.5606,-4.4981,-4.4777,-4.4365,-4.3764,-4.1884,-4.1075,-4.1013,-3.9213,-3.8378,-3.8437,-3.8262,-3.8196,-3.8191,-3.8191,-3.8191,-3.8191,-3.8191,-3.8191,-3.8191,-3.8191,-3.8191,-3.8191,-3.7837,-3.7837,-3.8171,-3.775,-3.7415,-3.7079,-3.637,-3.5732,-3.5293,-3.4988,-3.4753,-3.4629,-3.4687,-3.4687,-3.4707,-3.5078,-3.5293,-3.5312,-3.5625,-3.6191,-3.6914,-3.6348,-3.6465,-3.7617,-3.668,-3.6055,-3.6094,-3.5782,-3.5538,-3.5489,-3.5451,-3.5312,-3.4962,-3.4685,-3.4456,-3.44,-3.4474,-3.4729,-3.5023,-3.5007,-3.5301,-3.5944,-3.5834,-3.5742,-3.6017,-3.6164,-3.6054,-3.5724,-3.5632,-3.5413,-3.4866,-3.4665,-3.4266,-3.3697,-3.3822,-3.4069,-3.3839,-3.367,-3.3145,-3.2238,-3.1645,-3.1203,-3.0924,-3.0107,-2.939,-2.9122,-2.8777,-2.8505,-2.8357,-2.8459,-2.858,-2.8897,-2.8565,-2.8429,-2.8323,-2.8162,-2.7955,-2.7674,-2.7478,-2.7459,-4.7497,-4.7497,-4.7497,-4.7377,-4.7136,-4.7136,-4.7136,-4.7112,-4.6824,-4.6535,-4.6271,-4.603,-4.5477,-4.4669,-4.452,-4.3977,-4.3153,-4.1638,-4.0704,-4.0149,-3.8758,-3.834,-3.8702,-3.8769,-3.8769,-3.8769,-3.8769,-3.857,-3.8258,-3.8191,-3.8191,-3.8191,-3.8191,-3.8067,-3.7839,-3.7914,-3.7914,-3.7819,-3.7693,-3.7415,-3.7079,-3.6743,-3.6209,-3.541,-3.5391,-3.5293,-3.5078,-3.5293,-3.541,-3.543,-3.5605,-3.5742,-3.5742,-3.5918,-3.6289,-3.6894,-3.6367,-3.6387,-3.7187,-3.6484,-3.6035,-3.6016,-3.5879,-3.5675,-3.5489,-3.537,-3.5271,-3.5284,-3.5132,-3.4972,-3.477,-3.4935,-3.5137,-3.532,-3.5174,-3.5265,-3.5742,-3.5742,-3.5687,-3.5852,-3.5668,-3.5539,-3.5358,-3.4993,-3.4486,-3.3965,-3.3643,-3.334,-3.3031,-3.3489,-3.3804,-3.3609,-3.3346,-3.314,-3.2733,-3.2002,-3.1462,-3.1264,-3.0366,-2.973,-2.9534,-2.9196,-2.8815,-2.8983,-2.8845,-2.8743,-2.8822,-2.8417,-2.8014,-2.7819,-2.7806,-2.7615,-2.7305,-2.7187,-2.72,-4.7425,-4.7329,-4.7449,-4.7497,-4.7497,-4.7497,-4.7449,-4.7281,-4.6896,-4.6343,-4.579,-4.5742,-4.5213,-4.4333,-4.4099,-4.3553,-4.2667,-4.1375,-4.0401,-3.9649,-3.8587,-3.8366,-3.8925,-3.8967,-3.8946,-3.8967,-3.8967,-3.8702,-3.8237,-3.8191,-3.8191,-3.8191,-3.8191,-3.8005,-3.7674,-3.8005,-3.7964,-3.755,-3.7591,-3.7415,-3.7079,-3.7011,-3.6515,-3.5653,-3.584,-3.5859,-3.5586,-3.584,-3.6035,-3.6035,-3.6035,-3.6035,-3.6035,-3.6035,-3.6211,-3.6582,-3.6269,-3.6172,-3.6465,-3.6211,-3.6035,-3.6035,-3.6035,-3.5957,-3.5896,-3.5559,-3.544,-3.5563,-3.5482,-3.5357,-3.521,-3.5302,-3.5485,-3.5467,-3.5229,-3.521,-3.554,-3.5541,-3.5522,-3.5485,-3.5247,-3.4954,-3.4792,-3.4251,-3.3624,-3.3232,-3.2911,-3.276,-3.2904,-3.3431,-3.3673,-3.3483,-3.3184,-3.3194,-3.3297,-3.26,-3.1929,-3.1593,-3.0698,-3.0115,-2.9837,-2.913,-2.881,-2.9145,-2.8951,-2.8639,-2.8402,-2.8,-2.7747,-2.7613,-2.7482,-2.7261,-2.6779,-2.6721,-2.6779,-4.7233,-4.6896,-4.7305,-4.7497,-4.7497,-4.7497,-4.7233,-4.6824,-4.6728,-4.6126,-4.5221,-4.5149,-4.4837,-4.4209,-4.3365,-4.2902,-4.2587,-4.0753,-3.9801,-3.9583,-3.866,-3.8217,-3.8391,-3.8304,-3.8304,-3.8304,-3.8391,-3.837,-3.8191,-3.8191,-3.8191,-3.8191,-3.8191,-3.8171,-3.8129,-3.8171,-3.7964,-3.7508,-3.7524,-3.7415,-3.7079,-3.6722,-3.6384,-3.5976,-3.5996,-3.5996,-3.5937,-3.5996,-3.6035,-3.6035,-3.6035,-3.6035,-3.6035,-3.6035,-3.6211,-3.6601,-3.625,-3.6055,-3.6094,-3.6035,-3.6035,-3.6035,-3.6035,-3.6328,-3.6961,-3.6746,-3.6237,-3.5762,-3.5279,-3.5247,-3.5504,-3.5284,-3.5137,-3.5137,-3.4992,-3.5192,-3.5467,-3.5248,-3.5154,-3.5589,-3.4987,-3.4535,-3.4359,-3.3767,-3.3232,-3.2857,-3.2829,-3.2887,-3.3157,-3.3552,-3.3792,-3.3827,-3.3995,-3.3995,-3.3744,-3.3348,-3.2538,-3.1977,-3.1194,-3.0408,-2.9726,-2.9245,-2.8953,-2.9085,-2.8591,-2.8205,-2.7925,-2.7555,-2.7247,-2.7364,-2.7174,-2.6881,-2.6137,-2.604,-2.6156,-4.7185,-4.6776,-4.7281,-4.7497,-4.7473,-4.7161,-4.692,-4.668,-4.6054,-4.5525,-4.5077,-4.4741,-4.4477,-4.4223,-4.324,-4.246,-4.1824,-4.0344,-3.9386,-3.8814,-3.8391,-3.837,-3.8769,-3.8769,-3.8835,-3.8769,-3.8769,-3.857,-3.8258,-3.8191,-3.8191,-3.8191,-3.8191,-3.8191,-3.8171,-3.7971,-3.7734,-3.757,-3.7112,-3.6856,-3.6742,-3.6586,-3.6336,-3.6016,-3.6035,-3.6035,-3.6035,-3.6035,-3.6035,-3.6035,-3.6035,-3.6035,-3.6035,-3.6035,-3.6094,-3.6269,-3.6133,-3.6035,-3.6035,-3.6035,-3.6035,-3.6035,-3.6035,-3.6289,-3.6855,-3.6565,-3.624,-3.601,-3.5805,-3.5593,-3.5284,-3.5119,-3.5027,-3.4955,-3.4811,-3.483,-3.5193,-3.4881,-3.4803,-3.5124,-3.4622,-3.4067,-3.3691,-3.3086,-3.2676,-3.2722,-3.2848,-3.3083,-3.3272,-3.3597,-3.382,-3.3837,-3.3912,-3.3988,-3.3761,-3.2985,-3.2375,-3.1686,-3.0763,-2.9834,-2.9601,-2.9134,-2.8997,-2.9252,-2.8571,-2.811,-2.7982,-2.7644,-2.7305,-2.7247,-2.6954,-2.6605,-2.6196,-2.5997,-2.594,-4.7185,-4.68,-4.6968,-4.7064,-4.704,-4.6655,-4.6415,-4.6199,-4.539,-4.5005,-4.4813,-4.4453,-4.4223,-4.4013,-4.3114,-4.2079,-4.1142,-4.004,-3.9078,-3.8258,-3.8191,-3.8458,-3.8901,-3.8901,-3.8967,-3.8967,-3.8901,-3.8636,-3.8258,-3.8191,-3.8191,-3.8191,-3.8191,-3.8191,-3.8191,-3.7837,-3.7554,-3.7386,-3.6796,-3.6479,-3.638,-3.6324,-3.6268,-3.6016,-3.6035,-3.6035,-3.6035,-3.6035,-3.6016,-3.6152,-3.6084,-3.6016,-3.6132,-3.6016,-3.6035,-3.6035,-3.6035,-3.6035,-3.6035,-3.6035,-3.6035,-3.6035,-3.6035,-3.6123,-3.6424,-3.6244,-3.601,-3.5854,-3.5837,-3.5587,-3.5154,-3.4792,-3.4755,-3.4793,-3.4523,-3.4468,-3.4736,-3.4584,-3.4574,-3.49,-3.4295,-3.3601,-3.3189,-3.2777,-3.2667,-3.2883,-3.3083,-3.334,-3.3426,-3.3665,-3.3837,-3.3837,-3.3837,-3.3837,-3.3685,-3.2985,-3.2069,-3.1302,-3.0454,-2.9679,-2.9446,-2.9056,-2.8798,-2.8869,-2.852,-2.8177,-2.7737,-2.7461,-2.7127,-2.6823,-2.6532,-2.6243,-2.5797,-2.5683,-2.5349,-4.7185,-4.668,-4.6199,-4.599,-4.6006,-4.6006,-4.5694,-4.5245,-4.5077,-4.4789,-4.4381,-4.4247,-4.4075,-4.374,-4.2736,-4.1783,-4.0777,-3.9735,-3.8901,-3.8258,-3.8191,-3.8191,-3.8258,-3.8258,-3.8258,-3.8325,-3.837,-3.8258,-3.8191,-3.8191,-3.8191,-3.8191,-3.8191,-3.8191,-3.8125,-3.777,-3.7412,-3.7014,-3.6609,-3.6293,-3.6016,-3.6043,-3.6084,-3.6016,-3.6035,-3.6035,-3.6035,-3.6035,-3.6152,-3.6451,-3.6152,-3.6132,-3.6384,-3.6219,-3.6035,-3.6035,-3.6035,-3.6035,-3.6035,-3.6035,-3.6035,-3.6016,-3.5967,-3.6054,-3.6186,-3.6105,-3.5775,-3.5163,-3.5168,-3.5086,-3.4899,-3.4412,-3.4143,-3.4361,-3.4089,-3.414,-3.4386,-3.4461,-3.4597,-3.4769,-3.4091,-3.3363,-3.2872,-3.3064,-3.312,-3.3283,-3.3272,-3.3409,-3.3683,-3.3802,-3.3837,-3.3837,-3.3837,-3.3761,-3.3685,-3.2833,-3.2146,-3.1379,-3.0454,-2.9756,-2.9275,-2.8856,-2.8725,-2.8501,-2.8125,-2.7798,-2.7416,-2.704,-2.6609,-2.6312,-2.6099,-2.5798,-2.5452,-2.4773,-2.4525,-4.668,-4.6199,-4.6006,-4.5934,-4.5934,-4.5934,-4.5621,-4.5116,-4.4717,-4.4328,-4.3974,-4.3553,-4.3365,-4.3451,-4.2189,-4.1357,-4.0712,-3.967,-3.8835,-3.8258,-3.8191,-3.8191,-3.8191,-3.8191,-3.8191,-3.8191,-3.8191,-3.8191,-3.8191,-3.8191,-3.8191,-3.8191,-3.8191,-3.8191,-3.8104,-3.7569,-3.7199,-3.7011,-3.6479,-3.6073,-3.6003,-3.6189,-3.62,-3.6016,-3.6035,-3.6035,-3.6035,-3.6035,-3.6152,-3.6451,-3.6132,-3.6152,-3.6451,-3.62,-3.6035,-3.6035,-3.6035,-3.6035,-3.6035,-3.6035,-3.6035,-3.6035,-3.5811,-3.58,-3.6008,-3.5896,-3.5546,-3.5107,-3.4967,-3.4848,-3.4337,-3.3981,-3.3821,-3.3732,-3.3797,-3.3986,-3.4327,-3.4421,-3.4591,-3.4786,-3.425,-3.3604,-3.3409,-3.3349,-3.3369,-3.3546,-3.3631,-3.37,-3.3785,-3.3837,-3.3761,-3.3837,-3.3837,-3.3685,-3.3441,-3.2452,-3.1609,-3.0917,-3.0206,-2.9508,-2.8964,-2.8886,-2.8783,-2.8589,-2.8091,-2.7631,-2.7354,-2.6851,-2.6436,-2.6194,-2.5984,-2.5396,-2.5074,-2.4597,-2.449,-4.615,-4.5718,-4.5669,-4.5573,-4.5429,-4.5429,-4.5149,-4.4789,-4.4367,-4.3888,-4.3428,-4.2862,-4.2736,-4.2587,-4.1583,-4.0902,-4.056,-3.9735,-3.9012,-3.837,-3.8237,-3.8191,-3.8191,-3.8191,-3.8191,-3.8191,-3.8191,-3.8191,-3.8191,-3.8191,-3.8191,-3.8191,-3.8191,-3.8191,-3.8125,-3.7569,-3.7213,-3.7031,-3.6629,-3.6308,-3.6142,-3.6631,-3.668,-3.6278,-3.6425,-3.6425,-3.6219,-3.6405,-3.661,-3.6646,-3.6474,-3.6357,-3.6287,-3.6152,-3.6035,-3.6035,-3.6035,-3.6035,-3.6055,-3.6133,-3.6162,-3.6044,-3.5954,-3.592,-3.5826,-3.5527,-3.5266,-3.4896,-3.4826,-3.4563,-3.416,-3.4001,-3.3857,-3.355,-3.3534,-3.3844,-3.432,-3.4284,-3.4336,-3.4531,-3.4425,-3.4136,-3.3809,-3.3598,-3.3638,-3.382,-3.3837,-3.3837,-3.3837,-3.3685,-3.3685,-3.3761,-3.3685,-3.3365,-3.3061,-3.2299,-3.1533,-3.0824,-3.0067,-2.9368,-2.8886,-2.8886,-2.8827,-2.8632,-2.8226,-2.775,-2.7179,-2.6752,-2.6467,-2.6194,-2.5679,-2.5008,-2.4819,-2.4589,-2.4507,-4.5534,-4.5101,-4.5077,-4.4837,-4.4477,-4.4501,-4.4357,-4.4333,-4.4037,-4.3553,-4.3051,-4.2546,-4.2293,-4.1843,-4.1144,-4.0484,-4.0387,-3.9844,-3.9188,-3.8636,-3.8304,-3.8191,-3.8191,-3.8191,-3.8191,-3.8191,-3.8191,-3.8191,-3.8191,-3.8191,-3.8191,-3.8191,-3.8233,-3.8274,-3.8212,-3.7872,-3.7496,-3.7219,-3.7112,-3.6769,-3.626,-3.7174,-3.7421,-3.6757,-3.7337,-3.7445,-3.6686,-3.7277,-3.7413,-3.7152,-3.71,-3.6818,-3.6142,-3.6016,-3.6035,-3.6035,-3.6035,-3.6035,-3.6074,-3.6387,-3.6394,-3.6205,-3.6412,-3.6023,-3.5304,-3.5037,-3.4826,-3.4544,-3.4529,-3.4445,-3.4469,-3.4412,-3.4168,-3.3831,-3.3569,-3.3702,-3.4169,-3.4122,-3.385,-3.4057,-3.4461,-3.4606,-3.4057,-3.3788,-3.3802,-3.3871,-3.3871,-3.3837,-3.3761,-3.3517,-3.3441,-3.3592,-3.3517,-3.3213,-3.2757,-3.2222,-3.1593,-3.0901,-3.0067,-2.9368,-2.8978,-2.8886,-2.8739,-2.8545,-2.8081,-2.753,-2.6749,-2.628,-2.6171,-2.5887,-2.5229,-2.4833,-2.4757,-2.4666,-2.4501,-4.5068,-4.4597,-4.4933,-4.4765,-4.4357,-4.4669,-4.4645,-4.4309,-4.4161,-4.3888,-4.3428,-4.2902,-4.2839,-4.2713,-4.1497,-4.0944,-4.1142,-3.9975,-3.9012,-3.8437,-3.8237,-3.8191,-3.8191,-3.8191,-3.8191,-3.8191,-3.8191,-3.8191,-3.8191,-3.8191,-3.8191,-3.8233,-3.8502,-3.8626,-3.86,-3.8528,-3.8295,-3.767,-3.732,-3.6976,-3.6622,-3.7341,-3.7688,-3.7629,-3.8422,-3.8677,-3.828,-3.7609,-3.7516,-3.7841,-3.7157,-3.6474,-3.6123,-3.6035,-3.6035,-3.6035,-3.6035,-3.6035,-3.6006,-3.6131,-3.6263,-3.6054,-3.5749,-3.5379,-3.5074,-3.4793,-3.4581,-3.4458,-3.466,-3.4847,-3.4775,-3.4571,-3.4309,-3.394,-3.3719,-3.3966,-3.4614,-3.4857,-3.4896,-3.4658,-3.4579,-3.4458,-3.4243,-3.4008,-3.3922,-3.4094,-3.3991,-3.3837,-3.3761,-3.3441,-3.3365,-3.3685,-3.3365,-3.3044,-3.2664,-3.2283,-3.1747,-3.0901,-2.9989,-2.9368,-2.9056,-2.8715,-2.8569,-2.8318,-2.7841,-2.7278,-2.6486,-2.5982,-2.5876,-2.5607,-2.5066,-2.4893,-2.4961,-2.4769,-2.4563,-4.4597,-4.4333,-4.4645,-4.4597,-4.4333,-4.4645,-4.4597,-4.4309,-4.4161,-4.3888,-4.3365,-4.2862,-4.2862,-4.2753,-4.1219,-4.0793,-4.1206,-3.9757,-3.8702,-3.8237,-3.8191,-3.8191,-3.8191,-3.8191,-3.8191,-3.8191,-3.8191,-3.8191,-3.8191,-3.8191,-3.8253,-3.846,-3.8564,-3.8792,-3.8972,-3.8863,-3.8478,-3.8004,-3.7798,-3.747,-3.7232,-3.7818,-3.8236,-3.8247,-3.882,-3.9082,-3.8883,-3.8004,-3.7705,-3.7854,-3.6981,-3.6219,-3.6016,-3.6035,-3.6035,-3.6035,-3.6016,-3.5947,-3.5869,-3.6147,-3.6099,-3.5762,-3.568,-3.5417,-3.5126,-3.4805,-3.4862,-3.4899,-3.51,-3.5267,-3.5375,-3.4949,-3.4578,-3.4596,-3.4192,-3.4273,-3.4799,-3.5231,-3.5157,-3.4707,-3.4423,-3.4336,-3.4118,-3.4042,-3.3922,-3.4094,-3.3991,-3.3837,-3.3761,-3.3441,-3.3517,-3.3592,-3.3365,-3.3044,-3.2664,-3.2283,-3.1977,-3.0994,-2.9912,-2.9446,-2.8978,-2.8417,-2.8097,-2.7813,-2.7382,-2.7213,-2.6447,-2.6032,-2.5755,-2.5253,-2.4983,-2.4823,-2.4777,-2.4663,-2.4516,-4.4285,-4.4285,-4.4285,-4.4309,-4.4285,-4.4333,-4.4333,-4.4285,-4.4013,-4.3553,-4.3051,-4.258,-4.2437,-4.1988,-4.0631,-4.0164,-4.0431,-3.9514,-3.8737,-3.8424,-3.8378,-3.8378,-3.8316,-3.8233,-3.8191,-3.8191,-3.8191,-3.8191,-3.8191,-3.8191,-3.8398,-3.8662,-3.8523,-3.8709,-3.9302,-3.8753,-3.8491,-3.8447,-3.8456,-3.8082,-3.7434,-3.8436,-3.8889,-3.8547,-3.8807,-3.8986,-3.9096,-3.8506,-3.801,-3.767,-3.6728,-3.6162,-3.6035,-3.6035,-3.6035,-3.6094,-3.6074,-3.5947,-3.5789,-3.6195,-3.6199,-3.5496,-3.5973,-3.6256,-3.5282,-3.5284,-3.5449,-3.5485,-3.5595,-3.5797,-3.5868,-3.5402,-3.5103,-3.5288,-3.4782,-3.4499,-3.4516,-3.51,-3.495,-3.4273,-3.4139,-3.4249,-3.3939,-3.3829,-3.3812,-3.3864,-3.3829,-3.3685,-3.3761,-3.3517,-3.3441,-3.3441,-3.3365,-3.2909,-3.2435,-3.2146,-3.1686,-3.0747,-2.9756,-2.9227,-2.8793,-2.814,-2.7678,-2.7409,-2.7106,-2.689,-2.6523,-2.5965,-2.5744,-2.5527,-2.5181,-2.4777,-2.4676,-2.4764,-2.4697,-4.4285,-4.4285,-4.4285,-4.4285,-4.4285,-4.4285,-4.4285,-4.4285,-4.4199,-4.4013,-4.3692,-4.2903,-4.2638,-4.2769,-4.0819,-4.0274,-4.0432,-3.972,-3.9213,-3.9144,-3.9185,-3.8978,-3.8647,-3.8336,-3.8191,-3.8191,-3.8191,-3.8191,-3.8191,-3.8212,-3.844,-3.8765,-3.8724,-3.9144,-3.9798,-3.947,-3.914,-3.894,-3.8919,-3.8553,-3.8027,-3.8635,-3.9171,-3.9403,-3.9332,-3.9692,-4.0129,-3.9093,-3.8037,-3.7368,-3.7072,-3.6583,-3.6094,-3.6074,-3.6211,-3.6376,-3.6208,-3.6205,-3.6323,-3.6337,-3.6152,-3.5917,-3.585,-3.5742,-3.5522,-3.5559,-3.5614,-3.5669,-3.5852,-3.6072,-3.6034,-3.553,-3.5007,-3.4724,-3.4724,-3.4782,-3.4799,-3.4724,-3.4591,-3.429,-3.4064,-3.4015,-3.4059,-3.3763,-3.3619,-3.3924,-3.3763,-3.3517,-3.3609,-3.3592,-3.3441,-3.3365,-3.3213,-3.2681,-3.2222,-3.184,-3.1302,-3.0361,-2.9538,-2.8944,-2.8388,-2.7834,-2.7459,-2.7242,-2.6987,-2.6735,-2.6246,-2.578,-2.5705,-2.5739,-2.5419,-2.5046,-2.5283,-2.5425,-2.51,-4.4285,-4.4285,-4.4285,-4.4285,-4.4285,-4.4285,-4.4285,-4.4285,-4.4285,-4.4017,-4.3531,-4.2938,-4.2506,-4.2177,-4.0602,-4.0104,-4.056,-3.9855,-3.9473,-3.9433,-3.922,-3.8993,-3.8771,-3.8398,-3.8191,-3.8191,-3.8191,-3.8191,-3.8233,-3.8357,-3.8709,-3.9013,-3.9075,-3.955,-4.0336,-3.9718,-3.9455,-3.9526,-3.9352,-3.8923,-3.8759,-3.908,-3.9526,-3.9779,-3.9597,-3.9523,-3.9371,-3.8526,-3.7726,-3.7385,-3.7123,-3.6809,-3.6582,-3.6543,-3.661,-3.6705,-3.636,-3.6138,-3.6129,-3.589,-3.5696,-3.5719,-3.5577,-3.5614,-3.565,-3.5742,-3.587,-3.5907,-3.6091,-3.6182,-3.6126,-3.5605,-3.5007,-3.4574,-3.4574,-3.4724,-3.4724,-3.4516,-3.4365,-3.4139,-3.4005,-3.3905,-3.4145,-3.3559,-3.3576,-3.3797,-3.3542,-3.3551,-3.3685,-3.3517,-3.3365,-3.3213,-3.2985,-3.2452,-3.1856,-3.1411,-3.1043,-3.0187,-2.9355,-2.8741,-2.8224,-2.7611,-2.7227,-2.6987,-2.6836,-2.663,-2.6175,-2.5895,-2.5886,-2.5783,-2.5458,-2.5452,-2.5629,-2.5711,-2.5323,-4.4285,-4.4285,-4.4285,-4.4285,-4.4285,-4.4285,-4.4223,-4.4137,-4.4041,-4.3469,-4.2621,-4.238,-4.1807,-4.1063,-4.0182,-3.991,-4.0507,-4.0004,-3.9716,-3.9516,-3.9137,-3.8807,-3.8745,-3.8398,-3.8212,-3.8212,-3.8212,-3.8295,-3.8419,-3.873,-3.9096,-3.9406,-3.9558,-4.0013,-4.048,-3.979,-3.9617,-3.9973,-3.9674,-3.9438,-3.9522,-3.9586,-3.9841,-3.9912,-3.9525,-3.8714,-3.8134,-3.7568,-3.7479,-3.7585,-3.6966,-3.6808,-3.707,-3.7187,-3.7015,-3.6695,-3.6342,-3.5971,-3.5635,-3.5399,-3.5111,-3.5247,-3.5504,-3.5669,-3.5779,-3.5981,-3.6127,-3.6127,-3.6201,-3.6126,-3.5903,-3.568,-3.5082,-3.4516,-3.429,-3.4365,-3.4365,-3.4365,-3.4215,-3.3837,-3.3837,-3.3837,-3.3685,-3.3441,-3.3289,-3.3542,-3.3323,-3.323,-3.3365,-3.3441,-3.3137,-3.2892,-3.2528,-3.2069,-3.1472,-3.0887,-3.0528,-2.9987,-2.9268,-2.8608,-2.8197,-2.7632,-2.7148,-2.68,-2.6797,-2.6594,-2.6313,-2.6141,-2.6074,-2.5913,-2.5769,-2.563,-2.5594,-2.554,-2.5337,-4.4285,-4.4285,-4.4285,-4.4285,-4.4285,-4.4285,-4.3974,-4.3467,-4.3127,-4.2544,-4.1715,-4.0897,-4.0796,-4.1178,-4.0105,-4.0163,-4.0852,-4.0577,-4.0403,-3.993,-3.9185,-3.8807,-3.8683,-3.8398,-3.8233,-3.8274,-3.8564,-3.8688,-3.8812,-3.9164,-3.955,-3.9972,-3.9827,-3.9992,-4.0625,-4.0085,-3.9719,-4.0157,-4.0094,-3.9878,-3.9858,-3.9993,-4.0024,-3.9849,-3.9597,-3.8876,-3.8033,-3.7995,-3.7877,-3.7302,-3.6681,-3.6396,-3.6836,-3.6914,-3.686,-3.6701,-3.6379,-3.5958,-3.5647,-3.5502,-3.5431,-3.5521,-3.576,-3.6091,-3.6072,-3.6127,-3.6201,-3.6201,-3.6201,-3.5978,-3.5456,-3.5231,-3.4799,-3.429,-3.4022,-3.4005,-3.3912,-3.3988,-3.3912,-3.3837,-3.3837,-3.3837,-3.3761,-3.3137,-3.3061,-3.3213,-3.3061,-3.2833,-3.2909,-3.3137,-3.2866,-3.2441,-3.1936,-3.1538,-3.1074,-3.0589,-3.0344,-3.0017,-2.937,-2.8835,-2.842,-2.7771,-2.7311,-2.7015,-2.6787,-2.6666,-2.6569,-2.6211,-2.6155,-2.6034,-2.6017,-2.5886,-2.5778,-2.5634,-2.5377,-4.3921,-4.4285,-4.4285,-4.4099,-4.3826,-4.3826,-4.331,-4.2576,-4.2257,-4.1468,-4.0569,-3.9978,-4.0052,-4.0188,-3.9757,-3.9936,-4.0552,-4.0585,-4.0139,-3.962,-3.9185,-3.8889,-3.8605,-3.8543,-3.8502,-3.8564,-3.8889,-3.9075,-3.922,-3.955,-3.9902,-4.0241,-4.0137,-4.0427,-4.08,-4.0258,-4.0228,-4.0463,-4.0382,-4.0238,-4.0289,-4.0453,-4.0238,-3.9718,-3.9435,-3.8788,-3.7608,-3.7888,-3.7639,-3.6996,-3.6396,-3.6483,-3.7059,-3.7125,-3.7035,-3.6895,-3.6096,-3.5859,-3.5741,-3.543,-3.5266,-3.5849,-3.5906,-3.5998,-3.6146,-3.6201,-3.6201,-3.6201,-3.6126,-3.5903,-3.5381,-3.5082,-3.4724,-3.4249,-3.4067,-3.4025,-3.3888,-3.3837,-3.3837,-3.3837,-3.3837,-3.3685,-3.3365,-3.2959,-3.2544,-3.2637,-3.2528,-3.2299,-3.2069,-3.2239,-3.2139,-3.1818,-3.1323,-3.0965,-3.0551,-3.0336,-3.029,-2.9976,-2.9616,-2.9263,-2.8938,-2.8246,-2.7541,-2.7392,-2.7243,-2.7187,-2.71,-2.6738,-2.6445,-2.6418,-2.6429,-2.6165,-2.5872,-2.5536,-2.5321,-4.3631,-4.4347,-4.4347,-4.3888,-4.3389,-4.3302,-4.2606,-4.1565,-4.1433,-4.0536,-3.9282,-3.9596,-3.9633,-3.9281,-3.954,-3.976,-4.0098,-4.0097,-3.9771,-3.9061,-3.9274,-3.8922,-3.8569,-3.8771,-3.8993,-3.8972,-3.9344,-3.962,-3.9765,-4.0054,-4.0282,-4.0323,-4.053,-4.0613,-4.0646,-4.0494,-4.0402,-4.0719,-4.0596,-4.0525,-4.074,-4.079,-4.0462,-3.9688,-3.902,-3.8407,-3.7669,-3.7649,-3.7549,-3.6886,-3.6596,-3.7003,-3.7443,-3.7344,-3.7139,-3.7007,-3.5834,-3.5569,-3.5632,-3.5248,-3.512,-3.6053,-3.5944,-3.5907,-3.6127,-3.6201,-3.6201,-3.6201,-3.6126,-3.6052,-3.5605,-3.5231,-3.4857,-3.4476,-3.4357,-3.4145,-3.4008,-3.3922,-3.3939,-3.3778,-3.3881,-3.3873,-3.3381,-3.2846,-3.2413,-3.1981,-3.1872,-3.1686,-3.1533,-3.1474,-3.1478,-3.1246,-3.0853,-3.0782,-3.045,-3.0379,-3.0263,-3.0173,-2.9862,-2.9626,-2.9324,-2.8767,-2.8139,-2.7906,-2.7714,-2.7641,-2.7513,-2.7162,-2.7001,-2.6963,-2.6643,-2.6243,-2.5909,-2.5487,-2.5211,-4.3817,-4.4717,-4.4409,-4.3888,-4.3326,-4.3326,-4.2269,-4.0937,-4.072,-3.9806,-3.8561,-3.9201,-3.9597,-3.9713,-4.0388,-4.0574,-4.0308,-4.0014,-3.9516,-3.8948,-3.914,-3.8937,-3.8611,-3.9247,-3.9592,-3.955,-3.9757,-4.0034,-4.0158,-4.053,-4.051,-4.0323,-4.0344,-4.0386,-4.0406,-4.0294,-4.0389,-4.0675,-4.0708,-4.0749,-4.08,-4.0708,-4.0451,-3.9555,-3.8696,-3.7977,-3.7818,-3.7718,-3.7617,-3.7336,-3.7871,-3.7955,-3.7617,-3.6636,-3.6152,-3.6093,-3.5818,-3.5515,-3.5413,-3.5449,-3.5431,-3.5683,-3.5886,-3.6091,-3.6182,-3.6201,-3.6201,-3.6201,-3.6201,-3.6052,-3.5605,-3.5267,-3.4892,-3.4476,-3.4236,-3.4128,-3.4265,-3.4316,-3.4213,-3.4076,-3.4103,-3.3941,-3.3259,-3.2516,-3.1927,-3.1445,-3.1196,-3.0856,-3.0531,-3.0717,-3.0948,-3.0724,-3.0415,-3.0474,-3.0447,-3.041,-3.0431,-3.0504,-3.0258,-2.9977,-2.9703,-2.9252,-2.8811,-2.8161,-2.7873,-2.772,-2.7606,-2.749,-2.713,-2.6799,-2.6571,-2.6239,-2.5788,-2.5237,-2.501,-4.4144,-4.4717,-4.4261,-4.3576,-4.2799,-4.2443,-4.1448,-4.0174,-3.9781,-3.9239,-3.8791,-3.8991,-3.9493,-3.9931,-4.0189,-4.0262,-3.999,-3.9791,-3.9315,-3.8921,-3.8958,-3.8953,-3.8585,-3.9447,-3.9827,-3.993,-4.0116,-4.022,-4.0261,-4.0655,-4.0572,-4.0386,-4.0406,-4.0448,-4.0282,-4.0191,-4.0199,-4.0303,-4.0448,-4.0572,-4.048,-4.0409,-3.995,-3.9409,-3.8644,-3.7986,-3.7808,-3.8045,-3.7972,-3.7695,-3.7792,-3.7706,-3.7168,-3.6485,-3.5849,-3.6281,-3.5896,-3.5645,-3.5577,-3.5632,-3.565,-3.5905,-3.6126,-3.6201,-3.6201,-3.6201,-3.6201,-3.6201,-3.6201,-3.6126,-3.5903,-3.556,-3.5233,-3.5035,-3.4786,-3.4702,-3.4727,-3.4847,-3.471,-3.4393,-3.4031,-3.3642,-3.2867,-3.2197,-3.1371,-3.0856,-3.0469,-3.0112,-2.9616,-3.0043,-3.0502,-3.05,-3.0387,-3.0491,-3.0534,-3.0534,-3.0437,-3.051,-3.0525,-3.0243,-2.9809,-2.93,-2.8621,-2.7904,-2.7727,-2.7786,-2.7633,-2.7509,-2.7065,-2.6671,-2.6153,-2.568,-2.5353,-2.5077,-2.4863,-4.4366,-4.4656,-4.4075,-4.313,-4.1965,-4.1392,-4.0548,-3.9533,-3.9143,-3.8947,-3.8797,-3.9015,-3.9494,-3.9845,-3.9883,-3.9717,-3.947,-3.9559,-3.9386,-3.9034,-3.9229,-3.9191,-3.9075,-3.9537,-3.9992,-4.0137,-4.0179,-4.0199,-4.0261,-4.053,-4.0386,-4.0096,-4.0344,-4.0386,-3.9972,-3.9951,-3.9785,-3.993,-4.0116,-4.0323,-4.01,-3.9918,-3.9511,-3.9288,-3.8734,-3.8176,-3.7808,-3.8065,-3.8216,-3.8027,-3.7745,-3.7436,-3.6998,-3.6372,-3.6359,-3.6936,-3.6158,-3.5906,-3.5962,-3.5962,-3.5925,-3.6108,-3.6201,-3.6201,-3.6201,-3.6201,-3.6201,-3.6201,-3.6201,-3.6218,-3.6103,-3.5793,-3.561,-3.5533,-3.5435,-3.5326,-3.5189,-3.5224,-3.5326,-3.4874,-3.4113,-3.3329,-3.2581,-3.2282,-3.1543,-3.023,-2.9829,-2.9766,-2.9483,-2.9765,-3.0171,-3.0344,-3.046,-3.0695,-3.07,-3.0568,-3.0495,-3.0407,-3.0378,-3.0209,-2.9688,-2.9186,-2.8602,-2.8179,-2.8025,-2.8002,-2.7812,-2.7347,-2.6892,-2.6328,-2.5669,-2.5281,-2.5192,-2.497,-2.4669,-4.4312,-4.4299,-4.3927,-4.2669,-4.0941,-4.0729,-3.9996,-3.9075,-3.9253,-3.9209,-3.8947,-3.9624,-3.9649,-3.9433,-3.967,-3.9711,-3.9796,-3.992,-3.9823,-3.9462,-3.9866,-3.9869,-3.962,-4.0365,-4.0303,-4.0241,-4.0199,-4.0199,-4.0116,-4.0199,-3.9847,-3.9302,-3.9488,-3.9468,-3.9392,-3.953,-3.9785,-4.0096,-4.053,-4.0593,-4.0323,-4.01,-3.9556,-3.8889,-3.8454,-3.8287,-3.7917,-3.8039,-3.8105,-3.8345,-3.8132,-3.7932,-3.7786,-3.7473,-3.7068,-3.6736,-3.6164,-3.5815,-3.6109,-3.6109,-3.6072,-3.6182,-3.6201,-3.6201,-3.6201,-3.6126,-3.6052,-3.6201,-3.6126,-3.6142,-3.6077,-3.5879,-3.5651,-3.5589,-3.5435,-3.544,-3.5395,-3.5515,-3.5635,-3.5071,-3.4186,-3.3208,-3.2316,-3.2142,-3.1778,-3.0333,-2.9228,-2.9242,-2.933,-2.9689,-3.0182,-3.0446,-3.0466,-3.0656,-3.0803,-3.07,-3.0539,-3.0378,-3.0364,-3.0165,-2.9477,-2.8991,-2.91,-2.8745,-2.841,-2.7824,-2.7281,-2.6829,-2.662,-2.6081,-2.5445,-2.5227,-2.5166,-2.4877,-2.4502,-4.3474,-4.3251,-4.2568,-4.1616,-4.0594,-3.9907,-3.9286,-3.8925,-3.9034,-3.9187,-3.9274,-3.9624,-3.9671,-3.9541,-3.9823,-3.9929,-3.988,-4.0049,-4.0015,-3.9752,-4.0007,-4.0007,-3.9972,-4.0282,-4.0344,-4.0241,-3.9951,-3.953,-3.962,-3.964,-3.9385,-3.8951,-3.922,-3.9468,-3.9096,-3.9344,-3.955,-3.9889,-4.0241,-4.053,-4.051,-4.0323,-3.9803,-3.9085,-3.8878,-3.8537,-3.8232,-3.7994,-3.8069,-3.8228,-3.7862,-3.7568,-3.7329,-3.7107,-3.6886,-3.6497,-3.6146,-3.6036,-3.6182,-3.6201,-3.6201,-3.6201,-3.6201,-3.6201,-3.6126,-3.5847,-3.5847,-3.6201,-3.5754,-3.5746,-3.6048,-3.6052,-3.5987,-3.58,-3.5553,-3.5646,-3.572,-3.5789,-3.5697,-3.5033,-3.4208,-3.2938,-3.1825,-3.1161,-3.077,-2.9852,-2.9242,-2.9389,-2.9492,-2.9697,-3.0181,-3.0671,-3.0627,-3.0568,-3.0715,-3.0759,-3.0583,-3.0466,-3.0598,-3.0214,-2.9191,-2.8816,-2.891,-2.84,-2.7444,-2.6932,-2.6658,-2.6452,-2.6232,-2.5731,-2.5248,-2.5085,-2.4997,-2.4749,-2.4414,-4.2497,-4.1908,-4.1348,-4.0671,-3.9922,-3.8982,-3.8728,-3.8753,-3.8775,-3.9187,-3.9668,-3.9843,-3.991,-3.9996,-4.0082,-4.0014,-3.9854,-3.993,-4.0024,-3.9956,-3.9993,-4.0096,-4.0323,-4.0448,-4.0386,-4.0199,-3.9806,-3.9323,-3.9034,-3.9019,-3.8957,-3.8641,-3.8993,-3.9199,-3.9302,-3.9426,-3.9661,-4.0075,-4.0344,-4.053,-4.0593,-4.0489,-3.9959,-3.9484,-3.9212,-3.8977,-3.8386,-3.8122,-3.799,-3.7936,-3.7476,-3.7107,-3.696,-3.6738,-3.659,-3.6275,-3.6146,-3.6164,-3.6201,-3.6201,-3.6201,-3.6201,-3.6126,-3.6126,-3.5772,-3.536,-3.4985,-3.5492,-3.5477,-3.5486,-3.5734,-3.5797,-3.5887,-3.5822,-3.5777,-3.5931,-3.5982,-3.5702,-3.5291,-3.4545,-3.3578,-3.2316,-3.1179,-3.0091,-2.9518,-2.9125,-2.9134,-2.9412,-2.9661,-2.9866,-3.0246,-3.0803,-3.0744,-3.0627,-3.07,-3.0744,-3.0583,-3.0525,-3.0573,-3.0161,-2.9067,-2.8707,-2.8802,-2.7941,-2.6867,-2.6785,-2.7006,-2.6416,-2.5846,-2.5572,-2.5273,-2.4909,-2.4714,-2.4507,-2.4193,-4.1529,-4.0237,-4.0846,-4.0038,-3.8393,-3.816,-3.8401,-3.8707,-3.8709,-3.9318,-4.017,-4.0387,-4.0583,-4.0626,-4.0229,-3.9967,-3.971,-3.9986,-4.0051,-4.0243,-4.0514,-4.0622,-4.0634,-4.0572,-4.0448,-4.0075,-3.964,-3.9137,-3.8874,-3.8626,-3.844,-3.8295,-3.875,-3.8854,-3.9075,-3.9488,-4.0054,-4.0448,-4.0717,-4.0572,-4.0593,-4.0439,-4.0073,-3.9081,-3.912,-3.9134,-3.806,-3.7943,-3.7862,-3.7862,-3.7255,-3.6886,-3.6664,-3.6423,-3.6293,-3.6201,-3.6292,-3.6311,-3.6311,-3.6237,-3.6201,-3.6201,-3.6126,-3.594,-3.5414,-3.5379,-3.5041,-3.4539,-3.4863,-3.5192,-3.5106,-3.5066,-3.5611,-3.5823,-3.585,-3.5884,-3.5689,-3.5278,-3.4772,-3.3996,-3.2969,-3.1842,-3.0739,-2.9735,-2.9483,-2.912,-2.9471,-2.9764,-3.01,-3.032,-3.051,-3.0788,-3.0788,-3.0744,-3.0759,-3.0617,-3.0403,-3.0263,-3.0224,-2.9698,-2.8925,-2.8787,-2.8797,-2.8119,-2.7282,-2.7319,-2.7158,-2.6543,-2.5976,-2.5648,-2.5308,-2.502,-2.4446,-2.4029,-2.3689,-4.0456,-3.9814,-4.0047,-3.9522,-3.851,-3.792,-3.7767,-3.7986,-3.827,-3.9122,-4.0345,-4.0889,-4.1129,-4.0866,-4.0535,-4.0115,-3.9896,-4.0024,-4.0082,-4.016,-4.0394,-4.0448,-4.0406,-4.0158,-3.9785,-3.9475,-3.9185,-3.8874,-3.844,-3.8523,-3.8605,-3.8626,-3.8585,-3.8854,-3.9179,-3.9909,-4.0489,-4.0696,-4.0882,-4.0758,-4.0666,-4.0453,-4.0055,-3.9423,-3.8838,-3.8859,-3.8306,-3.7601,-3.753,-3.7329,-3.6812,-3.659,-3.6534,-3.6312,-3.6237,-3.6292,-3.6457,-3.6549,-3.6494,-3.6366,-3.6201,-3.6201,-3.6145,-3.5938,-3.5291,-3.4852,-3.4855,-3.4633,-3.4528,-3.466,-3.5608,-3.5649,-3.5856,-3.5943,-3.5935,-3.5774,-3.5591,-3.5261,-3.4319,-3.3433,-3.2602,-3.1589,-3.0521,-2.9488,-2.933,-2.9266,-2.969,-3.01,-3.0407,-3.0598,-3.0715,-3.0759,-3.0744,-3.069,-3.0705,-3.0437,-3.0238,-3.0044,-2.9932,-2.9357,-2.8868,-2.8928,-2.8807,-2.8183,-2.7634,-2.7406,-2.7124,-2.6527,-2.6104,-2.5774,-2.5535,-2.5205,-2.449,-2.3719,-2.3455,-4.0076,-3.9797,-3.9449,-3.9056,-3.8554,-3.7876,-3.768,-3.7833,-3.8029,-3.9034,-4.052,-4.1197,-4.1348,-4.1018,-4.0511,-3.9984,-3.9647,-3.9731,-3.9833,-3.9896,-4.0013,-4.0096,-3.9951,-3.9792,-3.964,-3.9114,-3.9114,-3.9078,-3.8703,-3.8922,-3.8895,-3.8724,-3.873,-3.9144,-3.9723,-4.0427,-4.0882,-4.0882,-4.0882,-4.0882,-4.0862,-4.0668,-4.0238,-3.9654,-3.9136,-3.8627,-3.817,-3.7457,-3.7015,-3.696,-3.6683,-3.6367,-3.6311,-3.6329,-3.6347,-3.6549,-3.6714,-3.6842,-3.6769,-3.6622,-3.6329,-3.6237,-3.6384,-3.6098,-3.5463,-3.4616,-3.463,-3.4786,-3.43,-3.4392,-3.5742,-3.5538,-3.5772,-3.5821,-3.5514,-3.5433,-3.5608,-3.5375,-3.4093,-3.2953,-3.1968,-3.1071,-3.0284,-2.9389,-2.9697,-2.9661,-2.9939,-3.0305,-3.0583,-3.0715,-3.0685,-3.0715,-3.0715,-3.0661,-3.0607,-3.0314,-3.0105,-2.9855,-2.9632,-2.9297,-2.8977,-2.9047,-2.8987,-2.8438,-2.7983,-2.7544,-2.7141,-2.6686,-2.6356,-2.5962,-2.5477,-2.4906,-2.4534,-2.3845,-2.3593,-4.0516,-4.0213,-3.9253,-3.8597,-3.8226,-3.8095,-3.827,-3.8532,-3.8488,-3.934,-4.0891,-4.1175,-4.1238,-4.101,-4.0461,-3.9717,-3.9256,-3.9375,-3.9392,-3.9351,-3.9633,-3.9757,-3.982,-3.9687,-3.9684,-3.9584,-3.9642,-3.9663,-3.9369,-3.9446,-3.9288,-3.9241,-3.9516,-3.9785,-4.0199,-4.0634,-4.0882,-4.0882,-4.0924,-4.0944,-4.0882,-4.074,-4.0218,-3.9642,-3.9011,-3.8428,-3.7916,-3.7181,-3.6812,-3.6812,-3.6608,-3.6439,-3.6677,-3.6494,-3.6677,-3.7209,-3.7026,-3.6934,-3.6879,-3.6842,-3.6547,-3.6347,-3.6457,-3.6334,-3.5693,-3.5132,-3.4739,-3.51,-3.4512,-3.4598,-3.4922,-3.5164,-3.5736,-3.5821,-3.5514,-3.5433,-3.5689,-3.5244,-3.398,-3.273,-3.151,-3.0445,-2.9799,-2.9412,-2.9961,-3.0115,-3.0357,-3.0495,-3.0744,-3.0788,-3.0744,-3.0578,-3.0578,-3.0343,-3.022,-3.0165,-2.9983,-2.9635,-2.9328,-2.8938,-2.8883,-2.8993,-2.8903,-2.8584,-2.8227,-2.7665,-2.7341,-2.7004,-2.6464,-2.5911,-2.5007,-2.4412,-2.4196,-2.4045,-2.3793,-3.973,-3.9296,-3.8969,-3.8688,-3.851,-3.7876,-3.792,-3.851,-3.9493,-4.0563,-4.1393,-4.1765,-4.1719,-4.1296,-4.0415,-3.9672,-3.9538,-3.8974,-3.891,-3.933,-3.9433,-3.9342,-3.9443,-3.9647,-3.9677,-3.9766,-4.004,-4.0366,-4.0339,-4.0132,-4.0158,-4.0241,-4.0406,-4.0758,-4.082,-4.1069,-4.1338,-4.1338,-4.1317,-4.1214,-4.0924,-4.0433,-3.9858,-3.9373,-3.8574,-3.799,-3.7568,-3.6831,-3.6645,-3.6757,-3.6588,-3.6732,-3.6934,-3.6806,-3.7136,-3.7503,-3.7411,-3.7631,-3.7462,-3.7239,-3.667,-3.6472,-3.649,-3.6417,-3.5632,-3.5661,-3.5543,-3.5492,-3.5278,-3.5638,-3.6442,-3.6539,-3.6787,-3.6483,-3.6241,-3.6097,-3.5931,-3.5,-3.3867,-3.2634,-3.1495,-3.0502,-2.9745,-2.9697,-3.0042,-3.0349,-3.0495,-3.0583,-3.0803,-3.0734,-3.0719,-3.0401,-3.0234,-3.0067,-2.9914,-2.9747,-2.9495,-2.9146,-2.8894,-2.8601,-2.8716,-2.8952,-2.8987,-2.8835,-2.8368,-2.7852,-2.7341,-2.686,-2.6465,-2.5846,-2.5189,-2.4837,-2.4841,-2.457,-2.4223,-3.9122,-3.8775,-3.8753,-3.8666,-3.8532,-3.8073,-3.816,-3.8816,-4.0126,-4.1022,-4.1437,-4.1765,-4.1675,-4.1015,-4.0246,-3.9848,-3.9756,-3.9192,-3.9239,-3.955,-3.9265,-3.9276,-3.9416,-3.9643,-3.9887,-4.0057,-4.0536,-4.0947,-4.0969,-4.0826,-4.08,-4.1027,-4.1276,-4.14,-4.1503,-4.1814,-4.169,-4.1607,-4.1483,-4.1296,-4.0863,-4.0289,-3.9734,-3.9011,-3.8282,-3.7549,-3.7145,-3.6775,-3.6495,-3.6774,-3.692,-3.7099,-3.7246,-3.7338,-3.7594,-3.7833,-3.7888,-3.8034,-3.781,-3.7208,-3.6754,-3.6503,-3.674,-3.651,-3.6018,-3.5991,-3.6331,-3.6362,-3.6287,-3.6546,-3.7028,-3.7205,-3.7045,-3.6742,-3.6385,-3.6224,-3.5816,-3.4806,-3.3642,-3.2507,-3.1461,-3.0559,-2.9886,-3.0071,-3.0217,-3.0451,-3.0685,-3.0759,-3.0832,-3.0792,-3.0694,-3.0346,-3.0055,-2.9915,-2.9551,-2.916,-2.8908,-2.8655,-2.8446,-2.8295,-2.8646,-2.8938,-2.9015,-2.8924,-2.8291,-2.7613,-2.7141,-2.6702,-2.64,-2.6083,-2.5727,-2.553,-2.557,-2.5062,-2.449,-3.8753,-3.8753,-3.8816,-3.8575,-3.8292,-3.8641,-3.91,-3.9644,-4.0126,-4.0629,-4.1087,-4.1131,-4.0998,-4.0492,-3.9664,-3.9595,-3.9738,-3.913,-3.938,-3.9663,-3.9369,-3.9441,-3.9732,-4.011,-4.0415,-4.0665,-4.1098,-4.163,-4.1536,-4.1563,-4.1648,-4.1555,-4.1565,-4.1928,-4.2364,-4.2456,-4.2124,-4.1876,-4.171,-4.14,-4.0935,-4.0382,-3.9722,-3.907,-3.8267,-3.759,-3.711,-3.6848,-3.6844,-3.6952,-3.7228,-3.7594,-3.7741,-3.7649,-3.8053,-3.8255,-3.8199,-3.8071,-3.7975,-3.7371,-3.7012,-3.6945,-3.6844,-3.6823,-3.6755,-3.6614,-3.6922,-3.6992,-3.6947,-3.6804,-3.6885,-3.6804,-3.6804,-3.6466,-3.6092,-3.5816,-3.5604,-3.4675,-3.3417,-3.2269,-3.1364,-3.063,-3.0211,-3.0217,-3.032,-3.0466,-3.0671,-3.0773,-3.0861,-3.0993,-3.0713,-3.0193,-2.9929,-2.9776,-2.9382,-2.8837,-2.8642,-2.8487,-2.8257,-2.8176,-2.8537,-2.8662,-2.8574,-2.8375,-2.7914,-2.7453,-2.6876,-2.6637,-2.6413,-2.6189,-2.6029,-2.6004,-2.5885,-2.5203,-2.4733,-3.8313,-3.8313,-3.8313,-3.8619,-3.9185,-3.9274,-3.9624,-4.0105,-4.0585,-4.1066,-4.1481,-4.1153,-4.0934,-4.0757,-3.9972,-3.9948,-3.9702,-3.9411,-3.9428,-3.947,-3.9407,-3.9608,-4.0067,-4.0724,-4.1161,-4.1628,-4.2129,-4.2415,-4.2327,-4.2396,-4.2251,-4.2021,-4.2251,-4.274,-4.2903,-4.3097,-4.26,-4.2207,-4.2,-4.1565,-4.0946,-4.0258,-3.973,-3.9068,-3.8217,-3.7538,-3.7275,-3.6973,-3.7026,-3.7283,-3.7631,-3.7943,-3.7943,-3.8163,-3.853,-3.8511,-3.831,-3.803,-3.8249,-3.7698,-3.7319,-3.742,-3.7417,-3.7054,-3.709,-3.7276,-3.7667,-3.7605,-3.7605,-3.7525,-3.7285,-3.7125,-3.6724,-3.6224,-3.5753,-3.5231,-3.4809,-3.3596,-3.2379,-3.1631,-3.0725,-3.0555,-3.024,-3.0334,-3.0437,-3.0539,-3.0642,-3.0759,-3.089,-3.1022,-3.0672,-3.0069,-2.9775,-2.9621,-2.9116,-2.8571,-2.8473,-2.8278,-2.819,-2.8056,-2.8263,-2.8262,-2.808,-2.7845,-2.7453,-2.7078,-2.6598,-2.6413,-2.6413,-2.6387,-2.6319,-2.6334,-2.6122,-2.5542,-2.5043,-3.827,-3.816,-3.8532,-3.9143,-3.9797,-3.9688,-3.9885,-4.0279,-4.0607,-4.0978,-4.135,-4.1131,-4.0913,-4.0607,-4.0039,-3.9994,-4.0493,-3.9574,-3.946,-4.0107,-3.9462,-3.9939,-4.0595,-4.1207,-4.1571,-4.2193,-4.2557,-4.264,-4.2759,-4.2752,-4.2648,-4.247,-4.3067,-4.3177,-4.3235,-4.318,-4.2849,-4.2456,-4.2198,-4.1866,-4.109,-4.0248,-3.9652,-3.9082,-3.8169,-3.7727,-3.7509,-3.7228,-3.7448,-3.7686,-3.8034,-3.8255,-3.8273,-3.8432,-3.8621,-3.8603,-3.8396,-3.8341,-3.8451,-3.8025,-3.7903,-3.7834,-3.7765,-3.756,-3.7586,-3.7816,-3.7888,-3.7924,-3.8084,-3.8163,-3.7845,-3.7525,-3.6724,-3.6016,-3.5362,-3.4631,-3.3484,-3.225,-3.1468,-3.0736,-3.0379,-3.0204,-3.0203,-3.0393,-3.0539,-3.0642,-3.0715,-3.0773,-3.0905,-3.1051,-3.049,-2.9789,-2.9621,-2.9536,-2.8919,-2.846,-2.8322,-2.8201,-2.8069,-2.7975,-2.8017,-2.773,-2.7335,-2.7171,-2.6996,-2.6677,-2.64,-2.64,-2.6374,-2.6427,-2.6479,-2.6494,-2.6347,-2.6041,-2.5618,-3.8597,-3.8335,-3.9209,-3.9885,-4.017,-3.9885,-3.9951,-4.0257,-4.0323,-4.0541,-4.0891,-4.0935,-4.0694,-4.0345,-3.9909,-4.0148,-4.0255,-3.9665,-3.9747,-4.1029,-4.0163,-4.0315,-4.1142,-4.1605,-4.2058,-4.2241,-4.2451,-4.2656,-4.2761,-4.2972,-4.3057,-4.2879,-4.316,-4.3364,-4.3284,-4.3118,-4.2807,-4.2538,-4.2166,-4.1814,-4.1245,-4.0451,-3.9612,-3.9273,-3.859,-3.7934,-3.7829,-3.7796,-3.8034,-3.8181,-3.8346,-3.8505,-3.8524,-3.8542,-3.864,-3.864,-3.8505,-3.8505,-3.8542,-3.8249,-3.8109,-3.8084,-3.8102,-3.8156,-3.8272,-3.8145,-3.8225,-3.8084,-3.8084,-3.7845,-3.7445,-3.6947,-3.6305,-3.5315,-3.4438,-3.3613,-3.2506,-3.1468,-3.0811,-3.0358,-3.0477,-3.0364,-3.051,-3.0715,-3.0759,-3.0817,-3.0788,-3.0817,-3.0807,-3.0953,-3.042,-2.9621,-2.9411,-2.9214,-2.8808,-2.8349,-2.8311,-2.8122,-2.8003,-2.769,-2.7608,-2.7095,-2.644,-2.6571,-2.6677,-2.6585,-2.64,-2.6453,-2.648,-2.6467,-2.6546,-2.66,-2.644,-2.6172,-2.5827,-3.8991,-3.9253,-3.9842,-4.0192,-4.0257,-4.0148,-4.0148,-4.0344,-4.0344,-4.0345,-4.0454,-4.0454,-4.0432,-4.0301,-3.9953,-4.0083,-4.0127,-3.9886,-4.0057,-4.0623,-4.0428,-4.0906,-4.1844,-4.2111,-4.2479,-4.2709,-4.2753,-4.2685,-4.2799,-4.3205,-4.3538,-4.3403,-4.3679,-4.3916,-4.3276,-4.2973,-4.2745,-4.2696,-4.1979,-4.1628,-4.1224,-4.0736,-4.0124,-3.9794,-3.9163,-3.8668,-3.8465,-3.8264,-3.8291,-3.8456,-3.8566,-3.864,-3.864,-3.864,-3.864,-3.864,-3.864,-3.864,-3.856,-3.8481,-3.8402,-3.8511,-3.8602,-3.8846,-3.8846,-3.8609,-3.834,-3.8102,-3.7845,-3.7445,-3.6965,-3.6466,-3.577,-3.465,-3.3597,-3.2616,-3.1582,-3.0972,-3.0277,-3.038,-3.0539,-3.07,-3.0832,-3.092,-3.0978,-3.0949,-3.0846,-3.0749,-3.0596,-3.0614,-3.0252,-2.9579,-2.909,-2.8851,-2.8487,-2.8335,-2.8284,-2.8054,-2.7866,-2.7541,-2.7243,-2.6881,-2.6587,-2.6453,-2.64,-2.648,-2.6573,-2.6653,-2.6667,-2.6653,-2.6532,-2.6559,-2.6092,-2.5796,-2.5506,-3.9493,-3.9688,-4.0083,-4.0344,-4.0344,-4.0344,-4.0344,-4.0344,-4.0344,-4.0344,-4.0344,-4.0344,-4.0344,-4.0279,-4.0018,-4.004,-4.0236,-3.9888,-4.0278,-4.0692,-4.1042,-4.1455,-4.1981,-4.2464,-4.2736,-4.2991,-4.3002,-4.292,-4.2969,-4.3479,-4.3872,-4.3784,-4.4273,-4.4205,-4.3344,-4.3061,-4.282,-4.3052,-4.1855,-4.1296,-4.1173,-4.0898,-4.0335,-3.9902,-3.9625,-3.9252,-3.8873,-3.859,-3.8603,-3.864,-3.864,-3.864,-3.864,-3.864,-3.864,-3.864,-3.864,-3.864,-3.864,-3.864,-3.8658,-3.8786,-3.8926,-3.9091,-3.885,-3.865,-3.8248,-3.7971,-3.7721,-3.7365,-3.6644,-3.6063,-3.5075,-3.3985,-3.2949,-3.1872,-3.1275,-3.078,-3.0446,-3.0607,-3.0729,-3.0759,-3.0846,-3.0861,-3.0905,-3.0905,-3.0832,-3.0665,-3.0513,-3.032,-2.986,-2.9453,-2.8976,-2.8669,-2.8403,-2.8308,-2.8354,-2.8097,-2.7716,-2.7432,-2.7149,-2.6988,-2.6787,-2.6734,-2.6707,-2.672,-2.6814,-2.6854,-2.6814,-2.668,-2.6584,-2.6543,-2.598,-2.5367,-2.508,-4.0017,-3.9797,-4.0105,-4.0344,-4.0344,-4.0344,-4.0344,-4.0344,-4.0344,-4.0344,-4.0344,-4.0344,-4.0344,-4.0279,-4.0214,-4.0323,-4.0323,-4.0214,-4.0606,-4.1175,-4.1217,-4.185,-4.2264,-4.2617,-4.287,-4.3035,-4.3089,-4.3175,-4.3197,-4.3752,-4.4147,-4.4082,-4.4069,-4.4138,-4.3598,-4.3127,-4.2624,-4.2645,-4.1989,-4.1407,-4.1228,-4.1056,-4.0389,-4.0046,-3.9793,-3.9411,-3.9086,-3.8841,-3.8896,-3.8725,-3.864,-3.864,-3.864,-3.864,-3.864,-3.864,-3.864,-3.864,-3.864,-3.864,-3.8695,-3.8743,-3.9036,-3.9076,-3.8888,-3.8418,-3.8093,-3.7456,-3.7211,-3.6724,-3.608,-3.5514,-3.4425,-3.3301,-3.217,-3.1345,-3.0959,-3.0554,-3.0642,-3.0773,-3.0846,-3.0861,-3.0832,-3.0832,-3.0861,-3.0846,-3.0651,-3.0499,-3.0277,-3.0013,-2.9748,-2.9326,-2.8862,-2.8555,-2.8301,-2.8184,-2.8217,-2.7837,-2.7458,-2.7284,-2.7163,-2.7095,-2.7068,-2.7229,-2.7121,-2.7014,-2.6987,-2.7001,-2.6961,-2.668,-2.6545,-2.6316,-2.5583,-2.5067,-2.4696,-4.0236,-4.0148,-4.0236,-4.0344,-4.0344,-4.0344,-4.0344,-4.0344,-4.0279,-4.0344,-4.0301,-4.0279,-4.0279,-4.0279,-3.9953,-4.0105,-4.0781,-4.0671,-4.1303,-4.1981,-4.1939,-4.2442,-4.2813,-4.2879,-4.2787,-4.2892,-4.304,-4.3197,-4.3583,-4.4127,-4.3996,-4.3352,-4.4432,-4.394,-4.2377,-4.2225,-4.2571,-4.2518,-4.2015,-4.1318,-4.1485,-4.1243,-4.0551,-4.0162,-3.989,-3.9512,-3.9152,-3.8872,-3.8695,-3.8579,-3.864,-3.864,-3.864,-3.864,-3.864,-3.864,-3.864,-3.864,-3.864,-3.8768,-3.8878,-3.9,-3.9141,-3.8973,-3.863,-3.7885,-3.7229,-3.6041,-3.5658,-3.5273,-3.4702,-3.4621,-3.3854,-3.2379,-3.1158,-3.0914,-3.0651,-3.0554,-3.0568,-3.0788,-3.0993,-3.0934,-3.0832,-3.0876,-3.0978,-3.0934,-3.0749,-3.0499,-3.0095,-2.986,-2.9564,-2.9155,-2.8802,-2.8672,-2.8457,-2.8003,-2.7942,-2.7551,-2.7363,-2.7336,-2.731,-2.7296,-2.7268,-2.7348,-2.7281,-2.7148,-2.7148,-2.7121,-2.6665,-2.6466,-2.6318,-2.6037,-2.5308,-2.4751,-2.4418]}]]